     2              OBSERVATION DATA    GPS                 RINEX VERSION / TYPE
teqc 2000Jul20 Karen Wendt 20030411 20:21:21UTC             PGM / RUN BY / DATE
                                                            COMMENT
L2: 1 -> 1; 150 -> 5; 250 -> 9                              COMMENT
L2: 1 -> 1; 150 -> 5; 250 -> 9                              COMMENT
L2: 1 -> 1; 150 -> 5; 250 -> 9                              COMMENT
L2: 1 -> 1; 150 -> 5; 250 -> 9                              COMMENT
L2: 1 -> 1; 150 -> 5; 250 -> 9                              COMMENT
L2: 1 -> 1; 150 -> 5; 250 -> 9                              COMMENT
L2: 1 -> 1; 150 -> 5; 250 -> 9                              COMMENT
L2: 1 -> 1; 150 -> 5; 250 -> 9                              COMMENT
L2: 1 -> 1; 150 -> 5; 250 -> 9                              COMMENT
L2: 1 -> 1; 150 -> 5; 250 -> 9                              COMMENT
L2: 1 -> 1; 150 -> 5; 250 -> 9                              COMMENT
L2: 1 -> 1; 150 -> 5; 250 -> 9                              COMMENT
L2: 1 -> 1; 150 -> 5; 250 -> 9                              COMMENT
L2: 1 -> 1; 150 -> 5; 250 -> 9                              COMMENT
Original Marker Name: lae1 LAPE1__T6nR4e_S28S27_1919_GLO    COMMENT
Campaign Name: USGS 2003                                    COMMENT
4-Character Station Name: LAE1                              COMMENT
6-Character Antenna Code: DMRCHT                            COMMENT
Vertical Measurement Point: BCR                             COMMENT
Vertical Offset to Rinex Ref. Point: 0.0348                 COMMENT
Radial Measurement Point: ECF                               COMMENT
Radial Offset to Rinex Ref. Point: 0.1897                   COMMENT
Antenna Height from Field Measurement: 1.2000 m             COMMENT
Additional Antenna Identification Info.:                    COMMENT
Turborogue and Ashtech Choke Ring                           COMMENT
Original XYZ: -2350819.5149 -4703342.6618 3599608.7214      COMMENT
New XYZ position is based on association with SCEC monument COMMENT
E1F2J8I6+0011. Position of that monument is believed to be  COMMENT
valid to within 1 m horizontally; vertical accuracy         COMMENT
should be no worse than 3-times this value.                 COMMENT
                                                            COMMENT
Revised Rinex header created by UCSD GPS archive for        COMMENT
GSAC on 11-Jul-2003 (2003:192) 16:52:32 GMT                 COMMENT
For assistance contact dagnew@ucsd.edu                      COMMENT
or anderson@python.ucsd.edu                                 COMMENT
                                                            COMMENT
T6NR4E S28 S27 S33 S34 1919                                 MARKER NAME
JLS US GEOLOGICAL SURVEY                                    OBSERVER / AGENCY
LP019992809 ASHTECH Z-XII3 CD00                             REC # / TYPE / VERS
CR619992801 DORNE-MARGOL. TYPE T                            ANT # / TYPE
 -2350839.6563 -4703318.5399  3599600.5209                  APPROX POSITION XYZ
        1.1501        0.0000        0.0000                  ANTENNA: DELTA H/E/N
     1     1     0                                          WAVELENGTH FACT L1/2
     5    C1    L1    L2    P1    P2                        # / TYPES OF OBSERV
    30                                                      INTERVAL
  2003     4     9     0     1    0.000000                  TIME OF FIRST OBS
  2003     4     9    23    59   30.000000                  TIME OF LAST OBS
                                                            END OF HEADER
 03  4  9  0  1  0.0000000  0  8G17G23G31G14G15G18G 3G 9
  21687741.883   -21873803.82649 -16787406.42946  21687741.259    21687748.021
  21515163.953   -17593359.20349 -13684992.85047  21515163.282    21515168.963
  23474012.070    -7734466.65249  -5993341.39745  23474011.490    23474018.487
  21465224.760   -21782209.53749 -16909337.45547  21465224.235    21465229.593
  20187632.080   -27489790.36849 -21193909.15048  20187631.314    20187636.962
  20931634.820   -24428439.28049 -18468203.53147  20931634.311    20931638.667
  21999504.129   -17468530.31649 -13593915.64647  21999503.770    21999509.980
  23350641.455    -8145251.22249  -6333994.97845  23350641.307    23350648.262
 03  4  9  0  1 30.0000000  0  8G17G23G31G14G15G18G 3G 9
  21698430.774   -21817633.59649 -16743637.48146  21698430.170    21698436.911
  21522588.673   -17554342.21249 -13654590.00747  21522588.012    21522593.675
  23461635.918    -7799503.98649  -6044019.79945  23461635.317    23461642.324
  21450203.295   -21861147.48149 -16970847.49447  21450202.774    21450208.143
  20188374.167   -27485890.51549 -21190870.30848  20188373.400    20188379.079
  20938304.611   -24393389.35149 -18440891.90547  20938304.124    20938308.471
  21995802.087   -17487984.85749 -13609075.03147  21995801.723    21995807.930
  23345027.220    -8174754.30349  -6356984.35545  23345026.934    23345033.945
 03  4  9  0  2  0.0000000  0  8G17G23G31G14G15G18G 3G 9
  21709185.225   -21761118.88749 -16699600.10946  21709184.634    21709191.375
  21530033.480   -17515219.38149 -13624104.69747  21530032.828    21530038.516
  23449347.037    -7864082.39549  -6094340.59245  23449346.415    23449353.424
  21435259.893   -21939675.37049 -17032038.00947  21435259.389    21435264.753
  20189191.615   -27481595.00349 -21187523.16348  20189190.844    20189196.516
  20945010.467   -24358149.94649 -18413432.64047  20945009.971    20945014.313
  21992205.827   -17506883.39349 -13623801.16547  21992205.423    21992211.660
  23339509.631    -8203749.33149  -6379577.84845  23339509.324    23339516.311
 03  4  9  0  2 30.0000000  0  8G17G23G31G14G15G18G 3G 9
  21720005.042   -21704260.87649 -16655295.22146  21720004.414    21720011.185
  21537498.154   -17475992.31849 -13593538.16447  21537497.511    21537503.196
  23437145.679    -7928200.67949  -6144302.84845  23437145.082    23437152.182
  21420394.738   -22017792.04849 -17092908.10347  21420394.250    21420399.586
  20190084.327   -27476903.67249 -21183867.58848  20190083.556    20190089.238
  20951751.990   -24322723.04549 -18385827.26947  20951751.494    20951755.848
  21988715.372   -17525226.06549 -13638094.15747  21988714.970    21988721.198
  23334089.052    -8232235.20449  -6401774.59045  23334088.647    23334095.565
 03  4  9  0  3  0.0000000  0  8G17G23G31G14G15G18G 3G 9
  21730890.313   -21647058.59949 -16610722.08446  21730889.668    21730896.481
  21544982.631   -17436661.23049 -13562890.57247  21544982.009    21544987.680
  23425032.432    -7991855.93549  -6193904.30545  23425031.838    23425038.983
  21405608.359   -22095494.85749 -17153455.69947  21405607.846    21405613.188
  20191052.727   -27471814.79049 -21179902.23248  20191051.966    20191057.636
  20958529.159   -24287108.83149 -18358075.94547  20958528.663    20958533.028
  21985330.827   -17543011.87149 -13651953.23047  21985330.422    21985336.639
  23328765.663    -8260209.06249  -6423572.37445  23328765.392    23328772.265
 03  4  9  0  3 30.0000000  0  8G17G23G31G14G15G18G 3G 9
  21741841.002   -21589512.62349 -16565881.12146  21741840.337    21741847.166
  21552486.619   -17397227.63349 -13532163.10447  21552485.974    21552491.644
  23413007.572    -8055046.81949  -6243143.90745  23413006.973    23413014.065
  21390901.004   -22172782.36449 -17213679.68147  21390900.488    21390905.808
  20192096.910   -27466327.74649 -21175626.61648  20192096.143    20192101.807
  20965341.749   -24251308.67449 -18330179.72647  20965341.236    20965345.580
  21982052.202   -17560240.98649 -13665378.51847  21982051.832    21982058.069
  23323540.183    -8287669.35149  -6444969.97845  23323539.740    23323546.692
 03  4  9  0  4  0.0000000  0  8G17G23G31G14G15G18G 3G 9
  21752857.266   -21531622.05849 -16520771.64346  21752856.601    21752863.433
  21560010.001   -17357691.96349 -13501356.09447  21560009.366    21560015.048
  23401071.701    -8117770.68849  -6292019.61945  23401071.066    23401078.109
  21376273.151   -22249652.08149 -17273578.11947  21376272.634    21376277.942
  20193217.080   -27460441.08149 -21171039.60848  20193216.317    20193221.984
  20972189.628   -24215322.81549 -18302138.80247  20972189.135    20972193.463
  21978879.736   -17576912.32549 -13678369.17447  21978879.369    21978885.622
  23318412.698    -8314613.55149  -6465965.42545  23318412.479    23318419.423
 03  4  9  0  4 30.0000000  0  8G17G23G31G14G15G18G 3G 9
  21763938.737   -21473388.74849 -16475395.10746  21763938.079    21763944.885
  21567552.473   -17318056.10349 -13470471.01747  21567551.825    21567557.507
  23389224.784    -8180026.76149  -6340530.80045  23389224.147    23389231.133
  21361724.885   -22326103.61049 -17333150.69247  21361724.356    21361729.688
  20194413.299   -27454154.99649 -21166141.36548  20194412.539    20194418.187
  20979072.459   -24179153.49949 -18273954.92547  20979071.941    20979076.266
  21975813.238   -17593026.93149 -13690926.01547  21975812.891    21975819.130
  23313383.907    -8341040.84449  -6486558.07045  23313383.490    23313390.540
 03  4  9  0  5  0.0000000  0  8G17G23G31G14G15G18G 3G 9
  21775085.693   -21414811.38649 -16429750.48146  21775085.023    21775091.860
  21575114.013   -17278319.98449 -13439507.82047  21575113.360    21575119.042
  23377467.377    -8241812.29049  -6388675.34545  23377466.726    23377473.712
  21347256.762   -22402134.00249 -17392395.10947  21347256.232    21347261.552
  20195685.912   -27447467.48349 -21160930.32548  20195685.148    20195690.808
  20985990.158   -24142800.76849 -18245628.13047  20985989.642    20985993.982
  21972852.915   -17608583.51349 -13703048.03347  21972852.590    21972858.803
  23308453.709    -8366948.42449  -6506745.76845  23308453.393    23308460.429
 03  4  9  0  5 30.0000000  0  8G17G23G31G14G15G18G 3G 9
  21786298.135   -21355889.81449 -16383837.64246  21786297.470    21786304.350
  21582694.540   -17238484.13349 -13408466.89847  21582693.882    21582699.592
  23365799.875    -8303124.94849  -6436451.39745  23365799.254    23365806.219
  21332869.200   -22477741.07549 -17451309.66147  21332868.663    21332873.961
  20197035.174   -27440377.13449 -21155405.38148  20197034.414    20197040.059
  20992942.645   -24106265.17249 -18217158.84147  20992942.148    20992946.473
  21969998.988   -17623581.40949 -13714734.70647  21969998.597    21970004.821
  23303622.912    -8392334.03249  -6526526.71445  23303622.628    23303629.746
 03  4  9  0  6  0.0000000  0  8G17G23G31G14G15G18G 3G 9
  21797575.919   -21296624.84049 -16337657.21846  21797575.262    21797582.184
  21590293.728   -17198550.25749 -13377349.60747  21590293.061    21590298.762
  23354222.628    -8363963.58949  -6483858.08345  23354222.058    23354228.977
  21318562.349   -22552923.74149 -17509893.51347  21318561.847    21318567.144
  20198461.119   -27432883.80049 -21149566.43048  20198460.347    20198466.005
  20999929.621   -24069548.47849 -18188548.43847  20999929.112    20999933.439
  21967251.130   -17638021.17449 -13725986.47647  21967250.769    21967256.977
  23298891.795    -8417196.42249  -6545899.96945  23298891.453    23298898.567
 03  4  9  0  6 30.0000000  0  8G17G23G31G14G15G18G 3G 9
  21808919.187   -21237015.73349 -16291208.62546  21808918.540    21808925.517
  21597911.494   -17158518.56249 -13346156.08347  21597910.827    21597916.527
  23342736.024    -8424325.88649  -6530893.61745  23342735.520    23342742.337
  21304336.707   -22627679.73649 -17568144.89447  21304336.215    21304341.490
  20199964.054   -27424985.84949 -21143412.19048  20199963.296    20199968.942
  21006950.946   -24032651.15449 -18159797.28647  21006950.441    21006954.791
  21964609.706   -17651901.88549 -13736802.62447  21964609.337    21964615.558
  23294260.642    -8441533.32949  -6564863.76145  23294260.319    23294267.355
 03  4  9  0  7  0.0000000  0  8G17G23G31G14G15G18G 3G 9
  21820327.887   -21177062.95749 -16244492.23246  21820327.222    21820334.211
  21605547.627   -17118390.40449 -13314887.40247  21605546.961    21605552.652
  23331340.434    -8484210.36749  -6577556.80145  23331339.830    23331346.640
  21290192.506   -22702007.89449 -17626062.89347  21290191.987    21290197.263
  20201544.051   -27416682.93849 -21136942.39848  20201543.283    20201548.944
  21014006.407   -23995574.57849 -18130906.45647  21014005.906    21014010.236
  21962074.589   -17665223.97649 -13747183.48047  21962074.232    21962080.483
  23289729.747    -8465343.31449  -6583416.95745  23289729.476    23289736.407
 03  4  9  0  7 30.0000000  0  8G17G23G31G14G15G18G 3G 9
  21831801.909   -21116766.73949 -16197508.22746  21831801.258    21831808.267
  21613202.039   -17078166.34349 -13283543.98847  21613201.372    21613207.087
  23320036.063    -8543614.92749  -6623846.03145  23320035.445    23320042.354
  21276130.106   -22775905.94849 -17683645.74547  21276129.602    21276134.863
  20203201.348   -27407973.83849 -21130156.09248  20203200.575    20203206.242
  21021095.808   -23958319.52549 -18101876.55047  21021095.308    21021099.637
  21959645.864   -17677986.99049 -13757128.69047  21959645.514    21959651.782
  23285299.442    -8488624.30949  -6601557.95645  23285299.163    23285306.179
 03  4  9  0  8  0.0000000  0  8G17G23G31G14G15G18G 3G 9
  21843341.305   -21056126.99149 -16150256.51646  21843340.640    21843347.673
  21620874.529   -17037847.26049 -13252126.52847  21620873.841    21620879.577
  23308823.410    -8602537.65749  -6669759.81045  23308822.808    23308829.660
  21262149.931   -22849372.33749 -17740892.23147  21262149.390    21262154.661
  20204936.118   -27398857.44349 -21123052.41548  20204935.354    20204941.011
  21028219.076   -23920886.58649 -18072708.03347  21028218.567    21028222.910
  21957323.602   -17690190.74849 -13766638.12047  21957323.241    21957329.478
  23280970.321    -8511374.07849  -6619285.00345  23280969.980    23280976.993
 03  4  9  0  8 30.0000000  0  8G17G23G31G14G15G18G 3G 9
  21854945.988   -20995144.25849 -16102737.56046  21854945.336    21854952.405
  21628564.923   -16997434.09049 -13220635.76147  21628564.257    21628569.955
  23297702.659    -8660977.12249  -6715297.01345  23297702.017    23297708.950
  21248252.138   -22922405.46649 -17797801.11747  21248251.602    21248256.881
  20206748.566   -27389333.02549 -21115630.79648  20206747.820    20206753.476
  21035375.982   -23883276.93649 -18043401.81947  21035375.483    21035379.810
  21955107.694   -17701835.68349 -13775712.10447  21955107.305    21955113.515
  23276742.455    -8533591.40749  -6636597.17445  23276742.177    23276749.149
 03  4  9  0  9  0.0000000  0  8G17G23G31G14G15G18G 3G 9
  21866616.032   -20933818.02049 -16054950.95446  21866615.357    21866622.460
  21636273.111   -16956927.37749 -13189072.10047  21636272.430    21636278.130
  23286674.328    -8718931.08549  -6760455.91445  23286673.751    23286680.597
  21234437.244   -22995003.20349 -17854370.74147  21234436.695    21234441.934
  20208638.917   -27379399.29649 -21107890.23848  20208638.171    20208643.827
  21042566.311   -23845491.48949 -18013958.62747  21042565.815    21042570.160
  21952998.227   -17712920.95649 -13784349.98747  21952997.866    21953004.100
  23272616.420    -8555274.15949  -6653492.79045  23272616.083    23272623.027
 03  4  9  0  9 30.0000000  0  8G17G23G31G14G15G18G 3G 9
  21878351.427   -20872148.24049 -16006896.63846  21878350.743    21878357.867
  21643998.993   -16916327.69749 -13157435.99647  21643998.312    21644004.009
  23275738.867    -8776397.51349  -6805234.91545  23275738.252    23275745.018
  21220705.480   -23067163.69849 -17910599.65547  21220704.952    21220710.177
  20210607.325   -27369055.26249 -21099829.96048  20210606.558    20210612.222
  21049789.987   -23807530.78449 -17984378.86647  21049789.484    21049793.825
  21950995.279   -17723446.34549 -13792551.60347  21950994.922    21951001.152
  23268592.410    -8576420.44949  -6669970.38845  23268592.049    23268598.969
 03  4  9  0 10  0.0000000  0  8G17G23G31G14G15G18G 3G 9
  21890152.019   -20810135.90649 -15958575.40546  21890151.343    21890158.480
  21651742.277   -16875636.52249 -13125728.60247  21651741.591    21651747.284
  23264896.356    -8833375.36849  -6849633.21145  23264895.688    23264902.490
  21207057.199   -23138885.83249 -17966486.99447  21207056.660    21207061.853
  20212653.827   -27358300.78849 -21091449.86148  20212653.052    20212658.727
  21057046.724   -23769396.49349 -17954663.84747  21057046.190    21057050.535
  21949098.812   -17733412.43449 -13800317.40047  21949098.456    21949104.671
  23264670.674    -8597029.09749  -6686029.04745  23264670.314    23264677.210
 03  4  9  0 10 30.0000000  0  8G17G23G31G14G15G18G 3G 9
  21902017.774   -20747780.96849 -15909987.20646  21902017.109    21902024.258
  21659502.907   -16834854.07349 -13093950.08447  21659502.249    21659507.940
  23254147.165    -8889862.32349  -6893648.98145  23254146.599    23254153.338
  21193492.774   -23210167.48249 -18022031.09347  21193492.231    21193497.374
  20214778.750   -27347134.21149 -21082748.63748  20214778.000    20214783.682
  21064336.480   -23731088.61049 -17924813.55847  21064335.954    21064340.334
  21947308.891   -17742818.60049 -13807646.89147  21947308.544    21947314.751
  23260851.549    -8617097.92749  -6701667.06145  23260851.308    23260858.238
 03  4  9  0 11  0.0000000  0  8G17G23G31G14G15G18G 3G 9
  21913948.801   -20685082.95649 -15861131.67046  21913948.159    21913955.336
  21667280.814   -16793981.00549 -13062100.94947  21667280.154    21667285.844
  23243491.821    -8945856.45149  -6937280.74445  23243491.306    23243497.994
  21180012.463   -23281006.86649 -18077230.56847  21180011.923    21180017.029
  20216982.286   -27335554.62249 -21073725.58748  20216981.525    20216987.205
  21071659.087   -23692608.01449 -17894828.68847  21071658.584    21071662.960
  21945625.545   -17751664.75249 -13814540.00947  21945625.180    21945631.380
  23257135.660    -8636625.12149  -6716883.02045  23257135.370    23257142.302
 03  4  9  0 11 30.0000000  0  8G17G23G31G14G15G18G 3G 9
  21925945.109   -20622042.36649 -15812009.19346  21925944.484    21925951.627
  21675075.718   -16753018.61149 -13030182.20947  21675075.058    21675080.753
  23232930.477    -9001356.54749  -6980527.53845  23232929.947    23232936.631
  21166616.519   -23351402.95149 -18132084.61947  21166615.987    21166621.071
  20219264.472   -27323561.68149 -21064380.44448  20219263.705    20219269.391
  21079014.286   -23653956.25949 -17864710.44747  21079013.782    21079018.157
  21944048.615   -17759951.60549 -13820997.31247  21944048.251    21944054.452
  23253523.031    -8655609.67649  -6731676.14945  23253522.701    23253529.604
 03  4  9  0 12  0.0000000  0  8G17G23G31G14G15G18G 3G 9
  21938006.496   -20558659.72049 -15762620.18646  21938005.845    21938012.982
  21682887.424   -16711967.81949 -12998194.59947  21682886.760    21682892.453
  23222463.479    -9056361.04649  -7023388.15946  23222462.913    23222469.631
  21153305.253   -23421354.02049 -18186591.90747  21153304.712    21153309.792
  20221625.467   -27311154.47549 -21054712.50148  20221624.691    20221630.394
  21086401.900   -23615134.19549 -17834459.50147  21086401.388    21086405.776
  21942578.151   -17767679.17249 -13827018.81847  21942577.779    21942583.999
  23250013.961    -8674049.77249  -6746045.02545  23250013.681    23250020.548
 03  4  9  0 12 30.0000000  0  8G17G23G31G14G15G18G 3G 9
  21950133.077   -20494934.46949 -15712964.19746  21950132.429    21950139.561
  21690715.947   -16670828.48049 -12966137.98347  21690715.290    21690721.022
  23212091.178    -9110867.43249  -7065860.64746  23212090.604    23212097.351
  21140079.121   -23490857.70249 -18240750.57947  21140078.598    21140083.672
  20224065.651   -27298331.33949 -21044720.45448  20224064.891    20224070.594
  21093821.904   -23576141.79249 -17804075.82347  21093821.401    21093825.762
  21941214.232   -17774846.51849 -13832603.77547  21941213.864    21941220.105
  23246608.963    -8691943.13949  -6759987.88045  23246608.668    23246615.545
 03  4  9  0 13  0.0000000  0  8G17G23G31G14G15G18G 3G 9
  21962324.692   -20430867.44649 -15663041.88146  21962324.039    21962331.161
  21698561.143   -16629601.84849 -12934013.34747  21698560.489    21698566.206
  23201813.996    -9164874.53749  -7107944.07446  23201813.419    23201820.124
  21126938.273   -23559912.92649 -18294559.80247  21126937.745    21126942.842
  20226585.017   -27285092.06749 -21034404.14148  20226584.237    20226589.937
  21101274.010   -23536980.75549 -17773560.73747  21101273.502    21101277.858
  21939956.759   -17781454.57749 -13837752.93347  21939956.404    21939962.642
  23243308.252    -8709288.71749  -6773503.88845  23243307.893    23243314.766
 03  4  9  0 13 30.0000000  0  8G17G23G31G14G15G18G 3G 9
  21974581.254   -20366458.95649 -15612853.50446  21974580.595    21974587.745
  21706422.740   -16588288.88549 -12901821.44547  21706422.097    21706427.806
  23191632.063    -9218380.94549  -7149637.35546  23191631.457    23191638.210
  21113883.037   -23628518.28349 -18348018.48147  21113882.553    21113887.618
  20229183.688   -27271435.95249 -21023763.02248  20229182.928    20229188.620
  21108758.102   -23497651.71449 -17742914.74847  21108757.601    21108761.966
  21938805.752   -17787503.41549 -13842466.33047  21938805.391    21938811.596
  23240111.930    -8726085.08949  -6786591.94245  23240111.606    23240118.443
 03  4  9  0 14  0.0000000  0  8G17G23G31G14G15G18G 3G 9
  21986902.882   -20301708.68349 -15562398.80746  21986902.234    21986909.383
  21714300.729   -16546889.68949 -12869562.34347  21714300.093    21714305.852
  23181545.841    -9271384.36449  -7190938.69346  23181545.210    23181551.933
  21100913.869   -23696671.68549 -18401124.98847  21100913.372    21100918.411
  20231861.963   -27257361.60349 -21012796.00548  20231861.194    20231866.877
  21116274.050   -23458155.19049 -17712138.25147  21116273.548    21116277.910
  21937761.206   -17792992.48849 -13846743.55147  21937760.854    21937767.058
  23237020.487    -8742329.96749  -6799250.26745  23237020.296    23237027.088
 03  4  9  0 14 30.0000000  0  8G17G23G31G14G15G18G 3G 9
  21999289.589   -20236616.64149 -15511677.80646  21999288.899    21999296.073
  21722195.025   -16505404.91449 -12837236.55847  21722194.388    21722200.157
  23171555.621    -9323883.11649  -7231846.79046  23171555.046    23171561.667
  21088031.020   -23764371.52049 -18453878.06547  21088030.500    21088035.533
  20234619.924   -27242868.34449 -21001502.56448  20234619.155    20234624.867
  21123821.772   -23418491.77449 -17681231.70547  21123821.263    21123825.619
  21936823.175   -17797921.94949 -13850584.71347  21936822.843    21936829.059
  23234034.484    -8758021.79749  -6811477.65245  23234034.193    23234041.040
 03  4  9  0 15  0.0000000  0  8G17G23G31G14G15G18G 3G 9
  22011741.068   -20171183.80249 -15460691.25646  22011740.419    22011747.584
  21730105.427   -16463835.70249 -12804844.98447  21730104.781    21730110.528
  23161661.641    -9375876.11949  -7272360.79146  23161661.085    23161667.711
  21075234.628   -23831616.64049 -18506276.82347  21075234.129    21075239.180
  20237457.725   -27227955.71849 -20989882.35048  20237456.960    20237462.662
  21131400.948   -23378662.94049 -17650196.26647  21131400.446    21131404.814
  21935991.464   -17802292.65649 -13853990.47847  21935991.109    21935997.373
  23231153.724    -8773159.73249  -6823273.40245  23231153.437    23231160.332
 03  4  9  0 15 30.0000000  0  8G17G23G31G14G15G18G 3G 9
  22024257.326   -20105410.62149 -15409439.50946  22024256.674    22024263.861
  21738031.625   -16422183.30549 -12772388.58647  21738030.964    21738036.717
  23151864.144    -9427362.32349  -7312479.88146  23151863.628    23151870.110
  21062524.984   -23898406.05549 -18558320.48547  21062524.498    21062529.550
  20240375.408   -27212623.24149 -20977934.97048  20240374.650    20240380.327
  21139011.406   -23338669.82749 -17619032.81547  21139010.877    21139015.258
  21935265.929   -17806105.31849 -13856961.40147  21935265.611    21935271.905
  23228378.716    -8787742.84249  -6834636.85646  23228378.408    23228385.244
 03  4  9  0 16  0.0000000  0  8G17G23G31G14G15G18G 3G 9
  22036838.443   -20039296.77949 -15357922.31046  22036837.794    22036844.977
  21745973.600   -16380447.90949 -12739867.51347  21745972.946    21745978.686
  23142163.567    -9478339.62249  -7352202.43446  23142163.024    23142169.445
  21049902.405   -23964737.86649 -18610007.57147  21049901.916    21049906.987
  20243373.178   -27196869.85149 -20965659.61248  20243372.405    20243378.094
  21146652.954   -23298513.21449 -17587741.96147  21146652.447    21146656.794
  21934646.726   -17809359.41949 -13859497.08247  21934646.400    21934652.712
  23225709.470    -8801769.19149  -6845566.44846  23225709.246    23225716.109
 03  4  9  0 16 30.0000000  0  8G17G23G31G14G15G18G 3G 9
  22049484.156   -19972843.31549 -15306140.46946  22049483.540    22049490.730
  21753931.178   -16338630.59449 -12707282.60547  21753930.527    21753936.279
  23132559.924    -9528806.76849  -7391527.45746  23132559.372    23132565.858
  21037367.162   -24030610.84049 -18661337.12247  21037366.664    21037371.738
  20246451.200   -27180694.98049 -20953055.82448  20246450.424    20246456.111
  21154325.490   -23258193.92049 -17556324.34247  21154324.976    21154329.313
  21934133.631   -17812055.69649 -13861598.10247  21934133.306    21934139.631
  23223146.662    -8815237.75449  -6856061.41746  23223146.340    23223153.134
 03  4  9  0 17  0.0000000  0  8G17G23G31G14G15G18G 3G 9
  22062194.595   -19906050.14849 -15254093.93646  22062193.941    22062201.158
  21761904.285   -16296731.59349 -12674634.04947  21761903.618    21761909.401
  23123053.741    -9578761.70749  -7430453.36346  23123053.214    23123059.707
  21024919.649   -24096022.95849 -18712307.56747  21024919.122    21024924.185
  20249609.615   -27164097.26149 -20940122.54648  20249608.848    20249614.554
  21162028.932   -23217712.08049 -17524780.06847  21162028.413    21162032.770
  21933726.796   -17814193.74049 -13863264.12747  21933726.467    21933732.796
  23220690.103    -8828146.38449  -6866120.08746  23220689.911    23220696.689
 03  4  9  0 17 30.0000000  0  8G17G23G31G14G15G18G 3G 9
  22074969.611   -19838917.02749 -15201782.49146  22074968.987    22074976.220
  21769892.817   -16254751.46349 -12641922.27247  21769892.157    21769897.976
  23113645.383    -9628202.98449  -7468979.00946  23113644.876    23113651.330
  21012560.029   -24160973.01549 -18762917.95947  21012559.528    21012564.565
  20252848.662   -27147075.98449 -20926859.22048  20252847.905    20252853.616
  21169763.131   -23177068.58249 -17493109.82147  21169762.598    21169766.984
  21933426.125   -17815773.96849 -13864495.49347  21933425.805    21933432.090
  23218340.658    -8840493.83949  -6875741.43746  23218340.337    23218347.080
 03  4  9  0 18  0.0000000  0  8G17G23G31G14G15G18G 3G 9
  22087809.198   -19771444.88449 -15149206.87646  22087808.578    22087815.830
  21777896.647   -16212691.18649 -12609148.04647  21777895.986    21777901.809
  23104334.979    -9677129.45249  -7507103.50446  23104334.452    23104340.895
  21000288.617   -24225459.65649 -18813167.25147  21000288.093    21000293.123
  20256168.378   -27129630.77149 -20913265.55548  20256167.627    20256173.343
  21177527.861   -23136264.74249 -17461314.63547  21177527.343    21177531.723
  21933231.396   -17816797.33349 -13865292.93547  21933231.080    21933237.344
  23216097.998    -8852279.17549  -6884924.80946  23216097.670    23216104.358
 03  4  9  0 18 30.0000000  0  8G17G23G31G14G15G18G 3G 9
  22100713.323   -19703633.52049 -15096366.91846  22100712.675    22100719.973
  21785915.687   -16170550.88549 -12576311.46247  21785915.025    21785920.827
  23095122.958    -9725539.15449  -7544825.31746  23095122.379    23095128.810
  20988105.709   -24289481.10749 -18863054.06247  20988105.197    20988110.210
  20259568.993   -27111760.44649 -20899340.63948  20259568.233    20259573.952
  21185323.043   -23095300.79249 -17429394.69047  21185322.526    21185326.907
  21933142.744   -17817263.36449 -13865656.09347  21933142.392    21933148.653
  23213962.623    -8863500.40149  -6893668.60846  23213962.258    23213969.020
 03  4  9  0 19  0.0000000  0  8G17G23G31G14G15G18G 3G 9
  22113681.755   -19635484.03049 -15043263.49246  22113681.127    22113688.453
  21793949.784   -16128331.55749 -12543413.30047  21793949.113    21793954.910
  23086009.386    -9773430.97449  -7582143.59446  23086008.749    23086015.268
  20976011.493   -24353036.26349 -18912577.52347  20976011.010    20976015.991
  20263050.562   -27093464.60749 -20885084.14948  20263049.812    20263055.552
  21193148.525   -23054177.72649 -17397350.74947  21193148.019    21193152.356
  21933160.034   -17817172.64449 -13865585.41547  21933159.680    21933165.961
  23211934.760    -8874156.72449  -6901972.21446  23211934.392    23211941.178
 03  4  9  0 19 30.0000000  0  8G17G23G31G14G15G18G 3G 9
  22126714.573   -19566996.11649 -14989896.35646  22126713.955    22126721.363
  21801998.855   -16086033.27449 -12510453.61247  21801998.201    21802003.998
  23076994.749    -9820802.91349  -7619056.76746  23076994.199    23077000.674
  20964006.478   -24416123.06149 -18961736.02647  20964005.981    20964010.953
  20266613.365   -27074742.05849 -20870495.15648  20266612.616    20266618.361
  21201004.203   -23012895.90849 -17365183.11047  21201003.701    21201008.039
  21933283.298   -17816525.01449 -13865080.78647  21933282.934    21933289.187
  23210014.764    -8884246.18149  -6909834.11146  23210014.402    23210021.163
 03  4  9  0 20  0.0000000  0  8G17G23G31G14G15G18G 3G 9
  22139811.659   -19498170.49749 -14936266.06846  22139811.078    22139818.494
  21810062.709   -16043657.48449 -12477433.52847  21810062.058    21810067.862
  23068079.190    -9867654.21049  -7655564.24946  23068078.612    23068085.194
  20952090.654   -24478741.05249 -19010529.23247  20952090.140    20952095.089
  20270257.357   -27055592.75649 -20855573.63548  20270256.593    20270262.355
  21208889.822   -22971456.66149 -17332892.80247  21208889.331    21208893.698
  21933512.285   -17815321.60949 -13864143.08447  21933511.916    21933518.188
  23208202.785    -8893768.29949  -6917253.93546  23208202.426    23208209.153
 03  4  9  0 20 30.0000000  0  8G17G23G31G14G15G18G 3G 9
  22152973.085   -19429007.10749 -14882372.58446  22152972.496    22152979.943
  21818141.268   -16001204.30649 -12444353.14547  21818140.636    21818146.418
  23059263.064    -9913983.11749  -7691664.66546  23059262.465    23059269.095
  20940264.407   -24540888.27449 -19058955.59947  20940263.887    20940268.819
  20273982.794   -27036015.60449 -20840318.72548  20273982.034    20273987.787
  21216805.348   -22929860.29849 -17300480.06347  21216804.852    21216809.244
  21933847.032   -17813562.47349 -13862772.34247  21933846.664    21933852.942
  23206499.062    -8902721.42949  -6924230.38146  23206498.665    23206505.480
 03  4  9  0 21  0.0000000  0  8G17G23G31G14G15G18G 3G 9
  22166198.643   -19359506.58949 -14828216.39146  22166198.070    22166205.549
  21826234.490   -15958674.38949 -12411212.96347  21826233.853    21826239.627
  23050546.579    -9959788.34549  -7727357.03046  23050545.989    23050552.595
  20928527.944   -24602563.69349 -19107014.32747  20928527.422    20928532.331
  20277789.736   -27016010.00649 -20824729.95348  20277788.969    20277794.720
  21224750.554   -22888107.77149 -17267945.63647  21224750.081    21224754.467
  21934287.413   -17811248.31149 -13860969.11147  21934287.049    21934293.355
  23204903.494    -8911104.68849  -6930762.76846  23204903.370    23204910.175
 03  4  9  0 21 30.0000000  0  8G17G23G31G14G15G18G 3G 9
  22179488.252   -19289669.47149 -14773797.91446  22179487.690    22179495.167
  21834342.141   -15916068.59149 -12378013.65947  21834341.500    21834347.259
  23041929.986   -10005068.72749  -7762640.42846  23041929.424    23041935.994
  20916881.505   -24663766.03949 -19154704.42847  20916880.985    20916885.890
  20281678.309   -26995575.39149 -20808806.88248  20281677.557    20281683.284
  21232725.310   -22846200.24349 -17235290.43047  21232724.820    21232729.207
  21934833.304   -17808379.70749 -13858733.84847  21934832.941    21934839.229
  23203416.834    -8918916.97249  -6936850.24146  23203416.739    23203423.494
 03  4  9  0 22  0.0000000  0  8G17G23G31G14G15G18G 3G 9
  22192841.895   -19219496.14349 -14719117.46146  22192841.245    22192848.741
  21842464.068   -15873387.52849 -12344755.70347  21842463.447    21842469.176
  23033413.553   -10049822.92749  -7797513.81246  23033412.960    23033419.545
  20905325.296   -24724494.14949 -19202025.00047  20905324.785    20905329.687
  20285648.604   -26974711.34749 -20792549.20148  20285647.848    20285653.590
  21240729.471   -22804138.07549 -17202514.73047  21240728.979    21240733.396
  21935484.577   -17804957.25249 -13856067.02047  21935484.230    21935490.505
  23202039.079    -8926157.01149  -6942491.81546  23202038.983    23202045.768
 03  4  9  0 22 30.0000000  0  8G17G23G31G14G15G18G 3G 9
  22206259.377   -19148987.31249 -14664175.59046  22206258.707    22206266.242
  21850600.218   -15830631.83449 -12311439.59747  21850599.575    21850605.310
  23024997.397   -10094049.74349  -7831976.25246  23024996.806    23025003.451
  20893859.524   -24784746.97749 -19248975.22047  20893859.012    20893863.918
  20289700.721   -26953417.31449 -20775956.46648  20289699.963    20289705.732
  21248762.849   -22761922.24349 -17169619.29547  21248762.358    21248766.781
  21936241.076   -17800981.80449 -13852969.29347  21936240.766    21936247.024
  23200770.378    -8932824.14149  -6947686.97046  23200770.291    23200777.080
 03  4  9  0 23  0.0000000  0  8G17G23G31G14G15G18G 3G 9
  22219740.590   -19078143.54849 -14608972.72946  22219739.894    22219747.431
  21858750.490   -15787801.85949 -12278065.60447  21858749.842    21858755.619
  23016681.936   -10137747.70249  -7866026.58746  23016681.283    23016687.942
  20882484.593   -24844522.68449 -19295553.65647  20882484.077    20882488.965
  20293834.841   -26931692.43049 -20759027.99548  20293834.071    20293839.853
  21256825.351   -22719553.61649 -17136604.79347  21256824.856    21256829.317
  21937102.824   -17796453.58549 -13849440.82347  21937102.490    21937108.709
  23199611.068    -8938916.85549  -6952434.51646  23199610.794    23199617.590
 03  4  9  0 23 30.0000000  0  8G17G23G31G14G15G18G 3G 9
  22233285.526   -19006964.61949 -14553508.72546  22233284.817    22233292.398
  21866914.802   -15744898.04749 -12244634.07847  21866914.160    21866919.950
  23008467.411   -10180915.36749  -7899663.70546  23008466.760    23008473.393
  20871200.633   -24903820.03149 -19341759.34247  20871200.119    20871205.006
  20298051.125   -26909535.70049 -20741763.02248  20298050.362    20298056.136
  21264916.816   -22677032.41949 -17103471.40547  21264916.345    21264920.822
  21938069.645   -17791372.95649 -13845481.90847  21938069.301    21938075.525
  23198561.194    -8944433.90749  -6956733.50846  23198560.901    23198567.736
 03  4  9  0 24  0.0000000  0  8G17G23G31G14G15G18G 3G 9
  22246894.100   -18935451.38449 -14497784.20946  22246893.436    22246900.935
  21875093.015   -15701921.43249 -12211145.81947  21875092.359    21875098.167
  23000353.871   -10223552.05649  -7932887.07846  23000353.227    23000359.909
  20860007.843   -24962638.39549 -19387591.79747  20860007.328    20860012.211
  20302349.618   -26886947.11649 -20724161.54248  20302348.856    20302354.632
  21273037.181   -22634359.73749 -17070219.98047  21273036.703    21273041.172
  21939141.353   -17785741.09849 -13841093.46647  21939141.009    21939147.287
  23197621.078    -8949374.73649  -6960583.47546  23197620.671    23197627.514
 03  4  9  0 24 30.0000000  0  8G17G23G31G14G15G18G 3G 9
  22260566.231   -18863604.18049 -14441799.44846  22260565.511    22260573.087
  21883285.018   -15658872.05549 -12177600.86447  21883284.378    21883290.198
  22992341.813   -10265655.85349  -7965695.22046  22992341.143    22992347.901
  20848906.497   -25020976.12049 -19433049.72547  20848905.983    20848910.879
  20306730.479   -26863925.64049 -20706222.74448  20306729.704    20306735.485
  21281186.292   -22591536.02849 -17036850.86947  21281185.792    21281190.262
  21940317.941   -17779558.11149 -13836275.57047  21940317.614    21940323.880
  23196790.822    -8953737.75749  -6963983.22446  23196790.466    23196797.258
 03  4  9  0 25  0.0000000  0  8G17G23G31G14G15G18G 3G 9
  22274301.880   -18791422.96749 -14385554.40846  22274301.202    22274308.779
  21891490.820   -15615750.36549 -12143999.55847  21891490.197    21891496.006
  22984431.243   -10307225.55249  -7998087.17546  22984430.680    22984437.389
  20837896.931   -25078831.53449 -19478131.82847  20837896.425    20837901.321
  20311193.796   -26840470.69649 -20687946.17648  20311193.024    20311198.803
  21289364.039   -22548561.80349 -17003364.47747  21289363.530    21289367.988
  21941599.325   -17772824.62649 -13831028.72147  21941598.997    21941605.246
  23196070.699    -8957521.85849  -6966931.85546  23196070.345    23196077.099
 03  4  9  0 25 30.0000000  0  8G17G23G31G14G15G18G 3G 9
  22288100.943   -18718908.83449 -14329049.96346  22288100.279    22288107.793
  21899710.314   -15572556.78249 -12110342.23847  21899709.666    21899715.488
  22976622.635   -10348259.90049  -8030061.97746  22976622.095    22976628.864
  20826979.312   -25136203.83149 -19522837.47747  20826978.793    20826983.686
  20315739.722   -26816581.68749 -20669331.37948  20315738.977    20315744.744
  21297570.332   -22505437.52949 -16969761.16147  21297569.839    21297574.278
  21942985.348   -17765541.12749 -13825353.28647  21942985.008    21942991.270
  23195460.720    -8960726.33149  -6969428.83246  23195460.537    23195467.279
 03  4  9  0 26  0.0000000  0  8G17G23G31G14G15G18G 3G 9
  22301963.270   -18646062.24449 -14272286.46946  22301962.552    22301970.145
  21907943.276   -15529292.37249 -12076629.72247  21907942.617    21907948.450
  22968916.050   -10388758.19749  -8061619.07146  22968915.471    22968922.180
  20816153.817   -25193092.17749 -19567166.02047  20816153.297    20816158.168
  20320368.245   -26792258.64249 -20650378.37348  20320367.492    20320373.285
  21305804.894   -22462164.58349 -16936042.00247  21305804.398    21305808.849
  21944475.782   -17757708.85949 -13819250.24347  21944475.446    21944481.727
  23194961.607    -8963350.68549  -6971473.77646  23194961.222    23194967.911
 03  4  9  0 26 30.0000000  0  8G17G23G31G14G15G18G 3G 9
  22315888.595   -18572884.71749 -14215265.10746  22315887.882    22315895.487
  21916189.502   -15485958.17249 -12042862.82547  21916188.848    21916194.661
  22961311.631   -10428719.80149  -8092757.97946  22961311.055    22961317.682
  20805420.514   -25249495.88849 -19611116.92447  20805419.998    20805424.860
  20325079.402   -26767501.47849 -20631087.08848  20325078.641    20325084.444
  21314067.547   -22418744.07649 -16902207.84947  21314067.038    21314071.489
  21946070.478   -17749328.91349 -13812720.43547  21946070.102    21946076.401
  23194572.909    -8965394.44649  -6973066.29146  23194572.262    23194579.049
 03  4  9  0 27  0.0000000  0  8G17G23G31G14G15G18G 3G 9
  22329876.931   -18499375.35049 -14157985.15846  22329876.269    22329883.911
  21924449.135   -15442553.83349 -12009041.27947  21924448.480    21924454.271
  22953809.738   -10468142.64049  -8123477.06146  22953809.109    22953815.756
  20794779.789   -25305413.08649 -19654688.73047  20794779.264    20794784.123
  20329873.472   -26742308.64449 -20611456.32448  20329872.722    20329878.502
  21322358.303   -22375175.95149 -16868258.67647  21322357.809    21322362.237
  21947769.357   -17740401.20749 -13805763.80647  21947768.986    21947775.317
  23194294.677    -8966855.79649  -6974204.99246  23194294.144    23194300.923
 03  4  9  0 27 30.0000000  0  8G17G23G31G14G15G18G 3G 9
  22343928.211   -18425535.35349 -14100447.57046  22343927.580    22343935.291
  21932721.880   -15399080.31549 -11975165.82447  21932721.223    21932727.019
  22946410.405   -10507026.12249  -8153775.86046  22946409.841    22946416.452
  20784231.740   -25360843.26149 -19697881.04047  20784231.216    20784236.081
  20334750.421   -26716680.08849 -20591486.03748  20334749.656    20334755.458
  21330676.965   -22331461.14149 -16834195.19647  21330676.470    21330680.932
  21949572.266   -17730926.82949 -13798381.19947  21949571.917    21949578.255
  23194127.234    -8967734.34249  -6974889.55546  23194126.870    23194133.697
 03  4  9  0 28  0.0000000  0  8G17G23G31G14G15G18G 3G 9
  22358042.613   -18351363.93349 -14042651.72446  22358041.980    22358049.715
  21941007.920   -15355536.81849 -11941235.84147  21941007.277    21941013.081
  22939114.196   -10545367.94749  -8183652.60046  22939113.602    22939120.231
  20773776.821   -25415784.05649 -19740692.01447  20773776.304    20773781.159
  20339710.662   -26690613.93749 -20571174.77248  20339709.902    20339715.680
  21339023.594   -22287599.11749 -16800017.01247  21339023.122    21339027.606
  21951479.268   -17720905.51549 -13790572.41247  21951478.907    21951485.245
  23194071.223    -8968028.15949  -6975118.48646  23194070.959    23194077.753
 03  4  9  0 28 30.0000000  0  8G17G23G31G14G15G18G 3G 9
  22372219.693   -18276863.40849 -13984599.44546  22372219.075    22372226.813
  21949306.951   -15311925.25949 -11907252.82347  21949306.301    21949312.120
  22931920.977   -10583168.46649  -8213107.52646  22931920.402    22931927.053
  20763415.020   -25470235.57149 -19783121.72847  20763414.507    20763419.360
  20344753.970   -26664111.40249 -20550523.45748  20344753.200    20344758.989
  21347397.907   -22243591.90549 -16765725.69047  21347397.424    21347401.929
  21953489.913   -17710339.60149 -13782339.25447  21953489.526    21953495.914
  23194126.346    -8967737.89649  -6974892.28646  23194126.211    23194133.013
 03  4  9  0 29  0.0000000  0  8G17G23G31G14G15G18G 3G 9
  22386459.300   -18202034.10149 -13926290.98746  22386458.707    22386466.385
  21957618.926   -15268245.68449 -11873216.81347  21957618.247    21957624.080
  22924830.966   -10620426.27349  -8242139.57646  22924830.490    22924837.117
  20753146.572   -25524196.40949 -19825169.10347  20753146.056    20753150.912
  20349880.433   -26637171.64449 -20529531.46148  20349879.691    20349885.428
  21355799.773   -22199439.93549 -16731321.57647  21355799.298    21355803.800
  21955604.073   -17699229.55649 -13773682.10847  21955603.722    21955610.104
  23194292.964    -8966862.40749  -6974210.07546  23194292.745    23194299.610
 03  4  9  0 29 30.0000000  0  8G17G23G31G14G15G18G 3G 9
  22400761.391   -18126876.39849 -13867726.63846  22400760.766    22400768.504
  21965943.712   -15224498.50149 -11839128.11647  21965943.054    21965948.924
  22917844.563   -10657140.29049  -8270747.87846  22917844.027    22917850.671
  20742971.670   -25577665.62949 -19866833.39347  20742971.170    20742976.000
  20355090.269   -26609793.93749 -20508198.19748  20355089.525    20355095.266
  21364229.109   -22155143.64049 -16696804.99647  21364228.622    21364233.144
  21957821.679   -17687576.08249 -13764601.50547  21957821.317    21957827.733
  23194571.251    -8965400.61249  -6973070.98846  23194570.913    23194577.731
 03  4  9  0 30  0.0000000  0  8G17G23G31G14G15G18G 3G 9
  22415125.915   -18051390.56249 -13808906.59046  22415125.272    22415133.045
  21974281.287   -15180684.21249 -11804987.13347  21974280.642    21974286.497
  22910961.844   -10693309.54149  -8298931.69046  22910961.302    22910967.846
  20732890.511   -25630642.39849 -19908113.95547  20732890.009    20732894.841
  20360383.507   -26581977.79149 -20486523.29648  20360382.780    20360388.522
  21372685.786   -22110703.71149 -16662176.49947  21372685.288    21372689.794
  21960142.495   -17675379.99349 -13755098.08547  21960142.160    21960148.571
  23194960.932    -8963351.90249  -6971474.56946  23194960.753    23194967.538
 03  4  9  0 30 30.0000000  0  8G17G23G31G14G15G18G 3G 9
  22429552.779   -17975577.65149 -13749831.68246  22429552.094    22429559.774
  21982631.496   -15136803.62949 -11770794.48747  21982630.861    21982636.686
  22904182.880   -10728933.30149  -8326690.44946  22904182.285    22904188.838
  20722903.233   -25683125.83749 -19949010.10447  20722902.723    20722907.527
  20365760.242   -26553722.97149 -20464506.57548  20365759.498    20365765.244
  21381169.565   -22066121.10149 -16627436.82347  21381169.075    21381173.587
  21962566.408   -17662642.55049 -13745172.83347  21962566.062    21962572.446
  23195462.671    -8960716.02449  -6969420.61846  23195462.386    23195469.072
 03  4  9  0 31  0.0000000  0  8G17G23G31G14G15G18G 3G 9
  22444041.718   -17899438.22949 -13690502.35046  22444040.994    22444048.731
  21990994.261   -15092857.08249 -11736550.44747  21990993.602    21990999.443
  22897507.906   -10764010.47249  -8354023.29146  22897507.345    22897513.917
  20713010.031   -25735114.87649 -19989521.00947  20713009.522    20713014.326
  20371220.450   -26525029.39949 -20442147.96548  20371219.718    20371225.469
  21389680.449   -22021396.27249 -16592586.32447  21389679.973    21389684.455
  21965093.141   -17649364.75449 -13734826.52647  21965092.793    21965099.122
  23196076.058    -8957492.21349  -6966908.53846  23196075.860    23196082.487
 03  4  9  0 31 30.0000000  0  8G17G23G31G14G15G18G 3G 9
  22458592.654   -17822972.80049 -13630919.00346  22458591.980    22458599.709
  21999369.522   -15048844.54949 -11702254.98447  21999368.924    21999374.772
  22890937.228   -10798539.95849  -8380929.36046  22890936.624    22890943.111
  20703211.128   -25786608.40849 -20029645.80647  20703210.606    20703215.377
  20376764.259   -26495896.40049 -20419446.94648  20376763.510    20376769.284
  21398218.331   -21976529.60549 -16557625.30647  21398217.822    21398222.317
  21967722.595   -17635547.00949 -13724059.48547  21967722.242    21967728.577
  23196801.509    -8953679.55549  -6963937.62445  23196801.299    23196807.952
 03  4  9  0 32  0.0000000  0  8G17G23G31G14G15G18G 3G 9
  22473205.483   -17746182.03449 -13571082.13146  22473204.844    22473212.596
  22007757.348   -15004766.45849 -11667908.43947  22007756.747    22007762.604
  22884470.936   -10832520.78649  -8407407.91746  22884470.331    22884476.775
  20693506.713   -25837605.49049 -20069383.75147  20693506.184    20693510.935
  20382391.844   -26466323.40849 -20396403.07248  20382391.094    20382396.905
  21406783.065   -21931521.79349 -16522554.29947  21406782.543    21406787.062
  21970454.523   -17621190.50249 -13712872.61747  21970454.191    21970460.547
  23197639.328    -8949277.32449  -6960507.30445  23197639.039    23197645.585
 03  4  9  0 32 30.0000000  0  8G17G23G31G14G15G18G 3G 9
  22487880.117   -17669066.41749 -13510992.13446  22487879.485    22487887.263
  22016157.573   -14960623.09549 -11633511.03247  22016156.972    22016162.830
  22878109.182   -10865951.98349  -8433458.17846  22878108.525    22878115.022
  20683896.926   -25888104.92849 -20108733.93048  20683896.407    20683901.171
  20388103.198   -26436310.07949 -20373016.08448  20388102.440    20388108.269
  21415374.557   -21886373.18149 -16487373.58047  21415374.035    21415378.568
  21973288.840   -17606296.26349 -13701266.74147  21973288.459    21973294.841
  23198589.281    -8944284.80749  -6956617.01945  23198589.020    23198595.660
 03  4  9  0 33  0.0000000  0  8G17G23G31G14G15G18G 3G 9
  22502616.459   -17591626.59649 -13450649.48746  22502615.843    22502623.652
  22024570.042   -14916415.40149 -11599063.49647  22024569.408    22024575.292
  22871852.055   -10898833.03049  -8459079.76246  22871851.477    22871857.972
  20674381.939   -25938106.33949 -20147696.03848  20674381.434    20674386.181
  20393898.338   -26405856.34649 -20349285.92048  20393897.578    20393903.426
  21423992.647   -21841084.73949 -16452083.90447  21423992.159    21423996.666
  21976225.240   -17590865.47449 -13689242.78047  21976224.846    21976231.251
  23199651.695    -8938702.16549  -6952266.90645  23199651.326    23199657.939
 03  4  9  0 33 30.0000000  0  8G17G23G31G14G15G18G 3G 9
  22517414.237   -17513864.17849 -13390055.46346  22517413.579    22517421.449
  22032994.534   -14872144.31249 -11564566.56147  22032993.925    22032999.825
  22865699.723   -10931163.73749  -8484272.49746  22865699.106    22865705.616
  20664961.788   -25987609.60049 -20186269.97348  20664961.275    20664965.988
  20399777.276   -26374962.24349 -20325212.61148  20399776.539    20399782.404
  21432637.190   -21795657.68049 -16416686.21247  21432636.684    21432641.195
  21979263.396   -17574899.85249 -13676802.06347  21979263.003    21979269.468
  23200826.457    -8932529.26349  -6947456.84545  23200826.013    23200832.559
 03  4  9  0 34  0.0000000  0  8G17G23G31G14G15G18G 3G 9
  22532273.486   -17435778.56149 -13329209.60646  22532272.882    22532280.769
  22041431.343   -14827808.86049 -11530019.46847  22041430.685    22041436.592
  22859652.528   -10962941.82949  -8509034.62546  22859651.912    22859658.425
  20655636.865   -26036612.21349 -20224453.79148  20655636.361    20655641.070
  20405740.350   -26343626.15849 -20300794.89848  20405739.610    20405745.483
  21441308.221   -21750091.33749 -16381179.97947  21441307.711    21441312.207
  21982403.411   -17558398.91949 -13663944.22247  21982403.049    21982409.504
  23202113.649    -8925764.12949  -6942185.30445  23202113.271    23202119.872
 03  4  9  0 34 30.0000000  0  8G17G23G31G14G15G18G 3G 9
  22547194.014   -17357371.20949 -13268113.08346  22547193.413    22547201.333
  22049880.212   -14783409.82449 -11495422.83147  22049879.546    22049885.479
  22853710.467   -10994167.17749  -8533366.04246  22853709.886    22853716.442
  20646407.212   -26085114.17849 -20262247.50348  20646406.710    20646411.397
  20411787.486   -26311848.37549 -20276033.01448  20411786.744    20411792.604
  21450005.579   -21704386.66049 -16345565.96947  21450005.070    21450009.545
  21985644.957   -17541364.54749 -13650670.71747  21985644.615    21985651.085
  23203513.562    -8918407.01849  -6936452.48445  23203513.292    23203519.909
 03  4  9  0 35  0.0000000  0  8G17G23G31G14G15G18G 3G 9
  22562175.617   -17278642.77249 -13206766.35246  22562174.951    22562182.930
  22058341.061   -14738947.85349 -11460777.15247  22058340.389    22058346.340
  22847873.726   -11024839.13049  -8557266.24746  22847873.127    22847879.695
  20637272.979   -26133114.76749 -20299650.52648  20637272.474    20637277.153
  20417918.656   -26279628.81949 -20250926.88447  20417917.910    20417923.791
  21458729.072   -21658544.46849 -16309844.79347  21458728.571    21458733.014
  21988987.848   -17523797.72749 -13636982.31647  21988987.501    21988993.969
  23205026.305    -8910457.71749  -6930258.22145  23205025.915    23205032.655
 03  4  9  0 35 30.0000000  0  8G17G23G31G14G15G18G 3G 9
  22577218.129   -17199593.89449 -13145169.91746  22577217.458    22577225.508
  22066813.895   -14694423.01149 -11426082.48947  22066813.223    22066819.173
  22842142.526   -11054956.60049  -8580734.38146  22842141.975    22842148.503
  20628234.390   -26180612.77149 -20336661.92948  20628233.881    20628238.566
  20424134.082   -26246966.65749 -20225475.86947  20424133.347    20424139.195
  21467478.654   -21612564.87749 -16274016.55347  21467478.184    21467482.648
  21992431.853   -17505699.45549 -13622879.79747  21992431.496    21992437.979
  23206651.640    -8901915.39449  -6923601.87045  23206651.439    23206658.202
 03  4  9  0 36  0.0000000  0  8G17G23G31G14G15G18G 3G 9
  22592321.539   -17120225.08449 -13083324.18146  22592320.881    22592329.028
  22075298.570   -14649835.76749 -11391339.19147  22075297.899    22075303.821
  22836517.010   -11084518.91749  -8603769.94146  22836516.429    22836522.935
  20619291.531   -26227607.53349 -20373281.19048  20619291.032    20619295.714
  20430433.758   -26213861.77949 -20199679.87747  20430433.025    20430438.879
  21476254.295   -21566448.64549 -16238081.83447  21476253.819    21476258.304
  21995976.747   -17487070.96149 -13608364.11747  21995976.392    21995982.895
  23208390.147    -8892779.76849  -6916483.17045  23208389.836    23208396.749
 03  4  9  0 36 30.0000000  0  8G17G23G31G14G15G18G 3G 9
  22607485.579   -17040538.12649 -13021230.55346  22607484.913    22607493.069
  22083794.915   -14605187.26649 -11356548.16547  22083794.257    22083800.170
  22830997.068   -11113526.22849  -8626373.02946  22830996.480    22831003.002
  20610444.431   -26274099.17249 -20409508.41348  20610443.937    20610448.611
  20436817.545   -26180314.71449 -20173539.32947  20436816.806    20436822.692
  21485055.662   -21520197.10749 -16202041.68947  21485055.186    21485059.661
  21999622.193   -17467914.28249 -13593436.87247  21999621.829    21999628.309
  23210241.559    -8883051.18249  -6908902.43745  23210241.154    23210248.008
 03  4  9  0 37  0.0000000  0  8G17G23G31G14G15G18G 3G 9
  22622710.211   -16960532.65949 -12958888.73546  22622709.563    22622717.669
  22092303.025   -14560476.98149 -11321708.99147  22092302.337    22092308.268
  22825583.026   -11141976.98749  -8648542.44846  22825582.478    22825588.983
  20601693.393   -26320086.16049 -20445342.39848  20601692.895    20601697.564
  20443285.696   -26146324.51849 -20147053.48347  20443284.948    20443290.823
  21493882.843   -21473809.93149 -16165895.84847  21493882.345    21493886.863
  22003368.081   -17448229.67949 -13578098.25747  22003367.725    22003374.163
  23212205.965    -8872728.48149  -6900858.77345  23212205.505    23212212.330
 03  4  9  0 37 30.0000000  0  8G17G23G31G14G15G18G 3G 9
  22637995.105   -16880210.42849 -12896300.08246  22637994.492    22638002.569
  22100822.670   -14515705.88549 -11286822.43647  22100821.999    22100827.935
  22820274.980   -11169871.24549  -8670278.23246  22820274.403    22820280.816
  20593038.419   -26365568.22849 -20480782.94148  20593037.917    20593042.580
  20449838.050   -26111891.63749 -20120222.68547  20449837.292    20449843.201
  21502735.630   -21427288.21249 -16129645.16947  21502735.136    21502739.686
  22007214.073   -17428019.11249 -13562349.79547  22007213.713    22007220.177
  23214283.255    -8861812.14649  -6892352.51545  23214282.836    23214289.601
 03  4  9  0 38  0.0000000  0  8G17G23G31G14G15G18G 3G 9
  22653340.234   -16799571.62049 -12833464.75646  22653339.609    22653347.742
  22109353.988   -14470873.41249 -11251888.05147  22109353.343    22109359.305
  22815073.047   -11197207.50849  -8691579.19846  22815072.464    22815078.850
  20584479.738   -26410544.19749 -20515829.11948  20584479.242    20584483.903
  20456474.867   -26077015.04049 -20093046.13747  20456474.118    20456480.023
  21511614.018   -21380631.95549 -16093289.65247  21511613.520    21511618.084
  22011159.977   -17407283.30249 -13546192.05647  22011159.641    22011166.076
  23216473.785    -8850300.95049  -6883382.75045  23216473.340    23216480.085
 03  4  9  0 38 30.0000000  0  8G17G23G31G14G15G18G 3G 9
  22668745.521   -16718617.00949 -12770383.35746  22668744.804    22668752.948
  22117896.838   -14425980.42249 -11216906.51347  22117896.209    22117902.162
  22809977.291   -11223985.72149  -8712445.34646  22809976.732    22809983.117
  20576017.461   -26455013.73949 -20550480.68348  20576016.970    20576021.609
  20463196.109   -26041694.73449 -20065523.84347  20463195.355    20463201.275
  21520517.844   -21333842.03849 -16056829.99147  21520517.346    21520521.900
  22015205.645   -17386023.59649 -13529626.08547  22015205.280    22015211.701
  23218777.252    -8838195.14549  -6873949.63945  23218777.015    23218783.750
 03  4  9  0 39  0.0000000  0  8G17G23G31G14G15G18G 3G 9
  22684210.760   -16637347.16149 -12707056.31146  22684210.078    22684218.153
  22126451.125   -14381027.37249 -11181878.17747  22126450.477    22126456.434
  22804987.848   -11250205.27849  -8732876.17046  22804987.306    22804993.700
  20567651.669   -26498976.10349 -20584737.04048  20567651.171    20567655.819
  20470001.797   -26005930.58749 -20037655.69647  20470001.053    20470006.985
  21529447.024   -21286918.91449 -16020266.52947  21529446.534    21529451.098
  22019350.586   -17364241.71949 -13512653.22947  22019350.211    22019356.678
  23221194.180    -8825494.61349  -6864053.11445  23221193.862    23221200.596
 03  4  9  0 39 30.0000000  0  8G17G23G31G14G15G18G 3G 9
  22699735.683   -16555763.14749 -12643484.45646  22699735.100    22699743.146
  22135016.972   -14336013.68249 -11146802.58847  22135016.307    22135022.262
  22800105.007   -11275864.85449  -8752870.63646  22800104.456    22800110.838
  20559382.646   -26542430.08349 -20618597.26048  20559382.146    20559386.765
  20476892.122   -25969721.75149 -20009441.04647  20476891.383    20476897.319
  21538401.640   -21239862.13449 -15983598.92047  21538401.145    21538405.691
  22023594.849   -17341938.05049 -13495273.78647  22023594.493    22023600.948
  23223724.320    -8812198.53649  -6853692.52545  23223724.061    23223730.729
 03  4  9  0 40  0.0000000  0  8G17G23G31G14G15G18G 3G 9
  22715320.305   -16473865.63149 -12579668.31746  22715319.721    22715327.813
  22143594.104   -14290940.65349 -11111680.76347  22143593.449    22143599.394
  22795328.657   -11300964.88349  -8772429.11046  22795328.083    22795334.484
  20551210.263   -26585376.24349 -20652061.76948  20551209.754    20551214.351
  20483866.903   -25933069.14749 -19980880.60047  20483866.165    20483872.087
  21547381.333   -21192673.44749 -15946828.53047  21547380.839    21547385.404
  22027938.029   -17319114.61649 -13477489.32347  22027937.676    22027944.132
  23226367.574    -8798307.54849  -6842868.35845  23226367.350    23226374.047
 03  4  9  0 40 30.0000000  0  8G17G23G31G14G15G18G 3G 9
  22730964.416   -16391655.53749 -12515608.61646  22730963.791    22730971.980
  22152182.608   -14245807.89749 -11076512.39847  22152181.924    22152187.884
  22790658.954   -11325504.20649  -8791550.66146  22790658.366    22790664.799
  20543134.752   -26627813.05949 -20685129.39048  20543134.274    20543138.843
  20490926.317   -25895971.76349 -19951973.57147  20490925.557    20490931.511
  21556386.206   -21145352.64549 -15909955.19347  21556385.705    21556390.275
  22032379.940   -17295772.39549 -13459300.61447  22032379.591    22032386.088
  23229124.196    -8783820.99849  -6831580.13145  23229124.042    23229130.695
 03  4  9  0 41  0.0000000  0  8G17G23G31G14G15G18G 3G 9
  22746667.737   -16309134.33749 -12451306.50346  22746667.140    22746675.366
  22160782.228   -14200616.57149 -11041298.39447  22160781.560    22160787.534
  22786095.855   -11349483.15949  -8810235.54446  22786095.285    22786101.760
  20535156.154   -26669740.73249 -20717800.27548  20535155.668    20535160.268
  20498070.222   -25858430.28249 -19922720.49447  20498069.472    20498075.431
  21565415.843   -21097901.33149 -15872980.15447  21565415.394    21565419.947
  22036920.179   -17271913.44449 -13440709.26147  22036919.828    22036926.310
  23231994.290    -8768739.28449  -6819828.12546  23231994.065    23232000.611
 03  4  9  0 41 30.0000000  0  8G17G23G31G14G15G18G 3G 9
  22762430.136   -16226302.57349 -12386762.38546  22762429.558    22762437.877
  22169392.983   -14155366.70149 -11006038.77647  22169392.299    22169398.286
  22781639.544   -11372901.10949  -8828483.29846  22781638.969    22781645.503
  20527274.612   -26711158.37449 -20750073.73648  20527274.124    20527278.718
  20505298.664   -25820444.64549 -19893121.32447  20505297.918    20505303.865
  21574470.385   -21050319.41049 -15835903.34647  21574469.935    21574474.501
  22041558.428   -17247539.29149 -13421716.45447  22041558.067    22041564.586
  23234977.554    -8753062.50149  -6807612.43646  23234977.249    23234983.847
 03  4  9  0 42  0.0000000  0  8G17G23G31G14G15G18G 3G 9
  22778251.600   -16143160.79349 -12321976.69646  22778250.994    22778259.323
  22178014.951   -14110057.90249 -10970733.22747  22178014.300    22178020.266
  22777290.164   -11395756.98249  -8846293.07646  22777289.591    22777296.179
  20519490.258   -26752065.28949 -20781949.22548  20519489.763    20519494.343
  20512611.821   -25782013.88949 -19863175.30347  20512611.075    20512617.030
  21583549.822   -21002606.58049 -15798724.53347  21583549.370    21583553.927
  22046294.626   -17222650.46049 -13402322.59547  22046294.278    22046300.811
  23238074.268    -8736789.81849  -6794932.40445  23238073.827    23238080.423
 03  4  9  0 42 30.0000000  0  8G17G23G31G14G15G18G 3G 9
  22794131.757   -16059710.76449 -12256950.79146  22794131.112    22794139.467
  22186647.980   -14064691.14849 -10935382.53247  22186647.314    22186653.308
  22773047.810   -11418050.96249  -8863665.01346  22773047.207    22773053.800
  20511803.120   -26792461.40149 -20813426.68948  20511802.615    20511807.186
  20520009.554   -25743138.79549 -19832883.05047  20520008.803    20520014.756
  21592653.936   -20954764.37449 -15761444.91047  21592653.487    21592658.036
  22051128.385   -17197249.15649 -13382529.40547  22051128.022    22051134.556
  23241284.114    -8719921.86649  -6781788.53945  23241283.734    23241290.297
 03  4  9  0 43  0.0000000  0  8G17G23G31G14G15G18G 3G 9
  22810070.449   -15975952.86149 -12191684.99346  22810069.807    22810078.158
  22195292.075   -14019266.09849 -10899986.39947  22195291.410    22195297.433
  22768912.498   -11439782.16949  -8880598.42346  22768911.950    22768918.513
  20504213.354   -26832345.73949 -20844505.36748  20504212.859    20504217.421
  20527491.912   -25703818.95849 -19802244.24147  20527491.144    20527497.104
  21601782.737   -20906792.44149 -15724064.19447  21601782.257    21601786.808
  22056059.440   -17171336.41749 -13362337.69847  22056059.068    22056065.612
  23244607.397    -8702458.21049  -6768180.48846  23244606.993    23244613.464
 03  4  9  0 43 30.0000000  0  8G17G23G31G14G15G18G 3G 9
  22826067.622   -15891887.68949 -12126179.77146  22826066.972    22826075.286
  22203947.164   -13973783.31149 -10864545.28447  22203946.508    22203952.555
  22764884.275   -11460950.51849  -8897093.23946  22764883.729    22764890.309
  20496721.017   -26871718.03749 -20875185.05248  20496720.516    20496725.077
  20535058.812   -25664054.49049 -19771258.96847  20535058.065    20535064.019
  21610936.000   -20858691.70549 -15686583.12147  21610935.531    21610940.092
  22061087.538   -17144913.74549 -13341748.63747  22061087.177    22061093.706
  23248043.841    -8684399.04649  -6754108.39846  23248043.544    23248050.008
 03  4  9  0 44  0.0000000  0  8G17G23G31G14G15G18G 3G 9
  22842123.034   -15807516.61249 -12060436.19946  22842122.397    22842130.718
  22212613.207   -13928243.19549 -10829059.49647  22212612.548    22212618.571
  22760963.172   -11481555.87949  -8913149.36146  22760962.644    22760969.219
  20489326.204   -26910578.01449 -20905465.52648  20489325.705    20489330.266
  20542710.365   -25623845.44549 -19739927.26847  20542709.628    20542715.570
  21620113.730   -20810462.54649 -15649001.97047  21620113.257    21620117.811
  22066212.383   -17117982.76949 -13320763.49447  22066212.009    22066218.543
  23251593.684    -8665744.65749  -6739572.50446  23251593.406    23251599.820
 03  4  9  0 44 30.0000000  0  8G17G23G31G14G15G18G 3G 9
  22858236.421   -15722840.58349 -11994454.98846  22858235.753    22858244.140
  22221290.144   -13882645.73649 -10793529.02647  22221289.471    22221295.476
  22757149.377   -11501597.60949  -8928766.30446  22757148.854    22757155.416
  20482028.944   -26948925.16749 -20935346.40148  20482028.447    20482033.001
  20550446.588   -25583191.35849 -19708248.78747  20550445.852    20550451.797
  21629315.811   -20762105.40949 -15611321.10147  21629315.336    21629319.836
  22071433.646   -17090544.85049 -13299383.33647  22071433.305    22071439.857
  23255256.808    -8646494.91549  -6724572.70146  23255256.481    23255262.923
 03  4  9  0 45  0.0000000  0  8G17G23G31G14G15G18G 3G 9
  22874407.793   -15637860.01349 -11928236.46745  22874407.157    22874415.516
  22229977.956   -13836990.97249 -10757953.89747  22229977.317    22229983.264
  22753442.915   -11521075.42349  -8943943.81746  22753442.340    22753448.902
  20474829.437   -26986758.82249 -20964827.14748  20474828.931    20474833.486
  20558267.560   -25542092.11949 -19676223.43147  20558266.818    20558272.772
  21638542.209   -20713620.50449 -15573540.66947  21638541.699    21638546.227
  22076751.089   -17062601.57149 -13277609.39247  22076750.743    22076757.317
  23259033.289    -8626649.71749  -6709108.89846  23259032.827    23259039.334
 03  4  9  0 45 30.0000000  0  8G17G23G31G14G15G18G 3G 9
  22890636.849   -15552576.41549 -11861781.81545  22890636.162    22890644.511
  22238676.535   -13791279.55449 -10722334.61947  22238675.905    22238681.871
  22749843.729   -11539989.36649  -8958681.94746  22749843.151    22749849.681
  20467727.581   -27024079.12449 -20993907.87348  20467727.077    20467731.630
  20566173.104   -25500548.18749 -19643851.56347  20566172.365    20566178.331
  21647792.700   -20665008.85449 -15535661.47447  21647792.215    21647796.751
  22082164.380   -17034154.69349 -13255443.02847  22082164.046    22082170.624
  23262922.762    -8606209.80849  -6693181.69646  23262922.444    23262928.797
 03  4  9  0 46  0.0000000  0  8G17G23G31G14G15G18G 3G 9
  22906923.312   -15466990.57949 -11795091.63345  22906922.707    22906931.077
  22247385.945   -13745511.41249 -10686671.14347  22247385.306    22247391.281
  22746351.969   -11558338.87649  -8972980.26846  22746351.379    22746357.935
  20460723.580   -27060885.31549 -21022587.99748  20460723.086    20460727.641
  20574163.354   -25458559.32049 -19611132.98747  20574162.614    20574168.590
  21657067.288   -20616270.41849 -15497683.48747  21657066.815    21657071.356
  22087673.243   -17005205.54949 -13232885.28647  22087672.892    22087679.532
  23266925.581    -8585175.05049  -6676790.97146  23266925.243    23266931.568
 03  4  9  0 46 30.0000000  0  8G17G23G31G14G15G18G 3G 9
  22923267.148   -15381103.35749 -11728166.63145  22923266.483    22923275.001
  22256106.068   -13699686.76049 -10650963.64147  22256105.429    22256111.390
  22742967.556   -11576123.84449  -8986838.68346  22742966.961    22742973.541
  20453817.421   -27097177.20949 -21050867.37248  20453816.927    20453821.475
  20582238.263   -25416125.56249 -19578067.74347  20582237.523    20582243.480
  21666365.976   -20567405.57449 -15459606.99947  21666365.487    21666370.033
  22093277.308   -16975756.00549 -13209937.62747  22093276.953    22093283.642
  23271041.512    -8563545.74249  -6659936.96246  23271041.174    23271047.501
 03  4  9  0 47  0.0000000  0  8G17G23G31G14G15G18G 3G 9
  22939668.114   -15294915.94849 -11661007.71245  22939667.449    22939676.033
  22264836.996   -13653805.51149 -10615212.03047  22264836.355    22264842.295
  22739690.739   -11593343.97049  -9000256.95646  22739690.120    22739696.658
  20447009.251   -27132954.42249 -21078745.69248  20447008.750    20447013.279
  20590397.830   -25373246.86149 -19544655.79247  20590397.085    20590403.029
  21675688.565   -20518414.89449 -15421432.45347  21675688.064    21675692.627
  22098976.257   -16945807.54849 -13186601.20047  22098975.937    22098982.662
  23275270.491    -8541321.77749  -6642619.58646  23275270.266    23275276.570
 03  4  9  0 47 30.0000000  0  8G17G23G31G14G15G18G 3G 9
  22956126.029   -15208429.37849 -11593615.69945  22956125.405    22956133.896
  22273578.619   -13607868.02349 -10579416.60847  22273577.992    22273583.885
  22736521.402   -11609999.03549  -9013234.92746  22736520.834    22736527.290
  20440299.092   -27168216.38349 -21106222.52148  20440298.596    20440303.124
  20598642.031   -25329923.43849 -19510897.30847  20598641.277    20598647.230
  21685035.086   -20469298.59349 -15383160.03147  21685034.613    21685039.173
  22104769.944   -16915361.76649 -13162877.25047  22104769.616    22104776.323
  23279612.697    -8518503.64349  -6624839.21046  23279612.420    23279618.726
 03  4  9  0 48  0.0000000  0  8G17G23G31G14G15G18G 3G 9
  22972640.713   -15121644.54649 -11525991.27145  22972640.092    22972648.562
  22282330.910   -13561874.54949 -10543577.54947  22282330.273    22282336.196
  22733459.562   -11626088.98549  -9025772.54546  22733459.004    22733465.455
  20433686.962   -27202963.33049 -21133298.03648  20433686.473    20433690.984
  20606970.818   -25286155.44049 -19476792.39747  20606970.072    20606976.045
  21694405.414   -20420057.33649 -15344790.23347  21694404.956    21694409.529
  22110657.937   -16884420.28449 -13138767.04547  22110657.600    22110664.317
  23284067.982    -8495091.42249  -6606595.92845  23284067.626    23284073.904
 03  4  9  0 48 30.0000000  0  8G17G23G31G14G15G18G 3G 9
  22989211.937   -15034562.82349 -11458135.49345  22989211.270    22989219.825
  22291093.729   -13515825.96949 -10507695.55747  22291093.067    22291099.000
  22730505.182   -11641614.39649  -9037870.26146  22730504.589    22730511.099
  20427172.820   -27237195.25049 -21159972.23348  20427172.313    20427176.811
  20615384.092   -25241943.50049 -19442341.56347  20615383.347    20615389.307
  21703799.446   -20370691.64049 -15306323.48047  21703798.943    21703803.507
  22116639.863   -16852985.43949 -13114272.39847  22116639.519    22116646.214
  23288636.022    -8471086.35649  -6587890.66645  23288635.604    23288641.845
 03  4  9  0 49  0.0000000  0  8G17G23G31G14G15G18G 3G 9
  23005839.440   -14947185.07149 -11390049.05545  23005838.749    23005847.427
  22299867.055   -13469721.54449 -10471770.05147  22299866.434    22299872.371
  22727658.388   -11656574.39549  -9049527.39146  22727657.820    22727664.308
  20420756.893   -27270911.16549 -21186244.34548  20420756.385    20420760.869
  20623882.002   -25197286.97549 -19407544.29247  20623881.244    20623887.183
  21713217.151   -20321201.45349 -15267759.70847  21713216.643    21713221.200
  22122715.422   -16821058.45349 -13089394.26547  22122715.053    22122721.761
  23293316.917    -8446487.76249  -6568722.92045  23293316.532    23293322.801
 03  4  9  0 49 30.0000000  0  8G17G23G31G14G15G18G 3G 9
  23022523.050   -14859512.13249 -11321732.58245  23022522.419    23022531.109
  22308651.112   -13423561.36349 -10435801.09947  22308650.443    22308656.380
  22724919.162   -11670968.86149  -9060743.85846  22724918.596    22724925.102
  20414439.194   -27304110.90449 -21212114.24948  20414438.678    20414443.157
  20632464.473   -25152185.92049 -19372400.63947  20632463.713    20632469.629
  21722658.378   -20271587.36249 -15229099.39547  21722657.907    21722662.433
  22128884.310   -16788640.95349 -13064133.91147  22128883.962    22128890.616
  23298110.634    -8421296.00949  -6549092.99345  23298110.294    23298116.503
 03  4  9  0 50  0.0000000  0  8G17G23G31G14G15G18G 3G 9
  23039262.762   -14771545.12149 -11253186.98145  23039262.151    23039270.857
  22317445.707   -13377345.56649 -10399788.81047  22317445.064    22317450.948
  22722287.617   -11684797.64249  -9071519.51446  22722287.088    22722293.592
  20408219.685   -27336794.32049 -21237581.82048  20408219.194    20408223.657
  20641131.489   -25106640.60249 -19336910.80647  20641130.732    20641136.664
  21732123.194   -20221849.49149 -15190342.63447  21732122.734    21732127.270
  22135146.189   -16755734.61749 -13038492.65347  22135145.847    22135152.521
  23303017.224    -8395511.65349  -6529001.27445  23303016.867    23303023.152
 03  4  9  0 50 30.0000000  0  8G17G23G31G14G15G18G 3G 9
  23056058.157   -14683285.07149 -11184413.04345  23056057.523    23056066.325
  22326250.812   -13331074.57549 -10363733.51547  22326250.168    22326256.042
  22719763.621   -11698061.23449  -9081854.78746  22719763.085    22719769.604
  20402098.472   -27368961.54149 -21262647.16148  20402097.952    20402102.413
  20649882.933   -25060651.33949 -19301075.04547  20649882.194    20649888.141
  21741611.411   -20171988.65749 -15151490.05647  21741610.956    21741615.505
  22141500.657   -16722341.51949 -13012472.09547  22141500.338    22141507.004
  23308036.449    -8369135.46049  -6508448.40145  23308036.122    23308042.339
 03  4  9  0 51  0.0000000  0  8G17G23G31G14G15G18G 3G 9
  23072909.034   -14594733.28549 -11115411.76445  23072908.398    23072917.220
  22335066.326   -13284748.78549 -10327635.51547  22335065.686    22335071.592
  22717347.156   -11710759.60849  -9091749.61546  22717346.628    22717353.167
  20396075.436   -27400612.63249 -21287310.32448  20396074.931    20396079.389
  20658718.853   -25014218.48349 -19264893.61947  20658718.117    20658724.030
  21751122.963   -20122005.25949 -15112541.96947  21751122.491    21751127.031
  22147947.478   -16688463.52549 -12986073.69347  22147947.155    22147953.817
  23313168.186    -8342167.72449  -6487434.57045  23313167.860    23313174.122
 03  4  9  0 51 30.0000000  0  8G17G23G31G14G15G18G 3G 9
  23089815.291   -14505890.70649 -11046183.90245  23089814.683    23089823.523
  22343892.262   -13238368.21449 -10291494.82847  22343891.606    22343897.575
  22715038.274   -11722892.83549  -9101204.07846  22715037.697    22715044.249
  20390150.688   -27431747.34349 -21311571.11148  20390150.183    20390154.620
  20667639.156   -24967342.28249 -19228366.73247  20667638.402    20667644.323
  21760657.779   -20071899.60849 -15073498.62347  21760657.331    21760661.815
  22154486.228   -16654102.40349 -12959298.83247  22154485.879    22154492.583
  23318412.330    -8314609.06449  -6465960.31845  23318412.049    23318418.416
 03  4  9  0 52  0.0000000  0  8G17G23G31G14G15G18G 3G 9
  23106776.647   -14416758.77149 -10976730.55745  23106776.051    23106784.874
  22352728.638   -13191932.71549 -10255311.34147  22352727.998    22352733.967
  22712836.914   -11734460.72849  -9110218.02546  22712836.390    22712842.971
  20384324.293   -27462365.16649 -21335429.12948  20384323.786    20384328.220
  20676643.796   -24920022.59749 -19191494.27447  20676643.038    20676649.000
  21770215.909   -20021671.68649 -15034360.00347  21770215.443    21770219.901
  22161116.621   -16619259.62849 -12932148.65747  22161116.258    22161122.945
  23323768.975    -8286459.73749  -6444025.76645  23323768.661    23323775.023
 03  4  9  0 52 30.0000000  0  8G17G23G31G14G15G18G 3G 9
  23123792.825   -14327338.62349 -10907052.64045  23123792.192    23123801.084
  22361575.438   -13145442.71549 -10219085.38746  22361574.774    22361580.722
  22710743.164   -11745463.56549  -9118791.65746  22710742.620    22710749.204
  20378596.241   -27492466.30749 -21358884.54048  20378595.712    20378600.137
  20685732.730   -24872259.89349 -19154276.60947  20685731.986    20685737.959
  21779797.082   -19971322.22649 -14995126.67747  21779796.611    21779801.097
  22167838.201   -16583937.44849 -12904624.92047  22167837.855    22167844.579
  23329237.882    -8257720.41649  -6421631.49045  23329237.535    23329243.900
 03  4  9  0 53  0.0000000  0  8G17G23G31G14G15G18G 3G 9
  23140863.697   -14237631.26649 -10837150.91045  23140863.083    23140871.939
  22370432.669   -13098897.80949 -10182816.64746  22370432.012    22370437.940
  22708756.959   -11755901.18449  -9126924.86846  22708756.405    22708762.968
  20372966.559   -27522050.48549 -21381937.12048  20372966.029    20372970.452
  20694906.030   -24824054.11649 -19116713.69247  20694905.265    20694911.245
  21789401.382   -19920851.16749 -14955798.59647  21789400.921    21789405.456
  22174650.732   -16548137.35449 -12876728.78047  22174650.359    22174657.164
  23334819.107    -8228391.46149  -6398777.75045  23334818.731    23334824.968
 03  4  9  0 53 30.0000000  0  8G17G23G31G14G15G18G 3G 9
  23157988.911   -14147637.85649 -10767026.27745  23157988.328    23157997.257
  22379300.271   -13052298.48849 -10146505.50746  22379299.584    22379305.503
  22706878.257   -11765774.13949  -9134618.08346  22706877.715    22706884.241
  20367435.167   -27551117.93849 -21404587.05948  20367434.668    20367439.067
  20704163.475   -24775405.92549 -19078806.03847  20704162.706    20704168.712
  21799028.671   -19870259.41549 -14916376.47147  21799028.227    21799032.748
  22181553.746   -16511861.63149 -12848462.02447  22181553.410    22181560.227
  23340512.251    -8198473.85149  -6375465.32445  23340511.880    23340518.154
 03  4  9  0 54  0.0000000  0  8G17G23G31G14G15G18G 3G 9
  23175168.455   -14057359.07549 -10696679.28245  23175167.865    23175176.898
  22388178.209   -13005644.34749 -10110151.65246  22388177.557    22388183.540
  22705107.041   -11775081.88949  -9141870.88846  22705106.502    22705113.056
  20362002.212   -27579668.17949 -21426833.97448  20362001.700    20362006.107
  20713505.219   -24726314.93049 -19040553.34347  20713504.459    20713510.468
  21808679.053   -19819546.58549 -14876859.99847  21808678.596    21808683.096
  22188547.133   -16475111.58949 -12819825.66847  22188546.739    22188553.565
  23346317.386    -8167967.46949  -6351694.13245  23346317.001    23346323.342
 03  4  9  0 54 30.0000000  0  8G17G23G31G14G15G18G 3G 9
  23192401.917   -13966796.81949 -10626111.40345  23192401.325    23192410.409
  22397066.429   -12958936.24949 -10073755.74146  22397065.834    22397071.819
  22703443.161   -11783825.50349  -9148684.09646  22703442.634    22703449.232
  20356667.549   -27607702.00449 -21448678.48448  20356667.033    20356671.416
  20722930.966   -24676782.29349 -19001956.50847  20722930.214    20722936.234
  21818352.220   -19768713.80349 -14837250.05547  21818351.769    21818356.282
  22195630.241   -16437889.85549 -12790821.75947  22195629.875    22195636.697
  23352234.272    -8136873.86749  -6327465.35845  23352233.875    23352240.194
 03  4  9  0 55  0.0000000  0  8G17G23G31G14G15G18G 3G 9
  23209689.271   -13875951.85049 -10555323.23945  23209688.677    23209697.713
  22405965.034   -12912173.75149 -10037317.44646  22405964.433    22405970.437
  22701886.745   -11792004.59449  -9155057.41346  22701886.221    22701892.726
  20351431.239   -27635218.79749 -21470120.11848  20351430.728    20351435.118
  20732440.859   -24626807.53049 -18963015.15847  20732440.090    20732446.134
  21828048.244   -19717760.75349 -14797546.39547  21828047.797    21828052.345
  22202802.736   -16400198.17349 -12761451.65847  22202802.380    22202809.222
  23358262.912    -8105193.20849  -6302779.13145  23358262.611    23358268.841
 03  4  9  0 55 30.0000000  0  8G17G23G31G14G15G18G 3G 9
  23227030.154   -13784825.38049 -10484315.71145  23227029.652    23227038.594
  22414873.989   -12865356.95349 -10000836.84146  22414873.356    22414879.413
  22700437.693   -11799619.51949  -9160991.11946  22700437.105    22700443.628
  20346293.340   -27662218.52149 -21491158.83948  20346292.825    20346297.221
  20742034.758   -24576391.37549 -18923729.87247  20742034.009    20742040.046
  21837767.010   -19666688.07249 -14757749.51547  21837766.569    21837771.158
  22210064.374   -16362038.30249 -12731716.73047  22210063.993    22210070.795
  23364403.113    -8072926.24949  -6277636.04145  23364402.790    23364409.027
 03  4  9  0 56  0.0000000  0  8G17G23G31G14G15G18G 3G 9
  23244424.507   -13693418.53649 -10413089.70345  23244423.940    23244432.726
  22423793.229   -12818485.89049  -9964313.94746  22423792.621    22423798.701
  22699095.931   -11806670.51849  -9166485.42046  22699095.353    22699101.837
  20341253.780   -27688701.39949 -21511794.82648  20341253.273    20341257.650
  20751712.579   -24525533.96849 -18884100.75347  20751711.839    20751717.894
  21847508.574   -19615495.87049 -14717859.50247  21847508.125    21847512.749
  22217414.701   -16323412.20549 -12701618.51947  22217414.374    22217421.158
  23370654.739    -8040073.63849  -6252036.60845  23370654.423    23370660.656
 03  4  9  0 56 30.0000000  0  8G17G23G31G14G15G18G 3G 9
  23261871.767   -13601732.91149 -10341646.48645  23261871.251    23261880.052
  22432722.761   -12771561.15849  -9927749.23646  22432722.090    22432728.206
  22697861.386   -11813158.36749  -9171540.88946  22697860.808    22697867.278
  20336312.451   -27714668.10249 -21532028.60048  20336311.944    20336316.315
  20761474.242   -24474236.22649 -18844128.51747  20761473.501    20761479.567
  21857272.717   -19564185.01049 -14677877.03647  21857272.275    21857276.921
  22224853.295   -16284322.47049 -12671159.02647  22224852.954    22224859.706
  23377017.580    -8006636.73149  -6225981.89645  23377017.268    23377023.579
 03  4  9  0 57  0.0000000  0  8G17G23G31G14G15G18G 3G 9
  23279372.055   -13509768.91949 -10269986.35645  23279371.526    23279380.268
  22441662.643   -12724581.61949  -9891141.81946  22441661.991    22441668.139
  22696734.097   -11819082.34649  -9176156.98446  22696733.528    22696739.969
  20331469.560   -27740117.60649 -21551859.35348  20331469.057    20331473.420
  20771319.858   -24422497.32149 -18803812.51747  20771319.105    20771325.184
  21867059.553   -19512754.78249 -14637801.54647  21867059.130    21867063.758
  22232379.868   -16244770.00249 -12640338.96146  22232379.534    22232386.317
  23383491.488    -7972615.26549  -6199471.66445  23383491.336    23383497.783
 03  4  9  0 57 30.0000000  0  8G17G23G31G14G15G18G 3G 9
  23296924.894   -13417528.16949 -10198110.56245  23296924.464    23296933.222
  22450612.823   -12677548.19949  -9854492.41346  22450612.155    22450618.279
  22695713.940   -11824443.45549  -9180334.46746  22695713.384    22695719.783
  20326724.947   -27765050.62349 -21571287.65348  20326724.442    20326728.783
  20781249.177   -24370318.41949 -18763153.65947  20781248.431    20781254.533
  21876869.016   -19461206.13549 -14597633.78447  21876868.569    21876873.162
  22239993.989   -16204757.47049 -12609160.40246  22239993.673    22240000.482
  23390076.524    -7938010.62749  -6172507.02745  23390076.347    23390082.811
 03  4  9  0 58  0.0000000  0  8G17G23G31G14G15G18G 3G 9
  23314530.197   -13325011.96949 -10126020.13645  23314529.697    23314538.557
  22459573.336   -12630460.72049  -9817800.90246  22459572.642    22459578.781
  22694800.811   -11829241.89349  -9184073.52146  22694800.297    22694806.667
  20322078.617   -27789467.29349 -21590313.61048  20322078.108    20322082.436
  20791262.176   -24317699.88249 -18722152.23547  20791261.429    20791267.512
  21886700.984   -19409538.93849 -14557373.64947  21886700.533    21886705.081
  22247695.371   -16164286.91049 -12577624.94847  22247695.061    22247701.865
  23396772.505    -7902823.62749  -6145088.59245  23396772.162    23396778.723
 03  4  9  0 58 30.0000000  0  8G17G23G31G14G15G18G 3G 9
  23332187.600   -13232221.97149 -10053716.36545  23332187.083    23332196.097
  22468544.006   -12583319.42749  -9781067.43646  22468543.361    22468549.486
  22693994.692   -11833478.24149  -9187374.57846  22693994.155    22694000.516
  20317530.486   -27813367.67349 -21608937.26148  20317529.987    20317534.302
  20801358.729   -24264642.18049 -18680808.60147  20801357.989    20801364.074
  21896555.375   -19357753.82949 -14517021.63447  21896554.940    21896559.456
  22255483.478   -16123360.57049 -12545734.33547  22255483.129    22255489.920
  23403579.072    -7867055.27249  -6117217.13745  23403578.689    23403585.285
 03  4  9  0 59  0.0000000  0  8G17G23G31G14G15G18G 3G 9
  23349897.009   -13139158.82449  -9981199.76045  23349896.403    23349905.467
  22477524.997   -12536123.95649  -9744291.76546  22477524.334    22477530.481
  22693295.487   -11837152.64649  -9190237.75846  22693294.899    22693301.292
  20313080.618   -27836751.85649 -21627158.68348  20313080.117    20313084.412
  20811538.885   -24211145.31749 -18639122.76547  20811538.132    20811544.234
  21906432.203   -19305850.79449 -14476577.72947  21906431.763    21906436.277
  22263357.938   -16081980.25949 -12513489.98846  22263357.588    22263364.347
  23410496.108    -7830705.91349  -6088892.96745  23410495.671    23410502.365
 03  4  9  0 59 30.0000000  0  8G17G23G31G14G15G18G 3G 9
  23367658.086   -13045824.25049  -9908471.61845  23367657.438    23367666.556
  22486516.246   -12488874.49649  -9707474.02646  22486515.599    22486521.754
  22692703.052   -11840265.67249  -9192663.49446  22692702.449    22692708.947
  20308728.921   -27859620.22349 -21644978.16648  20308728.400    20308732.691
  20821802.393   -24157210.16449 -18597095.40547  20821801.647    20821807.774
  21916331.332   -19253830.45549 -14436042.42047  21916330.920    21916335.436
  22271318.347   -16040148.11149 -12480893.55046  22271318.007    22271324.798
  23417523.360    -7793776.86449  -6060117.09145  23417523.056    23417529.786
 03  4  9  1  0  0.0000000  0  8G17G23G31G14G15G18G 3G 9
  23385470.677   -12952218.90849  -9835532.49045  23385470.066    23385479.198
  22495517.926   -12441570.54449  -9670613.83046  22495517.307    22495523.393
  22692217.431   -11842817.33449  -9194651.81246  22692216.895    22692223.407
  20304475.435   -27881972.44449 -21662395.45748  20304474.934    20304479.198
  20832149.320   -24102836.66449 -18554726.47247  20832148.583    20832154.750
  21926252.830   -19201692.67149 -14395415.58947  21926252.411    21926256.950
  22279364.376   -15997865.67049 -12447946.24246  22279364.057    22279370.911
  23424661.035    -7756268.51249  -6030889.80845  23424660.625    23424667.376
 03  4  9  1  0 30.0000000  0  8G17G23G31G14G15G18G 3G 9
  23403334.527   -12858344.46949  -9762383.66645  23403333.919    23403343.126
  22504529.844   -12394212.80349  -9633711.70946  22504529.228    22504535.294
  22691838.466   -11844808.82349  -9196203.63146  22691837.898    22691844.458
  20300319.934   -27903809.45149 -21679411.28448  20300319.431    20300323.715
  20842579.518   -24048025.81649 -18512016.75247  20842578.783    20842584.938
  21936196.554   -19149438.07849 -14354697.74247  21936196.118    21936200.661
  22287495.604   -15955135.89049 -12414650.35046  22287495.288    22287502.168
  23431908.620    -7718182.43049  -6001212.34745  23431908.167    23431914.981
 03  4  9  1  1  0.0000000  0  8G17G23G31G14G15G18G 3G 9
  23421249.233   -12764202.54249  -9689026.41445  23421248.607    23421257.767
  22513552.002   -12346801.20549  -9596767.63546  22513551.372    22513557.431
  22691566.016   -11846240.41449  -9197319.16446  22691565.476    22691572.028
  20296262.502   -27925131.31749 -21696025.70048  20296262.010    20296266.267
  20853092.893   -23992777.88549 -18468966.44547  20853092.155    20853098.307
  21946162.494   -19097066.71049 -14313888.90547  21946162.068    21946166.599
  22295711.608   -15911960.79849 -12381007.46846  22295711.260    22295718.146
  23439265.885    -7679519.35749  -5971085.28745  23439265.524    23439272.376
 03  4  9  1  1 30.0000000  0  8G17G23G31G14G15G18G 3G 9
  23439214.726   -12669793.90549  -9615461.35545  23439214.040    23439223.222
  22522584.475   -12299335.43749  -9559781.34346  22522583.830    22522589.890
  22691400.056   -11847112.40549  -9197998.65846  22691399.511    22691406.123
  20292303.140   -27945937.93349 -21712238.62948  20292302.651    20292306.882
  20863689.317   -23937093.29449 -18425575.88847  20863688.569    20863694.734
  21956150.656   -19044578.73649 -14272989.21047  21956150.204    21956154.733
  22304011.976   -15868342.30249 -12347019.07746  22304011.654    22304018.508
  23446732.909    -7640280.20649  -5940509.33045  23446732.545    23446739.318
 03  4  9  1  2  0.0000000  0  8G17G23G31G14G15G18G 3G 9
  23457230.589   -12575120.18049  -9541689.73045  23457229.907    23457239.050
  22531627.124   -12251815.77149  -9522753.05346  22531626.519    22531632.582
  22691340.441   -11847425.66849  -9198242.75846  22691339.872    22691346.549
  20288441.645   -27966230.07049 -21728050.65948  20288441.145    20288445.374
  20874368.709   -23880972.96049 -18381845.78947  20874367.986    20874374.122
  21966160.936   -18991974.56749 -14231998.96547  21966160.474    21966165.004
  22312396.246   -15824282.75849 -12312687.00646  22312395.920    22312402.819
  23454309.219    -7600466.12349  -5909485.38745  23454308.890    23454315.662
 03  4  9  1  2 30.0000000  0  8G17G23G31G14G15G18G 3G 9
  23475296.712   -12480182.58049  -9467712.47845  23475296.080    23475305.305
  22540680.187   -12204241.71149  -9485682.37446  22540679.552    22540685.644
  22691387.124   -11847180.37049  -9198051.63446  22691386.590    22691393.204
  20284678.077   -27986007.67049 -21743461.75048  20284677.600    20284681.812
  20885130.988   -23824416.97149 -18337776.21947  20885130.255    20885136.398
  21976193.287   -18939254.26249 -14190918.22147  21976192.818    21976197.388
  22320864.102   -15779784.02049 -12278012.71946  22320863.748    22320870.723
  23461994.763    -7560077.87049  -5878014.04945  23461994.420    23462001.328
 03  4  9  1  3  0.0000000  0  8G17G23G31G14G15G18G 3G 9
  23493412.741   -12384982.37249  -9393530.60745  23493412.069    23493421.366
  22549743.503   -12156613.77949  -9448569.71446  22549742.888    22549748.939
  22691539.930   -11846377.70349  -9197426.19346  22691539.355    22691545.980
  20281012.264   -28005271.59749 -21758472.57548  20281011.768    20281015.994
  20895975.968   -23767426.45649 -18293368.05547  20895975.237    20895981.368
  21986247.658   -18886418.34249 -14149747.39247  21986247.198    21986251.796
  22329415.027   -15734848.77649 -12242998.28846  22329414.678    22329421.620
  23469789.330    -7519116.96249  -5846096.47945  23469789.013    23469795.914
 03  4  9  1  3 30.0000000  0  8G17G23G31G14G15G18G 3G 9
  23511578.439   -12289521.15749  -9319145.35445  23511577.883    23511587.082
  22558817.196   -12108931.47949  -9411414.69746  22558816.526    22558822.596
  22691798.785   -11845017.73449  -9196366.49746  22691798.185    22691804.806
  20277444.252   -28024021.50149 -21773082.86748  20277443.758    20277447.971
  20906903.607   -23710001.30249 -18248621.22447  20906902.862    20906909.043
  21996323.981   -18833466.82649 -14108486.49347  21996323.522    21996328.140
  22338048.661   -15689478.86449 -12207645.16446  22338048.301    22338055.267
  23477692.709    -7477584.15449  -5813733.27045  23477692.452    23477699.281
 03  4  9  1  4  0.0000000  0  8G17G23G31G14G15G18G 3G 9
  23529793.614   -12193799.98649  -9244557.53545  23529793.044    23529802.449
  22567901.121   -12061195.04549  -9374217.50246  22567900.487    22567906.565
  22692163.488   -11843101.50749  -9194873.34446  22692162.873    22692169.469
  20273973.913   -28042258.27949 -21787293.32248  20273973.400    20273977.611
  20917913.792   -23652142.46849 -18203536.46147  20917913.040    20917919.248
  22006422.332   -18780399.86349 -14067135.63247  22006421.851    22006426.481
  22346764.550   -15643676.74749 -12171955.24946  22346764.157    22346771.172
  23485704.743    -7435481.03749  -5780925.67545  23485704.455    23485711.180
 03  4  9  1  4 30.0000000  0  8G17G23G31G14G15G18G 3G 9
  23548057.981   -12097820.25049  -9169768.24745  23548057.489    23548067.006
  22576995.465   -12013403.92349  -9336977.68546  22576994.872    22577000.936
  22692633.935   -11840629.23549  -9192946.91446  22692633.337    22692639.927
  20270601.216   -28059981.82049 -21801103.85348  20270600.705    20270604.907
  20929006.461   -23593850.12649 -18158113.90047  20929005.711    20929011.946
  22016542.612   -18727217.36149 -14025694.74447  22016542.145    22016546.805
  22355562.251   -15597444.50649 -12135930.18446  22355561.887    22355568.924
  23493825.120    -7392808.12649  -5747674.07945  23493824.823    23493831.597
 03  4  9  1  5  0.0000000  0  8G17G23G31G14G15G18G 3G 9
  23566371.257   -12001584.00049  -9094779.07645  23566370.772    23566380.227
  22586100.079   -11965558.93049  -9299695.88646  22586099.459    22586105.545
  22693209.933   -11837602.37149  -9190588.32946  22693209.378    22693215.957
  20267325.912   -28077193.43449 -21814515.47448  20267325.423    20267329.629
  20940181.403   -23535125.52349 -18112354.50347  20940180.655    20940186.921
  22026684.664   -18673920.43349 -13984164.68447  22026684.214    22026688.899
  22364441.348   -15550784.87549 -12099572.08146  22364441.010    22364448.004
  23502053.609    -7349567.38149  -5713980.01545  23502053.347    23502059.996
 03  4  9  1  5 30.0000000  0  8G17G23G31G14G15G18G 3G 9
  23584733.162   -11905091.89149  -9019590.53745  23584732.660    23584742.175
  22595215.078   -11917659.41049  -9262371.60046  22595214.449    22595220.549
  22693891.457   -11834021.09149  -9187797.74246  22693890.876    22693897.454
  20264148.061   -28093892.92349 -21827528.04448  20264147.573    20264151.790
  20951438.622   -23475968.49549 -18066258.15547  20951437.891    20951444.125
  22036848.611   -18620508.54449 -13942545.04947  22036848.207    22036852.915
  22373401.501   -15503699.41649 -12062882.17346  22373401.166    22373408.142
  23510390.049    -7305759.39949  -5679843.93545  23510389.726    23510396.401
 03  4  9  1  6  0.0000000  0  8G17G23G31G14G15G18G 3G 9
  23603143.539   -11808345.65649  -8944203.97245  23603142.984    23603152.465
  22604340.357   -11869705.58449  -9225004.99746  22604339.751    22604345.843
  22694678.207   -11829886.57049  -9184576.05246  22694677.642    22694684.195
  20261067.589   -28110080.96449 -21840142.08148  20261067.095    20261071.292
  20962777.907   -23416380.42849 -18019825.92947  20962777.161    20962783.397
  22047034.343   -18566982.42349 -13900836.40247  22047033.906    22047038.620
  22382442.040   -15456191.02949 -12025862.70746  22382441.708    22382448.753
  23518834.153    -7261385.92849  -5645267.20445  23518833.770    23518840.322
 03  4  9  1  6 30.0000000  0  8G17G23G31G14G15G18G 3G 9
  23621601.748   -11711346.34149  -8868620.19745  23621601.266    23621611.001
  22613476.110   -11821697.06049  -9187595.77646  22613475.507    22613481.590
  22695570.223   -11825199.10149  -9180923.48946  22695569.664    22695576.184
  20258084.387   -28125757.64549 -21852357.65548  20258083.890    20258088.086
  20974199.155   -23356361.49749 -17973057.97047  20974198.424    20974204.619
  22057241.855   -18513341.76249 -13859038.50347  22057241.409    22057246.081
  22391562.773   -15408261.52949 -11988515.09446  22391562.424    22391569.513
  23527385.582    -7216447.86749  -5610250.56045  23527385.240    23527391.783
 03  4  9  1  7  0.0000000  0  8G17G23G31G14G15G18G 3G 9
  23640107.914   -11614095.71149  -8792840.62045  23640107.384    23640117.170
  22622622.277   -11773633.60449  -9150143.74746  22622621.665    22622627.828
  22696567.307   -11819959.39849  -9176840.61746  22696566.744    22696573.246
  20255198.421   -28140923.41349 -21864175.11848  20255197.928    20255202.109
  20985702.281   -23295912.22649 -17925954.68347  20985701.531    20985707.750
  22067471.132   -18459586.66849 -13817151.43747  22067470.668    22067475.315
  22400763.145   -15359913.36949 -11950841.25546  22400762.805    22400769.869
  23536044.328    -7170946.14649  -5574794.69745  23536043.986    23536050.533
 03  4  9  1  7 30.0000000  0  9G17G23G31G25G14G15G18G 3G 9
  23658661.213   -11516598.34749  -8716868.77445  23658660.650    23658670.430
  22631778.210   -11725518.63749  -9112651.58346  22631777.586    22631783.784
  22697668.590   -11814171.82649  -9172330.83746  22697668.031    22697674.584
  24518130.443    -4913042.90449  -3586236.63745  24518130.132    24518141.533
  20252408.958   -28155582.12449 -21875597.46848  20252408.469    20252412.647
  20997286.501   -23235036.86649 -17878519.37047  20997285.771    20997291.996
  22077721.406   -18405720.97849 -13775178.18647  22077720.942    22077725.647
  22410042.117   -15311152.34449 -11912845.71146  22410041.781    22410048.838
  23544809.424    -7124885.44349  -5538903.23245  23544809.107    23544815.601
 03  4  9  1  8  0.0000000  0  9G17G23G31G25G14G15G18G 3G 9
  23677262.087   -11418850.81549  -8640701.97645  23677261.453    23677271.230
  22640944.943   -11677347.52149  -9075115.66346  22640944.300    22640950.481
  22698874.928   -11807832.76149  -9167391.31646  22698874.346    22698880.914
  24499179.725    -5012627.78649  -3663834.96645  24499179.372    24499190.908
  20249716.670   -28169730.14849 -21886621.87848  20249716.173    20249720.341
  21008952.486   -23173731.79549 -17830749.22247  21008951.755    21008958.000
  22087993.568   -18351740.05149 -13733115.14347  22087993.141    22087997.870
  22419400.060   -15261976.12249 -11874526.62946  22419399.732    22419406.834
  23553681.503    -7078262.57249  -5502573.72745  23553681.256    23553687.647
 03  4  9  1  8 30.0000000  0  9G17G23G31G25G14G15G18G 3G 9
  23695910.146   -11320855.35149  -8564342.01345  23695909.453    23695919.296
  22650122.196   -11629120.60649  -9037536.26846  22650121.567    22650127.767
  22700185.960   -11800943.37649  -9162022.98546  22700185.359    22700191.980
  24480219.215    -5112265.27049  -3741474.30345  24480218.968    24480230.323
  20247121.409   -28183368.20549 -21897248.91548  20247120.910    20247125.088
  21020700.055   -23111997.94449 -17782644.96247  21020699.313    21020705.589
  22098287.601   -18297644.63149 -13690962.89446  22098287.134    22098291.854
  22428836.457   -15212387.58549 -11835886.27546  22428836.150    22428843.258
  23562660.281    -7031079.35649  -5465807.58945  23562660.039    23562666.360
 03  4  9  1  9  0.0000000  0  9G17G23G31G25G14G15G18G 3G 9
  23714605.035   -11222613.64449  -8487790.12445  23714604.271    23714614.238
  22659310.061   -11580838.14749  -8999913.59746  22659309.446    22659315.621
  22701601.445   -11793504.99449  -9156226.86346  22701600.849    22701607.484
  24461249.140    -5211953.32449  -3819153.07245  24461248.751    24461260.121
  20244623.022   -28196497.26849 -21907479.33548  20244622.530    20244626.687
  21032529.008   -23049836.59149 -17734207.58047  21032528.254    21032534.537
  22108603.291   -18243435.24149 -13648721.82646  22108602.853    22108607.575
  22438350.879   -15162389.48149 -11796926.76546  22438350.533    22438357.645
  23571745.278    -6983337.73449  -5428606.33245  23571744.951    23571751.271
 03  4  9  1  9 30.0000000  0  9G17G23G31G25G14G15G18G 3G 9
  23733346.426   -11124127.38249  -8411047.69345  23733345.816    23733355.482
  22668508.483   -11532500.18849  -8962247.66846  22668507.888    22668514.064
  22703121.217   -11785518.68949  -9150003.78146  22703120.666    22703127.263
  24442269.717    -5311689.70649  -3896869.49445  24442269.260    24442280.507
  20242221.309   -28209118.14549 -21917313.76548  20242220.832    20242224.977
  21044439.156   -22987248.40949 -17685437.60147  21044438.399    21044444.705
  22118940.706   -18189111.98149 -13606392.02746  22118940.276    22118944.937
  22447942.712   -15111984.40449 -11757650.14746  22447942.353    22447949.471
  23580936.151    -6935039.13049  -5390971.07345  23580935.798    23580942.214
 03  4  9  1 10  0.0000000  0  9G17G23G31G25G14G15G18G 3G 9
  23752134.036   -11025398.03249  -8334115.83445  23752133.460    23752143.114
  22677717.530   -11484106.58349  -8924538.38946  22677716.923    22677723.080
  22704745.036   -11776985.54649  -9143354.59646  22704744.413    22704751.020
  24423281.624    -5411471.64649  -3974621.45645  24423281.194    24423292.476
  20239916.238   -28221231.35349 -21926752.60848  20239915.748    20239919.895
  21056430.384   -22924234.30449 -17636335.73647  21056429.637    21056435.936
  22129299.733   -18134675.38949 -13563973.92546  22129299.265    22129303.886
  22457611.534   -15061174.64449 -11718058.17846  22457611.179    22457618.333
  23590232.731    -6886185.30949  -5352903.17445  23590232.382    23590238.839
 03  4  9  1 10 30.0000000  0  9G17G23G31G25G14G15G18G 3G 9
  23770967.696   -10926427.14049  -8256995.75845  23770967.001    23770976.846
  22686937.126   -11435657.35049  -8886785.75646  22686936.501    22686942.667
  22706472.722   -11767906.56849  -9136280.09746  22706472.146    22706478.743
  24404285.358    -5511296.88649  -4052407.16245  24404284.965    24404296.032
  20237707.635   -28232837.66949 -21935796.47148  20237707.137    20237711.262
  21068502.487   -22860795.19049 -17586902.69847  21068501.730    21068508.007
  22139680.229   -18080125.74049 -13521467.72746  22139679.759    22139684.350
  22467356.853   -15009962.70249 -11678152.83046  22467356.513    22467363.728
  23599634.600    -6836777.70549  -5314403.75745  23599634.303    23599640.826
 03  4  9  1 11  0.0000000  0  9G17G23G31G25G14G15G18G 3G 9
  23789847.084   -10827216.45349  -8179688.84045  23789846.402    23789856.067
  22696167.325   -11387152.55649  -8848989.83946  22696166.681    22696172.828
  22708303.963   -11758282.90349  -9128781.15246  22708303.429    22708310.058
  24385281.388    -5611162.80849  -4130224.57845  24385281.052    24385292.011
  20235595.297   -28243937.92449 -21944445.99948  20235594.799    20235598.910
  21080655.287   -22796931.91249 -17537139.13947  21080654.546    21080660.834
  22150082.189   -18025463.21349 -13478873.57246  22150081.727    22150086.314
  22477178.127   -14958351.61849 -11637936.45346  22477177.803    22477185.042
  23609141.694    -6786817.74949  -5275473.93245  23609141.331    23609147.862
 03  4  9  1 11 30.0000000  0  9G17G23G31G25G14G15G18G 3G 9
  23808771.791   -10727766.89949  -8102195.78245  23808771.251    23808780.853
  22705408.228   -11338591.53049  -8811150.10546  22705407.544    22705413.709
  22710238.889   -11748115.08049  -9120858.19746  22710238.349    22710244.917
  24366270.148    -5711066.88649  -4208071.73145  24366269.843    24366280.646
  20233579.261   -28254532.34049 -21952701.36948  20233578.755    20233582.878
  21092888.784   -22732644.66849 -17487045.22247  21092888.047    21092894.346
  22160505.765   -17970687.23149 -13436191.01146  22160505.291    22160509.863
  22487075.135   -14906342.93549 -11597410.27146  22487074.762    22487082.013
  23618753.648    -6736306.32949  -5236114.39345  23618753.188    23618759.853
 03  4  9  1 12  0.0000000  0  9G17G23G31G25G14G15G18G 3G 9
  23827741.365   -10628080.86549  -8024518.44845  23827740.659    23827750.731
  22714659.648   -11289974.93549  -8773267.06046  22714658.968    22714665.171
  22712276.941   -11737404.95749  -9112512.66846  22712276.408    22712283.002
  24347252.134    -5811006.79049  -4285946.81045  24347251.838    24347262.680
  20231659.174   -28264622.21449 -21960563.58948  20231658.664    20231662.785
  21105202.602   -22667935.31949 -17436622.39047  21105201.863    21105208.179
  22170950.654   -17915798.84849 -13393420.86646  22170950.181    22170954.738
  22497047.158   -14853939.89649 -11556576.79146  22497046.808    22497054.031
  23628470.122    -6685245.78749  -5196326.97945  23628469.631    23628476.396
 03  4  9  1 12 30.0000000  0  9G17G23G31G25G14G15G18G 3G 9
  23846755.818   -10528159.41249  -7946657.68545  23846755.105    23846765.279
  22723921.744   -11241302.08149  -8735340.18746  22723921.137    22723927.321
  22714418.135   -11726153.06149  -9103744.97646  22714417.616    22714424.172
  24328227.842    -5910979.60149  -4363847.51745  24328227.449    24328238.190
  20229835.051   -28274207.89249 -21968032.93148  20229834.557    20229838.666
  21117596.687   -22602804.23949 -17385870.93547  21117595.942    21117602.251
  22181416.988   -17860797.70849 -13350562.85146  22181416.555    22181421.145
  22507093.817   -14801144.45349 -11515437.53946  22507093.483    22507100.697
  23638290.833    -6633637.41349  -5156112.69145  23638290.452    23638297.137
 03  4  9  1 13  0.0000000  0  9G17G23G31G25G14G15G18G 3G 9
  23865814.711   -10428004.37749  -7868614.92045  23865814.120    23865824.365
  22733194.604   -11192573.18349  -8697369.63846  22733193.997    22733200.175
  22716662.155   -11714360.85749  -9094556.26046  22716661.622    22716668.188
  24309197.642    -6010983.34149  -4441772.34145  24309197.283    24309207.942
  20228106.754   -28283290.29049 -21975110.10448  20228106.243    20228110.352
  21130070.770   -22537252.55349 -17334791.73347  21130070.027    21130076.343
  22191904.723   -17805684.44649 -13307617.47446  22191904.285    22191908.895
  22517214.566   -14747959.75549 -11473994.97946  22517214.217    22517221.435
  23648215.528    -6581482.91849  -5115472.83245  23648215.131    23648221.765
 03  4  9  1 13 30.0000000  0  9G17G23G31G25G14G15G18G 3G 9
  23884917.946   -10327616.87049  -7790390.99045  23884917.366    23884927.495
  22742478.251   -11143787.57849  -8659354.89746  22742477.590    22742483.751
  22719008.875   -11702029.03449  -9084947.06746  22719008.288    22719014.888
  24290162.076    -6111014.81949  -4519718.75845  24290161.802    24290172.440
  20226474.141   -28291869.77549 -21981795.40348  20226473.624    20226477.712
  21142624.869   -22471280.49849 -17283384.97947  21142624.136    21142630.470
  22202413.898   -17750458.60249 -13264584.37446  22202413.439    22202418.059
  22527409.039   -14694387.58049 -11432250.48846  22527408.689    22527415.958
  23658243.827    -6528783.38849  -5074408.28745  23658243.409    23658250.112
 03  4  9  1 14  0.0000000  0  9G17G23G31G25G14G15G18G 3G 9
  23904065.064   -10226998.33149  -7711987.06145  23904064.530    23904074.613
  22751772.623   -11094945.42249  -8621296.09246  22751771.966    22751778.101
  22721457.965   -11689158.98249  -9074918.47146  22721457.372    22721463.950
  24271121.674    -6211071.64349  -4597684.92845  24271121.353    24271132.116
  20224936.958   -28299947.49449 -21988089.71348  20224936.448    20224940.551
  21155258.708   -22404889.42449 -17231651.71147  21155257.960    21155264.307
  22212944.411   -17695120.39549 -13221463.70946  22212943.969    22212948.561
  22537676.678   -14640430.99749 -11390206.46146  22537676.311    22537683.577
  23668375.579    -6475540.82849  -5032920.60245  23668375.135    23668381.867
 03  4  9  1 14 30.0000000  0  9G17G23G31G25G14G15G18G 3G 9
  23923255.769   -10126150.75549  -7633404.63745  23923255.265    23923265.377
  22761077.799   -11046046.48449  -8583193.04246  22761077.135    22761083.325
  22724009.242   -11675751.92849  -9064471.43346  22724008.676    22724015.224
  24252077.044    -6311151.27549  -4675668.85145  24252076.687    24252087.295
  20223495.133   -28307524.13049 -21993993.57148  20223494.636    20223498.730
  21167972.068   -22338080.25149 -17179592.65847  21167971.328    21167977.722
  22223496.206   -17639670.25549 -13178255.82446  22223495.774    22223500.397
  22548017.038   -14586092.34049 -11347864.71446  22548016.693    22548023.981
  23678610.373    -6421756.92249  -4991011.07545  23678609.940    23678616.714
 03  4  9  1 15  0.0000000  0  9G17G23G31G25G14G15G18G 3G 9
  23942489.980   -10025075.49749  -7554644.80045  23942489.379    23942499.380
  22770393.748   -10997090.72449  -8545045.71646  22770393.115    22770399.349
  22726662.462   -11661809.11649  -9053606.92946  22726661.899    22726668.462
  24233028.531    -6411251.38649  -4753668.73345  24233027.984    24233038.624
  20222148.522   -28314600.65349 -21999507.72948  20222148.018    20222152.120
  21180764.810   -22270854.05649 -17127208.64847  21180764.102    21180770.495
  22234069.265   -17584108.42449 -13134960.90746  22234068.854    22234073.466
  22558429.572   -14531374.27149 -11305227.31346  22558429.244    22558436.498
  23688947.799    -6367433.38749  -4948681.08245  23688947.373    23688954.115
 03  4  9  1 15 30.0000000  0  9G17G23G31G25G14G15G18G 3G 9
  23961767.139    -9923773.76749  -7475708.49445  23961766.594    23961776.560
  22779720.614   -10948077.59749  -8506853.69046  22779719.998    22779726.268
  22729417.483   -11647331.30649  -9042325.52946  22729416.922    22729423.495
  24213976.592    -6511369.06749  -4831682.28245  24213976.273    24213986.616
  20220897.007   -28321177.27949 -22004632.35548  20220896.515    20220900.607
  21193636.821   -22203211.32849 -17074500.07447  21193636.081    21193642.493
  22244663.680   -17528434.57449 -13091578.69946  22244663.240    22244667.868
  22568913.941   -14476278.78349 -11262295.82646  22568913.616    22568920.915
  23699387.810    -6312571.40049  -4905931.48645  23699387.395    23699393.949
 03  4  9  1 16  0.0000000  0  9G17G23G31G25G14G15G18G 3G 9
  23981086.848    -9822248.08449  -7396597.65145  23981086.160    23981096.175
  22789058.419   -10899007.37349  -8468617.16246  22789057.764    22789064.053
  22732274.029   -11632320.21349  -9030628.60346  22732273.474    22732280.074
  24194921.775    -6611501.78149  -4909707.57545  24194921.275    24194931.804
  20219740.368   -28327255.38349 -22009368.52648  20219739.875    20219743.957
  21206587.829   -22135153.48549 -17021468.03447  21206587.095    21206593.537
  22255279.290   -17472649.08749 -13048109.50846  22255278.841    22255283.498
  22579469.499   -14420809.09749 -11219072.75546  22579469.199    22579476.468
  23709929.760    -6257173.00549  -4862763.93845  23709929.367    23709935.910
 03  4  9  1 16 30.0000000  0  9G17G23G31G25G14G15G18G 3G 9
  24000449.155    -9720498.92449  -7317312.67845  24000448.455    24000458.320
  22798407.267   -10849879.04649  -8430335.37046  22798406.572    22798412.889
  22735231.946   -11616776.35349  -9018516.52546  22735231.377    22735238.022
  24175864.646    -6711646.38449  -4987742.12345  24175864.269    24175874.568
  20218678.571   -28332835.06249 -22013716.31148  20218678.081    20218682.160
  21219617.804   -22066680.60949 -16968112.59047  21219617.075    21219623.552
  22265916.328   -17416751.28849 -13004552.79546  22265915.857    22265920.519
  22590095.922   -14364967.04349 -11175559.53646  22590095.622    22590102.924
  23720573.512    -6201239.03749  -4819179.05845  23720573.159    23720579.828
 03  4  9  1 17  0.0000000  0  9G17G23G31G25G14G15G18G 3G 9
  24019853.609    -9618528.50449  -7237855.30945  24019852.971    24019862.724
  22807766.994   -10800693.22349  -8392008.77446  22807766.342    22807772.650
  22738290.877   -11600701.68349  -9005990.83246  22738290.309    22738296.924
  24156805.723    -6811800.88549  -5065784.37945  24156805.273    24156815.530
  20217711.333   -28337917.89449 -22017676.94348  20217710.840    20217714.924
  21232726.471   -21997794.31449 -16914435.00547  21232725.740    21232732.234
  22276574.544   -17360741.95849 -12960909.17946  22276574.108    22276578.782
  22600792.611   -14308755.73449 -11131758.58446  22600792.317    22600799.635
  23731318.891    -6144772.10949  -4775178.88545  23731318.570    23731325.109
 03  4  9  1 17 30.0000000  0  9G17G23G31G25G14G15G18G 3G 9
  24039299.948    -9516338.08449  -7158226.51145  24039299.179    24039308.908
  22817137.807   -10751449.56349  -8353637.11046  22817137.165    22817143.445
  22741450.603   -11584097.41849  -8993052.46046  22741450.032    22741456.644
  24137745.464    -6911962.86149  -5143832.44545  24137745.007    24137755.156
  20216838.497   -28342504.54149 -22021250.94048  20216838.014    20216842.090
  21245913.607   -21928495.53549 -16860436.00047  21245912.880    21245919.377
  22287253.993   -17304621.33449 -12917178.83846  22287253.525    22287258.197
  22611559.155   -14252177.68549 -11087671.85546  22611558.803    22611566.094
  23742165.367    -6087773.91749  -4730764.75745  23742165.041    23742171.578
 03  4  9  1 18  0.0000000  0  9G17G23G31G25G14G15G18G 3G 9
  24058787.606    -9413929.64949  -7078427.82645  24058786.979    24058796.933
  22826519.646   -10702148.00249  -8315220.33546  22826519.000    22826525.200
  22744710.714   -11566965.09849  -8979702.63446  22744710.195    22744716.796
  24118684.254    -7012129.63149  -5221884.25345  24118683.863    24118693.897
  20216059.917   -28346596.10649 -22024439.15448  20216059.433    20216063.506
  21259179.018   -21858785.61249 -16806116.62647  21259178.277    21259184.780
  22297954.614   -17248389.30249 -12873361.69146  22297954.117    22297958.833
  22622394.870   -14195235.67149 -11043301.51846  22622394.522    22622401.895
  23753112.456    -6030246.47549  -4685938.22145  23753112.103    23753118.706
 03  4  9  1 18 30.0000000  0  9G17G23G31G25G14G15G18G 3G 9
  24078316.397    -9311304.72249  -6998460.46345  24078315.758    24078325.860
  22835912.511   -10652787.82949  -8276757.87446  22835911.877    22835918.102
  22748071.271   -11549305.46049  -8965941.89346  22748070.728    22748077.322
  24099622.720    -7112298.08149  -5299937.34845  24099622.289    24099632.244
  20215375.420   -28350193.07849 -22027241.96848  20215374.937    20215378.992
  21272522.529   -21788665.01849 -16751477.24347  21272521.809    21272528.316
  22308676.477   -17192045.55649 -12829457.49046  22308675.995    22308680.717
  22633299.498   -14137931.80649 -10998649.21646  22633299.183    22633306.548
  23764160.067    -5972190.98049  -4640700.21345  23764159.745    23764166.372
 03  4  9  1 19  0.0000000  0  9G17G23G31G25G14G15G18G 3G 9
  24097886.258    -9208464.63349  -6918325.42545  24097885.600    24097895.959
  22845316.626   -10603368.80449  -8238249.57446  22845315.997    22845322.256
  22751531.870   -11531119.90949  -8951771.37046  22751531.312    22751537.973
  24080561.274    -7212465.85549  -5377989.91045  24080560.885    24080570.737
  20214784.882   -28353296.24349 -22029660.00348  20214784.386    20214788.463
  21285944.045   -21718134.74049 -16696518.63247  21285943.318    21285949.797
  22319419.609   -17135590.10349 -12785466.25246  22319419.117    22319423.855
  22644272.462   -14080268.77249 -10953717.05146  22644272.146    22644279.539
  23775307.922    -5913609.19349  -4595052.11645  23775307.507    23775314.095
 03  4  9  1 19 30.0000000  0  9G17G23G31G25G14G15G18G 3G 9
  24117496.847    -9105410.98249  -6838023.97645  24117496.155    24117506.396
  22854731.892   -10553890.93749  -8199695.41246  22854731.299    22854737.630
  22755092.256   -11512410.01549  -8937192.26546  22755091.728    22755098.336
  24061500.399    -7312630.35349  -5456039.92345  24061500.121    24061509.864
  20214288.087   -28355906.89049 -22031694.25348  20214287.590    20214291.658
  21299443.262   -21647196.07849 -16641241.79847  21299442.533    21299449.038
  22330183.889   -17079023.29849 -12741388.24846  22330183.436    22330188.186
  22655313.208   -14022249.35749 -10908507.18946  22655312.923    22655320.324
  23786555.470    -5854502.91349  -4548995.31245  23786555.101    23786561.763
 03  4  9  1 20  0.0000000  0  9G17G23G31G25G14G15G18G 3G 9
  24137147.653    -9002145.52449  -6757557.47745  24137147.001    24137157.308
  22864158.431   -10504354.19349  -8161095.36946  22864157.862    22864164.184
  22758752.143   -11493177.31149  -8922205.77146  22758751.594    22758758.260
  24042440.757    -7412789.00349  -5534085.37945  24042440.345    24042450.102
  20213884.758   -28358026.11849 -22033345.57748  20213884.299    20213888.352
  21313019.931   -21575850.16149 -16585647.61747  21313019.214    21313025.729
  22340969.315   -17022345.56749 -12697223.79646  22340968.869    22340973.657
  22666421.179   -13963876.52749 -10863021.93746  22666420.914    22666428.343
  23797902.574    -5794874.38549  -4502531.54045  23797902.115    23797908.759
 03  4  9  1 20 30.0000000  0  9G17G23G31G25G14G15G18G 3G 9
  24156838.593    -8898669.87449  -6676927.20745  24156837.959    24156848.286
  22873596.311   -10454757.90849  -8122448.93046  22873595.769    22873602.054
  22762511.343   -11473422.92049  -8906812.77646  22762510.771    22762517.435
  24023382.595    -7512938.91149  -5612124.03345  24023382.319    24023392.052
  20213574.890   -28359654.47049 -22034614.40648  20213574.404    20213578.458
  21326674.092   -21504097.35449 -16529736.38747  21326673.351    21326679.864
  22351775.905   -16965556.50149 -12652972.60346  22351775.478    22351780.288
  22677596.091   -13905152.52549 -10817263.04546  22677595.817    22677603.237
  23809348.629    -5734724.99049  -4455661.89645  23809348.261    23809354.894
 03  4  9  1 21  0.0000000  0  9G17G23G31G25G14G15G18G 3G 9
  24176569.224    -8794986.08849  -6596134.74645  24176568.609    24176578.877
  22883045.493   -10405102.24349  -8083756.22746  22883044.958    22883051.192
  22766369.459   -11453148.66149  -8891014.69346  22766368.900    22766375.586
  24004326.517    -7613077.68649  -5690154.03645  24004326.381    24004336.082
  20213358.146   -28360793.38749 -22035501.85648  20213357.654    20213361.717
  21340405.349   -21431939.38649 -16473509.44447  21340404.585    21340411.125
  22362603.666   -16908656.48449 -12608634.95246  22362603.212    22362608.018
  22688837.240   -13846080.32949 -10771232.83046  22688836.925    22688844.377
  23820893.277    -5674057.24249  -4408388.31945  23820892.899    23820899.638
 03  4  9  1 21 30.0000000  0  9G17G23G31G25G14G15G18G 3G 9
  24196339.074    -8691095.33249  -6515180.99745  24196338.463    24196348.793
  22892506.080   -10355386.78449  -8045016.92546  22892505.488    22892511.762
  22770326.220   -11432355.85849  -8874812.54146  22770325.681    22770332.338
  23985273.188    -7713202.60649  -5768173.25045  23985273.042    23985282.768
  20213234.392   -28361443.56049 -22036008.47448  20213233.909    20213237.978
  21354213.459   -21359377.40149 -16416967.68447  21354212.696    21354219.230
  22373452.614   -16851645.31549 -12564210.68646  22373452.111    22373456.905
  22700144.141   -13786662.31449 -10724933.13846  22700143.797    22700151.310
  23832536.338    -5612872.81349  -4360712.15445  23832536.009    23832542.659
 03  4  9  1 22  0.0000000  0  9G17G23G31G25G14G15G18G 3G 9
  24216147.929    -8586999.21649  -6434067.24345  24216147.250    24216157.753
  22901978.057   -10305611.03749  -8006230.65046  22901977.481    22901983.810
  22774381.438   -11411045.76549  -8858207.31046  22774380.874    22774387.565
  23966222.967    -7813310.88249  -5846179.49645  23966222.830    23966232.586
  20213203.499   -28361605.88149 -22036134.94548  20213203.031    20213207.064
  21368098.277   -21286412.34849 -16360111.84547  21368097.534    21368104.046
  22384322.658   -16794522.76649 -12519699.63546  22384322.176    22384326.983
  22711516.409   -13726900.97749 -10678365.93546  22711516.035    22711523.603
  23844277.395    -5551173.15149  -4312634.49945  23844277.031    23844283.800
 03  4  9  1 22 30.0000000  0  9G17G23G31G25G14G15G18G 3G 9
  24235995.572    -8482699.52949  -6352794.85845  24235994.900    24236005.379
  22911461.600   -10255774.68849  -7967397.15146  22911461.026    22911467.371
  22778534.721   -11389219.97349  -8841200.24646  22778534.139    22778540.922
  23947176.610    -7913399.61349  -5924170.53045  23947176.366    23947186.079
  20213265.245   -28361281.43849 -22035882.12048  20213264.758    20213268.775
  21382059.617   -21213045.31249 -16302942.77147  21382058.868    21382065.392
  22395213.858   -16737289.21049 -12475102.07346  22395213.396    22395218.198
  22722953.408   -13666799.11549 -10631533.38446  22722953.037    22722960.672
  23856116.041    -5488960.18149  -4264156.87945  23856115.794    23856122.606
 03  4  9  1 23  0.0000000  0  9G17G23G31G25G14G15G18G 3G 9
  24255881.623    -8378197.56549  -6271364.84245  24255881.122    24255891.397
  22920956.743   -10205877.32949  -7928516.10546  22920956.202    22920962.497
  22782785.887   -11366879.76549  -8823792.33146  22782785.336    22782792.138
  23928134.381    -8013466.06049  -6002144.19645  23928134.107    23928143.826
  20213419.425   -28360471.08849 -22035250.67048  20213418.931    20213422.945
  21396097.255   -21139277.12849 -16245461.11847  21396096.510    21396103.025
  22406126.240   -16679944.25349 -12430417.71046  22406125.742    22406130.605
  22734454.788   -13606359.30449 -10584437.49346  22734454.424    22734462.086
  23868052.144    -5426235.90149  -4215280.81845  23868051.832    23868058.613
 03  4  9  1 23 30.0000000  0  9G17G23G31G25G14G15G18G 3G 9
  24275805.676    -8273495.83449  -6189779.17645  24275805.150    24275815.580
  22930463.464   -10155919.45649  -7889587.90746  22930462.871    22930469.147
  22787134.593   -11344027.49149  -8805985.40046  22787134.015    22787140.827
  23909096.770    -8113508.24949  -6080098.98345  23909096.598    23909106.172
  20213665.703   -28359176.84049 -22034242.15348  20213665.221    20213669.229
  21410210.869   -21065109.70949 -16187668.36247  21410210.120    21410216.672
  22417059.650   -16622488.68549 -12385647.15246  22417059.163    22417064.030
  22746019.842   -13545584.87949 -10537080.86646  22746019.499    22746027.122
  23880084.934    -5363003.00049  -4166008.42845  23880084.621    23880091.421
 03  4  9  1 24  0.0000000  0  8G23G31G25G14G15G18G 3G 9
  22939981.973   -10105899.53849  -7850611.35846  22939981.381    22939987.671
  22791580.677   -11320663.63049  -8787779.82746  22791580.038    22791586.821
  23890064.529    -8213522.53649  -6158032.01545  23890064.373    23890073.889
  20214004.148   -28357398.40549 -22032856.34848  20214003.646    20214007.649
  21424400.476   -20990543.01849 -16129564.49547  21424399.766    21424406.313
  22428014.327   -16564921.39649 -12340789.54746  22428013.839    22428018.699
  22757648.222   -13484477.50749 -10489464.80646  22757647.878    22757655.548
  23892214.447    -5299262.30449  -4116340.35945  23892214.094    23892220.866
 03  4  9  1 24 30.0000000  0  8G23G31G25G14G15G18G 3G 9
  22949512.349   -10055817.27649  -7811586.23146  22949511.764    22949518.059
  22796123.807   -11296789.55349  -8769176.71046  22796123.182    22796129.945
  23871038.080    -8313506.06649  -6235941.07545  23871037.865    23871047.429
  20214434.492   -28355136.71649 -22031093.98248  20214433.999    20214438.013
  21438665.883   -20915578.09649 -16071150.31847  21438665.161    21438671.719
  22438990.391   -16507242.42049 -12295844.90246  22438989.841    22438994.707
  22769339.579   -13423039.55649 -10441591.13746  22769339.224    22769346.927
  23904440.139    -5235015.73649  -4066278.10945  23904439.731    23904446.478
 03  4  9  1 25  0.0000000  0  8G23G31G25G14G15G18G 3G 9
  22959054.337   -10005674.06349  -7772513.61446  22959053.738    22959059.994
  22800763.416   -11272408.55049  -8750178.55646  22800762.780    22800769.569
  23852017.788    -8413457.52049  -6313825.16045  23852017.572    23852027.174
  20214956.309   -28352394.59449 -22028957.24848  20214955.817    20214959.844
  21453006.499   -20840217.84949 -16012428.09947  21453005.773    21453012.327
  22449987.338   -16449453.19849 -12250814.36046  22449986.817    22449991.648
  22781092.934   -13361275.62849 -10393463.47046  22781092.578    22781100.299
  23916761.394    -5170266.97249  -4015824.52645  23916761.001    23916767.776
 03  4  9  1 25 30.0000000  0  8G23G31G25G14G15G18G 3G 9
  22968608.039    -9955468.90849  -7733392.72146  22968607.434    22968613.744
  22805499.224   -11247521.67649  -8730786.22346  22805498.592    22805505.376
  23833004.145    -8513374.19349  -6391682.13245  23833003.965    23833013.431
  20215569.416   -28349172.52949 -22026446.53548  20215568.933    20215572.949
  21467422.237   -20764462.88449 -15953398.30047  21467421.503    21467428.061
  22461005.323   -16391553.23949 -12205697.52846  22461004.830    22461009.666
  22792907.890   -13299187.77349 -10345083.39646  22792907.538    22792915.271
  23929177.953    -5105017.43549  -3964980.75245  23929177.555    23929184.359
 03  4  9  1 26  0.0000000  0  8G23G31G25G14G15G18G 3G 9
  22978173.625    -9905201.66249  -7694223.45446  22978173.022    22978179.297
  22810331.004   -11222130.63349  -8711001.03746  22810330.417    22810337.142
  23813997.692    -8613253.27149  -6469509.80045  23813997.453    23814006.946
  20216273.638   -28345471.77349 -22023562.81548  20216273.135    20216277.174
  21481912.835   -20688314.38049 -15894061.84947  21481912.112    21481918.677
  22472044.347   -16333542.70349 -12160494.52546  22472043.858    22472048.721
  22804783.912   -13236778.91949 -10296453.18646  22804783.577    22804791.324
  23941689.618    -5039269.26349  -3913748.40545  23941688.974    23941695.916
 03  4  9  1 26 30.0000000  0  8G23G31G25G14G15G18G 3G 9
  22987751.176    -9854871.58249  -7655005.22746  22987750.551    22987756.791
  22815258.454   -11196236.85949  -8690824.10846  22815257.886    22815264.607
  23794999.119    -8713091.32949  -6547305.52445  23794998.885    23795008.147
  20217068.754   -28341293.34249 -22020306.88048  20217068.265    20217072.285
  21496478.125   -20611773.40049 -15834419.57247  21496477.408    21496483.987
  22483104.502   -16275421.07149 -12115204.95546  22483104.021    22483108.907
  22816720.597   -13174051.43749 -10247574.69646  22816720.243    22816728.007
  23954295.475    -4973024.22149  -3862128.90145  23954294.957    23954301.970
 03  4  9  1 27  0.0000000  0  8G23G31G25G14G15G18G 3G 9
  22997340.594    -9804478.69449  -7615738.04846  22997339.983    22997346.294
  22820281.194   -11169842.27449  -8670256.93546  22820280.628    22820287.384
  23776008.848    -8812886.19049  -6625067.57745  23776008.512    23776017.649
  20217954.538   -28336638.59249 -22016679.78548  20217954.042    20217958.033
  21511117.822   -20534841.46449 -15774472.65047  21511117.113    21511123.704
  22494185.797   -16217188.68849 -12069829.08846  22494185.280    22494190.174
  22828717.384   -13111008.22849 -10198450.18346  22828717.018    22828724.835
  23966995.623    -4906284.60149  -3810124.00345  23966995.165    23967002.125
 03  4  9  1 27 30.0000000  0  8G23G31G25G14G15G18G 3G 9
  23006942.092    -9754022.46549  -7576421.52746  23006941.416    23006947.770
  22825399.000   -11142948.29649  -8649300.62446  22825398.436    22825405.157
  23757027.301    -8912634.91349  -6702793.68345  23757026.922    23757035.880
  20218930.804   -28331508.28249 -22012682.12848  20218930.316    20218934.294
  21525831.751   -20457519.39449 -15714221.73347  21525831.017    21525837.641
  22505288.174   -16158845.56349 -12024366.93546  22505287.643    22505292.499
  22840773.767   -13047651.84349 -10149081.64746  22840773.461    22840781.267
  23979789.507    -4839052.39549  -3757735.27845  23979788.987    23979795.897
 03  4  9  1 28  0.0000000  0  8G23G31G25G14G15G18G 3G 9
  23016555.685    -9703502.88449  -7537055.63446  23016554.991    23016561.385
  22830611.358   -11115556.98949  -8627956.78646  22830610.807    22830617.548
  23738054.939    -9012334.90349  -6780481.82245  23738054.617    23738063.427
  20219997.271   -28325903.93349 -22008315.08548  20219996.768    20220000.734
  21540619.615   -20379808.86549 -15653668.11947  21540618.890    21540625.516
  22516411.649   -16100391.77649 -11978818.54146  22516411.063    22516415.925
  22852889.226   -12983985.29649 -10099471.42446  22852888.884    22852896.690
  23992676.499    -4771329.70149  -3704964.34845  23992676.167    23992682.905
 03  4  9  1 28 30.0000000  0  9G23G31G25G14G11G15G18G 3G 9
  23026181.126    -9652920.54549  -7497640.85146  23026180.507    23026186.931
  22835917.923   -11087671.00249  -8606227.48446  22835917.363    22835924.091
  23719091.994    -9111984.76149  -6858130.87245  23719091.775    23719100.553
  20221153.525   -28319827.82649 -22003580.44348  20221153.017    20221156.978
  24673344.166    -3915622.15949  -3034313.74945  24673343.790    24673350.499
  21555480.951   -20301712.14049 -15592813.57647  21555480.241    21555486.858
  22527555.906   -16041828.23049 -11933184.62946  22527555.348    22527560.219
  22865062.932   -12920012.30549 -10049622.41446  22865062.566    22865070.425
  24005656.252    -4703119.75049  -3651813.75545  24005656.079    24005662.834
 03  4  9  1 29  0.0000000  0  9G23G31G25G14G11G15G18G 3G 9
  23035818.748    -9602274.47149  -7458176.39346  23035818.126    23035824.611
  22841318.319   -11059291.57449  -8584113.67846  22841317.765    22841324.566
  23700139.305    -9211581.16349  -6935738.27845  23700139.076    23700147.818
  20222399.387   -28313280.56949 -21998478.67148  20222398.875    20222402.846
  24654248.461    -4015971.06849  -3112507.68745  24654248.208    24654254.479
  21570415.705   -20223229.80849 -15531658.55447  21570414.972    21570421.614
  22538721.205   -15983154.30849 -11887464.69946  22538720.658    22538725.526
  22877294.464   -12855735.29649  -9999536.50046  22877294.109    22877301.952
  24018728.723    -4634424.23449  -3598284.78345  24018728.411    24018735.316
 03  4  9  1 29 30.0000000  0  9G23G31G25G14G11G15G18G 3G 9
  23045468.805    -9551563.14849  -7418661.09246  23045468.184    23045474.672
  22846812.622   -11030419.19049  -8561615.75446  22846812.051    22846818.839
  23681197.475    -9311119.75049  -7013300.61445  23681197.259    23681206.151
  20223734.925   -28306262.07449 -21993009.70248  20223734.430    20223738.405
  24635168.647    -4116236.13949  -3190636.28345  24635168.348    24635174.426
  21585423.794   -20144362.10749 -15470203.25247  21585423.032    21585429.696
  22549907.694   -15924368.71949 -11841657.77246  22549907.174    22549912.042
  22889583.586   -12791155.77549  -9949214.86446  22889583.261    22889591.043
  24031893.361    -4565243.95149  -3544378.09645  24031892.977    24031899.820
 03  4  9  1 30  0.0000000  0  9G23G31G25G14G11G15G18G 3G 9
  23055131.284    -9500786.21949  -7379094.67046  23055130.685    23055137.167
  22852400.308   -11001055.58649  -8538735.05346  22852399.743    22852406.568
  23662267.165    -9410597.70349  -7090815.72245  23662267.044    23662275.959
  20225159.947   -28298773.44549 -21987174.39248  20225159.454    20225163.424
  24616105.141    -4216415.48249  -3268698.10945  24616104.885    24616111.123
  21600504.940   -20065110.10049 -15408448.49247  21600504.192    21600510.872
  22561115.503   -15865471.32049 -11795763.70546  22561114.965    22561119.823
  22901929.776   -12726276.38449  -9898659.57846  22901929.464    22901937.255
  24045149.746    -4495580.95749  -3490095.24545  24045149.519    24045156.269
 03  4  9  1 30 30.0000000  0  9G23G31G25G14G11G15G18G 3G 9
  23064806.358    -9449943.69749  -7339477.14046  23064805.747    23064812.230
  22858081.144   -10971202.95549  -8515473.30346  22858080.600    22858087.383
  23643348.840    -9510013.11049  -7168282.08345  23643348.741    23643357.699
  20226674.092   -28290816.49349 -21980974.15848  20226673.595    20226677.551
  24597058.301    -4316507.14349  -3346691.54845  24597057.910    24597064.082
  21615658.904   -19985475.54149 -15346395.63647  21615658.171    21615664.852
  22572344.490   -15806462.49049 -11749782.81546  22572343.972    22572348.795
  22914332.432   -12661100.16449  -9847872.97346  22914332.118    22914339.930
  24058497.661    -4425437.83349  -3435438.28645  24058497.319    24058504.035
 03  4  9  1 31  0.0000000  0  9G23G31G25G14G11G15G18G 3G 9
  23074493.870    -9399035.63549  -7299808.53146  23074493.220    23074499.696
  22863854.562   -10940863.58849  -8491832.27546  22863854.053    22863860.848
  23624442.847    -9609363.67549  -7245697.92945  23624442.739    23624451.725
  20228277.041   -28282392.97249 -21974410.36248  20228276.536    20228280.500
  24578028.387    -4416509.71749  -3424615.60945  24578028.015    24578033.958
  21630885.336   -19905460.11849 -15284046.00347  21630884.600    21630891.312
  22583594.606   -15747342.67549 -11703715.43646  22583594.113    22583598.907
  22926790.953   -12595630.35149  -9796857.60846  22926790.663    22926798.466
  24071936.445    -4354817.31549  -3380409.30645  24071936.036    24071942.581
 03  4  9  1 31 30.0000000  0  9G23G31G25G14G11G15G18G 3G 9
  23084194.096    -9348061.00549  -7260088.05846  23084193.465    23084199.894
  22869720.425   -10910038.61449  -8467812.85546  22869719.833    22869726.713
  23605549.932    -9708645.78249  -7323060.43245  23605549.818    23605558.780
  20229968.656   -28273503.35849 -21967483.37548  20229968.144    20229972.106
  24559015.948    -4516420.35749  -3502467.98345  24559015.558    24559021.591
  21646184.131   -19825064.76949 -15221400.32147  21646183.389    21646190.110
  22594866.053   -15688111.01849 -11657560.92146  22594865.550    22594870.298
  22939304.948   -12529868.95849  -9745615.02746  22939304.690    22939312.485
  24085465.564    -4283720.96449  -3325009.55245  24085465.249    24085471.805
 03  4  9  1 32  0.0000000  0  9G23G31G25G14G11G15G18G 3G 9
  23093906.746    -9297020.59349  -7220316.32246  23093906.141    23093912.572
  22875678.036   -10878731.25249  -8443417.54446  22875677.448    22875684.330
  23586670.424    -9807857.79849  -7400368.31745  23586670.248    23586679.173
  20231748.515   -28264150.15349 -21960195.15348  20231747.992    20231751.937
  24540021.278    -4616237.98449  -3580247.86245  24540020.868    24540026.867
  21661554.743   -19744291.81749 -15158460.40847  21661553.998    21661560.753
  22606158.495   -15628768.64349 -11611320.11446  22606157.992    22606162.807
  22951873.696   -12463820.10049  -9694148.45246  22951873.399    22951881.253
  24099084.610    -4212152.13449  -3269241.64045  24099084.222    24099090.887
 03  4  9  1 32 30.0000000  0  9G23G31G25G14G11G15G18G 3G 9
  23103632.209    -9245913.31049  -7180492.47746  23103631.579    23103637.956
  22881727.252   -10846942.57549  -8418647.18846  22881726.680    22881733.550
  23567804.855    -9906996.51449  -7477619.09546  23567804.688    23567813.540
  20233616.475   -28254333.95549 -21952546.15848  20233615.959    20233619.909
  24521044.775    -4715959.68549  -3657952.99645  24521044.354    24521050.350
  21676997.070   -19663141.91849 -15095226.77447  21676996.308    21677003.094
  22617472.113   -15569314.91849 -11564992.55646  22617471.660    22617476.493
  22964496.703   -12397486.08849  -9642459.68746  22964496.370    22964504.317
  24112793.298    -4140112.46049  -3213106.82545  24112792.981    24112799.677
 03  4  9  1 33  0.0000000  0  9G23G31G25G14G11G15G18G 3G 9
  23113370.408    -9194739.15849  -7140616.53246  23113369.727    23113376.112
  22887867.577   -10814674.83349  -8393503.53446  22887867.020    22887873.957
  23548953.735   -10006059.11249  -7554810.57845  23548953.539    23548962.346
  20235572.198   -28244056.38649 -21944537.65148  20235571.695    20235575.638
  24502086.868    -4815583.77249  -3735582.07745  24502086.558    24502092.535
  21692510.815   -19581616.84449 -15031700.79747  21692510.048    21692516.831
  22628806.954   -15509749.91849 -11518578.28046  22628806.483    22628811.311
  22977173.390   -12330869.83649  -9590550.99246  22977173.104    22977181.022
  24126591.133    -4067604.49549  -3156607.12445  24126590.769    24126597.487
 03  4  9  1 33 30.0000000  0  9G23G31G25G14G11G15G18G 3G 9
  23123121.336    -9143497.42049  -7100687.92146  23123120.687    23123127.098
  22894098.871   -10781929.43649  -8367987.68046  22894098.306    22894105.248
  23530117.691   -10105042.61249  -7631940.42045  23530117.480    23530126.250
  20237615.565   -28233318.38049 -21936170.36548  20237615.061    20237618.984
  24483147.992    -4915107.62049  -3813133.02545  24483147.610    24483153.834
  21708095.795   -19499717.47349 -14967883.15547  21708095.038    21708101.830
  22640163.004   -15450073.29249 -11472077.03346  22640162.582    22640167.414
  22989903.344   -12263973.85149  -9538424.31446  22989903.041    22989910.890
  24140477.669    -3994630.13449  -3099743.97545  24140477.265    24140484.033
 03  4  9  1 34  0.0000000  0  9G23G31G25G14G11G15G18G 3G 9
  23132885.192    -9092188.17949  -7060706.71246  23132884.557    23132890.909
  22900420.524   -10748709.03749  -8342101.69746  22900419.959    22900426.927
  23511297.087   -10203944.84249  -7709006.95045  23511296.868    23511305.594
  20239746.192   -28222121.92349 -21927445.84248  20239745.666    20239749.605
  24464228.485    -5014529.57249  -3890604.59345  24464228.078    24464234.436
  21723751.661   -19417445.70249 -14903775.33047  21723750.900    21723757.682
  22651540.264   -15390285.52549 -11425489.16846  22651539.825    22651544.674
  23002685.909   -12196801.49049  -9486082.28146  23002685.552    23002693.394
  24154452.502    -3921192.18749  -3042519.58445  24154452.200    24154458.822
 03  4  9  1 34 30.0000000  0  9G23G31G25G14G11G15G18G 3G 9
  23142661.940    -9040810.97849  -7020672.54246  23142661.259    23142667.648
  22906832.240   -10715015.62849  -8315847.13446  22906831.660    22906838.612
  23492492.483   -10302763.07349  -7786008.02745  23492492.266    23492500.902
  20241963.760   -28210468.40049 -21918365.16548  20241963.260    20241967.198
  24445328.795    -5113847.83549  -3967995.36245  24445328.431    24445334.833
  21739478.067   -19334803.07449 -14839378.52647  21739477.303    21739484.078
  22662938.782   -15330386.69749 -11378814.76946  22662938.254    22662943.089
  23015520.475   -12129355.57949  -9433527.08446  23015520.117    23015527.999
  24168515.048    -3847292.92749  -2984935.74345  24168514.777    24168521.260
 03  4  9  1 35  0.0000000  0  9G23G31G25G14G11G15G18G 3G 9
  23152451.713    -8989365.09649  -6980584.85746  23152451.091    23152457.481
  22913333.619   -10680850.87249  -8289225.28946  22913333.089    22913339.998
  23473704.421   -10401494.09149  -7862941.14545  23473704.293    23473712.818
  20244268.162   -28198358.74949 -21908929.06448  20244267.655    20244271.572
  24426449.354    -5213059.52549  -4045303.09145  24426448.931    24426455.403
  21755274.823   -19251790.75649 -14774693.65947  21755274.077    21755280.850
  22674358.347   -15270376.37649 -11332053.50546  22674357.819    22674362.683
  23028406.503   -12061638.81949  -9380760.85546  23028406.126    23028414.100
  24182664.837    -3772934.37149  -2926994.03245  24182664.581    24182671.274
 03  4  9  1 35 30.0000000  0  9G23G31G25G14G11G15G18G 3G 9
  23162254.686    -8937850.31949  -6940443.48746  23162254.055    23162260.414
  22919924.347   -10646216.69749  -8262237.66146  22919923.777    22919930.692
  23454933.513   -10500135.46049  -7939804.42145  23454933.368    23454941.810
  20246659.068   -28185794.36749 -21899138.62848  20246658.580    20246662.507
  24407590.578    -5312162.52049  -4122526.13445  24407590.317    24407596.566
  21771141.609   -19168410.30549 -14709721.94247  21771140.853    21771147.640
  22685799.131   -15210254.51249 -11285205.32346  22685798.609    22685803.549
  23041343.639   -11993653.94349  -9327785.70346  23041343.290    23041351.276
  24196901.818    -3698118.87149  -2868696.25445  24196901.633    24196908.437
 03  4  9  1 36  0.0000000  0  9G23G31G25G14G11G15G18G 3G 9
  23172070.758    -8886266.42649  -6900248.25446  23172070.150    23172076.539
  22926603.844   -10611115.43649  -8234886.07046  22926603.323    22926610.249
  23436180.210   -10598684.61649  -8016595.83146  23436179.980    23436188.362
  20249136.178   -28172777.04349 -21888995.24848  20249135.675    20249139.609
  24388752.911    -5411155.09449  -4199663.14445  24388752.658    24388758.947
  21787078.177   -19084663.33449 -14644464.62047  21787077.400    21787084.216
  22697261.139   -15150020.81549 -11238269.98646  22697260.674    22697265.661
  23054331.176   -11925404.11049  -9274604.09346  23054330.809    23054338.874
  24211225.286    -3622849.00749  -2810044.41445  24211225.098    24211231.732
 03  4  9  1 36 30.0000000  0  9G23G31G25G14G11G15G18G 3G 9
  23181900.151    -8834612.68649  -6859998.59546  23181899.455    23181905.917
  22933372.047   -10575548.76249  -8207171.81746  22933371.547    22933378.408
  23417445.046   -10697138.04349  -8093312.65346  23417444.861    23417453.149
  20251699.293   -28159307.74349 -21878499.68148  20251698.791    20251702.713
  24369936.673    -5510034.61849  -4276712.06245  24369936.454    24369942.732
  21803084.273   -19000550.83449 -14578922.46747  21803083.529    21803090.388
  22708744.447   -15089675.49449 -11191247.67346  22708744.003    22708749.017
  23067368.639   -11856891.70749  -9221217.87946  23067368.313    23067376.389
  24225634.687    -3547126.85449  -2751040.16045  24225634.513    24225641.186
 03  4  9  1 37  0.0000000  0  9G23G31G25G14G11G15G18G 3G 9
  23191742.766    -8782889.29749  -6819694.68446  23191742.081    23191748.544
  22940228.333   -10539519.24749  -8179096.91446  22940227.791    22940234.658
  23398728.351   -10795493.64749  -8169953.24046  23398728.228    23398736.506
  20254348.033   -28145388.39049 -21867653.42748  20254347.537    20254351.471
  24351142.363    -5608799.31749  -4353671.49945  24351142.105    24351148.406
  21819159.552   -18916074.81949 -14513097.07047  21819158.820    21819165.660
  22720248.950   -15029218.81649 -11144138.59146  22720248.509    22720253.565
  23080455.566   -11788120.19749  -9167629.74946  23080455.203    23080463.212
  24240129.571    -3470955.27049  -2691685.67445  24240129.438    24240136.173
 03  4  9  1 37 30.0000000  0  9G23G31G25G14G11G15G18G 3G 9
  23201598.769    -8731095.81049  -6779336.12446  23201598.078    23201604.550
  22947172.219   -10503029.09149  -8150663.06146  22947171.674    22947178.594
  23380030.931   -10893748.92549  -8246515.66646  23380030.752    23380039.009
  20257082.062   -28131020.81549 -21856457.90448  20257081.584    20257085.523
  24332370.270    -5707447.22049  -4430539.94145  24332369.971    24332376.274
  21835303.726   -18831237.01349 -14446989.73547  21835302.994    21835309.820
  22731774.654   -14968650.63849 -11096942.62446  22731774.220    22731779.303
  23093591.275   -11719092.34649  -9113841.89146  23093590.899    23093598.800
  24254709.682    -3394336.65049  -2631982.85945  24254709.464    24254716.237
 03  4  9  1 38  0.0000000  0  9G23G31G25G14G11G15G18G 3G 9
  23211468.200    -8679231.21249  -6738922.17046  23211467.545    23211474.033
  22954203.475   -10466079.82049  -8121871.46246  22954202.906    22954209.830
  23361353.212   -10991900.57249  -8322997.32046  23361352.992    23361361.213
  20259901.297   -28116205.66849 -21844913.63248  20259900.813    20259904.754
  24313620.967    -5805975.30049  -4507315.02245  24313620.650    24313626.876
  21851516.576   -18746038.26249 -14380601.15947  21851515.840    21851522.627
  22743321.801   -14907970.34849 -11049659.30646  22743321.366    22743326.418
  23106775.302   -11649810.42149  -9059856.05546  23106774.883    23106782.819
  24269374.398    -3317273.04449  -2571933.26345  24269374.323    24269381.021
 03  4  9  1 38 30.0000000  0  9G23G31G25G14G11G15G18G 3G 9
  23221351.235    -8627295.81649  -6698453.03846  23221350.533    23221357.062
  22961321.588   -10428674.13649  -8092724.21246  22961321.008    22961327.945
  23342695.610   -11089946.47449  -8399396.59146  23342695.379    23342703.540
  20262805.310   -28100944.90949 -21833022.12348  20262804.822    20262808.742
  24294894.750    -5904382.26249  -4583995.72545  24294894.444    24294900.582
  21867797.714   -18660480.77249 -14313933.04547  21867796.959    21867803.785
  22754890.128   -14847178.51449 -11002289.05646  22754889.658    22754894.732
  23120006.915   -11580278.20049  -9005675.17846  23120006.493    23120014.489
  24284123.241    -3239767.40649  -2511539.23245  24284123.032    24284129.900
 03  4  9  1 39  0.0000000  0  9G23G31G25G14G11G15G18G 3G 9
  23231247.814    -8575288.64349  -6657927.98546  23231247.132    23231253.735
  22968526.251   -10390813.56749  -8063222.51746  22968525.660    22968532.651
  23324058.799   -11187883.08649  -8475710.68746  23324058.531    23324066.748
  20265793.928   -28085239.51449 -21820784.14948  20265793.453    20265797.365
  24276192.107    -6002665.43949  -4660579.98245  24276191.712    24276197.820
  21884146.896   -18574565.47949 -14246986.11747  21884146.131    21884152.995
  22766479.804   -14786274.60849 -10954831.47246  22766479.314    22766484.441
  23133285.696   -11510497.90849  -8951301.00246  23133285.280    23133293.298
  24298955.647    -3161821.63349  -2450802.30045  24298955.423    24298962.429
 03  4  9  1 39 30.0000000  0  9G23G31G25G14G11G15G18G 3G 9
  23241158.149    -8523209.64349  -6617346.95446  23241157.501    23241164.062
  22975816.957   -10352500.75549  -8033368.42746  22975816.343    22975823.349
  23305443.133   -11285708.20949  -8551937.90446  23305442.938    23305451.153
  20268866.773   -28069091.55149 -21808201.31148  20268866.286    20268870.200
  24257513.389    -6100822.58149  -4737066.01545  24257512.954    24257519.005
  21900563.753   -18488294.31949 -14179761.88947  21900563.006    21900569.912
  22778090.767   -14725258.82849 -10907286.73846  22778090.326    22778095.412
  23146611.120   -11440472.79349  -8896736.04746  23146610.695    23146618.725
  24313871.477    -3083438.48949  -2389724.52145  24313871.297    24313878.183
 03  4  9  1 40  0.0000000  0  9G23G31G25G14G11G15G18G 3G 9
  23251082.227    -8471057.97149  -6576709.28746  23251081.611    23251088.197
  22983193.352   -10313737.62349  -8003163.42646  22983192.757    22983199.801
  23286849.291   -11383418.51749  -8628075.65846  23286849.130    23286857.371
  20272023.637   -28052502.12149 -21795274.47648  20272023.150    20272027.061
  24238859.089    -6198851.57349  -4813452.20445  24238858.638    24238864.628
  21917048.064   -18401668.66349 -14112261.41947  21917047.334    21917054.328
  22789723.092   -14664130.86649 -10859654.56446  22789722.693    22789727.651
  23159982.622   -11370205.61849  -8841982.48946  23159982.178    23159990.245
  24328870.065    -3004620.23549  -2328307.71045  24328869.854    24328876.810
 03  4  9  1 40 30.0000000  0  9G23G31G25G14G11G15G18G 3G 9
  23261020.283    -8418833.25049  -6536014.72346  23261019.641    23261026.163
  22990655.073   -10274526.05249  -7972609.00046  22990654.491    22990661.510
  23268277.843   -11481011.39749  -8704121.91646  23268277.717    23268285.981
  20275264.277   -28035472.42649 -21782004.57848  20275263.777    20275267.704
  24220229.627    -6296749.85049  -4889736.53445  24220229.055    24220235.080
  21933599.610   -18314689.85349 -14044485.77447  21933598.875    21933605.913
  22801376.879   -14602890.39649 -10811934.73746  22801376.415    22801381.318
  23173399.633   -11299698.98549  -8787042.33246  23173399.180    23173407.266
  24343951.167    -2925369.36649  -2266553.82045  24343950.874    24343957.924
 03  4  9  1 41  0.0000000  0  9G23G31G25G14G11G15G18G 3G 9
  23270972.089    -8366536.12249  -6495263.72046  23270971.452    23270977.917
  22998201.524   -10234869.24949  -7941707.64346  22998200.927    22998208.021
  23249729.225   -11578484.66949  -8780074.96146  23249729.127    23249737.299
  20278588.182   -28018005.16949 -21768393.72048  20278587.696    20278591.627
  24201625.229    -6394516.03149  -4965917.91545  24201624.634    24201630.744
  21950217.867   -18227360.48249 -13976436.96247  21950217.141    21950224.189
  22813051.844   -14541538.05249 -10764127.72246  22813051.403    22813056.307
  23186861.528   -11228956.55849  -8731918.45946  23186861.070    23186869.252
  24359113.941    -2845688.87149  -2204465.12345  24359113.696    24359120.501
 03  4  9  1 41 30.0000000  0  8G23G31G25G14G11G15G18G 3
  23280938.069    -8314164.69549  -6454454.83046  23280937.432    23280943.849
  23005832.572   -10194768.06149  -7910460.00946  23005831.964    23005839.063
  23231204.144   -11675834.56149  -8855931.88046  23231203.972    23231212.088
  20281995.326   -28000100.44049 -21754441.97848  20281994.827    20281998.741
  24183046.632    -6492146.63449  -5041993.62445  24183046.006    24183052.318
  21966902.808   -18139680.81149 -13908115.19747  21966902.070    21966909.125
  22824748.327   -14480072.78349 -10716232.71946  22824747.916    22824752.764
  23200367.917   -11157980.03449  -8676612.15746  23200367.499    23200375.734
 03  4  9  1 42  0.0000000  0  8G23G31G25G14G11G15G18G 3
  23290918.033    -8261719.68149  -6413588.60646  23290917.413    23290923.795
  23013547.545   -10154225.83749  -7878868.71446  23013546.953    23013554.044
  23212702.776   -11773059.47549  -8931691.38346  23212702.571    23212710.690
  20285485.134   -27981761.19949 -21740151.64648  20285484.641    20285488.569
  24164494.056    -6589640.54449  -5117962.82345  24164493.480    24164499.635
  21983653.898   -18051653.39249 -13839522.46147  21983653.164    21983660.205
  22836466.128   -14418495.45049 -10668250.39346  22836465.674    22836470.536
  23213918.046   -11086773.60349  -8621126.71446  23213917.689    23213925.961
 03  4  9  1 42 30.0000000  0  8G23G31G25G14G11G15G18G 3
  23300912.076    -8209200.39049  -6372664.49746  23300911.525    23300917.909
  23021346.036   -10113244.43049  -7846935.19246  23021345.474    23021352.537
  23194225.822   -11870155.99549  -9007350.87846  23194225.622    23194233.674
  20289057.481   -27962988.30549 -21725523.40848  20289057.008    20289060.922
  24145967.933    -6686995.22149  -5193823.54745  24145967.514    24145973.584
  22000470.954   -17963279.29749 -13770659.57247  22000470.231    22000477.272
  22848205.304   -14356805.46149 -10620180.28446  22848204.827    22848209.714
  23227511.507   -11015339.71349  -8565464.03146  23227511.188    23227519.446
 03  4  9  1 43  0.0000000  0  8G23G31G25G14G11G15G18G 3
  23310920.445    -8156605.98949  -6331681.85646  23310919.925    23310926.324
  23029227.741   -10071825.87149  -7814661.04046  23029227.198    23029234.278
  23175773.888   -11967121.21249  -9082908.03746  23175773.696    23175781.647
  20292712.122   -27943783.05449 -21710558.26848  20292711.628    20292715.560
  24127468.850    -6784208.02649  -5269573.72545  24127468.510    24127474.604
  22017353.689   -17874560.08149 -13701527.76746  22017352.924    22017359.997
  22859966.063   -14295002.32649 -10572022.00846  22859965.575    22859970.473
  23241147.748   -10943680.93649  -8509626.11746  23241147.448    23241155.703
 03  4  9  1 43 30.0000000  0  8G23G31G25G14G11G15G18G 3
  23320943.162    -8103936.42949  -6290640.65746  23320942.627    23320949.036
  23037192.131   -10029972.75949  -7782048.26946  23037191.624    23037198.695
  23157347.450   -12063952.54949  -9158360.87946  23157347.242    23157355.110
  20296448.604   -27924147.51449 -21695257.83148  20296448.111    20296452.052
  24108997.157    -6881277.11949  -5345211.90445  24108996.838    24109002.945
  22034301.682   -17785497.67049 -13632128.52146  22034300.941    22034308.077
  22871748.219   -14233086.65849 -10523776.05446  22871747.708    22871752.686
  23254826.160   -10871800.70249  -8453615.62446  23254825.859    23254834.120
 03  4  9  1 44  0.0000000  0  8G23G31G25G14G11G15G18G 3
  23330980.218    -8051191.47749  -6249540.70946  23330979.659    23330986.125
  23045238.784    -9987687.46449  -7749098.73746  23045238.274    23045245.360
  23138946.915   -12160647.45349  -9233707.40946  23138946.681    23138954.532
  20300266.696   -27904083.24949 -21679623.32648  20300266.208    20300270.150
  24090553.223    -6978200.23149  -5420736.31345  24090552.907    24090559.104
  22051314.685   -17696093.75049 -13562463.15646  22051313.983    22051321.144
  22883551.799   -14171058.31449 -10475442.29446  22883551.297    22883556.236
  23268546.155   -10799701.83849  -8397434.79546  23268545.880    23268554.121
 03  4  9  1 44 30.0000000  0  8G23G31G25G14G11G15G18G 3
  23341031.779    -7998370.39349  -6208381.43946  23341031.210    23341037.629
  23053367.254    -9944972.20349  -7715814.17246  23053366.726    23053373.878
  23120572.860   -12257203.08749  -9308945.41246  23120572.651    23120580.439
  20304166.060   -27883591.78649 -21663655.94248  20304165.579    20304169.521
  24072137.584    -7074974.73149  -5496144.94045  24072137.306    24072143.537
  22068392.421   -17606349.89249 -13492532.92346  22068391.720    22068398.869
  22895376.922   -14108916.99149 -10427020.50646  22895376.411    22895381.337
  23282307.363   -10727387.18849  -8341085.79946  23282307.024    23282315.246
 03  4  9  1 45  0.0000000  0  8G23G31G25G14G11G15G18G 3
  23351097.872    -7945472.94149  -6167162.65946  23351097.292    23351103.710
  23061577.120    -9901829.42649  -7682196.46246  23061576.583    23061583.711
  23102225.759   -12353616.88549  -9384072.90146  23102225.602    23102233.304
  20308146.404   -27862674.93849 -21647357.08648  20308145.923    20308149.866
  24053750.553    -7171598.98149  -5571436.49145  24053750.266    24053756.489
  22085534.456   -17516268.06249 -13422339.33346  22085533.753    22085540.925
  22907223.531   -14046662.60949 -10378510.61146  22907223.059    22907227.989
  23296108.924   -10654859.87649  -8284571.10746  23296108.539    23296116.860
 03  4  9  1 45 30.0000000  0  8G23G31G25G14G11G15G18G 3
  23361178.600    -7892498.34149  -6125883.76746  23361177.973    23361184.418
  23069867.854    -9858261.16449  -7648247.22146  23069867.333    23069874.534
  23083906.367   -12449885.35049  -9459087.13446  23083906.145    23083913.855
  20312207.495   -27841333.84149 -21630727.65148  20312207.012    20312210.948
  24035392.586    -7268070.06049  -5646608.68045  24035392.394    24035398.481
  22102740.523   -17425849.57849 -13351883.41746  22102739.842    22102747.010
  22919091.665   -13984294.98249 -10329912.48446  22919091.213    22919096.119
  23309950.420   -10582122.27849  -8227892.55746  23309950.117    23309958.426
 03  4  9  1 46  0.0000000  0  8G23G31G25G14G11G15G18G 3
  23371274.091    -7839446.23349  -6084544.48046  23371273.514    23371279.928
  23078239.174    -9814269.86049  -7613968.32546  23078238.648    23078245.866
  23065615.118   -12546005.86649  -9533986.09746  23065614.907    23065622.566
  20316348.909   -27819570.38749 -21613769.10948  20316348.425    20316352.368
  24017064.189    -7364385.81649  -5721659.85145  24017063.973    24017070.086
  22120010.361   -17335096.20049 -13281166.54046  22120009.676    22120016.797
  22930981.345   -13921814.14649 -10281226.13246  22930980.883    22930985.853
  23323831.372   -10509177.57149  -8171052.61446  23323831.048    23323839.449
 03  4  9  1 46 30.0000000  0  8G23G31G25G14G11G15G18G 3
  23381384.463    -7786316.31649  -6043144.55846  23381383.875    23381390.223
  23086690.502    -9769858.07749  -7579361.79246  23086689.937    23086697.212
  23047352.509   -12641976.01149  -9608767.88346  23047352.281    23047359.934
  20320570.348   -27797386.51249 -21596482.96648  20320569.882    20320573.828
  23998765.833    -7460544.39749  -5796588.55245  23998765.540    23998771.683
  22137343.591   -17244009.76949 -13210190.15046  22137342.876    22137350.021
  22942892.672   -13859219.98749 -10232451.47746  22942892.197    22942897.119
  23337751.168   -10436028.88949  -8114053.73146  23337750.821    23337759.269
 03  4  9  1 47  0.0000000  0  8G23G31G25G14G11G15G18G 3
  23391509.549    -7733108.82949  -6001684.19646  23391508.895    23391515.279
  23095221.251    -9725028.83649  -7544429.97046  23095220.701    23095227.986
  23029118.833   -12737793.86549  -9683430.99646  23029118.623    23029126.250
  20324871.372   -27774784.34949 -21578870.88348  20324870.895    20324874.873
  23980497.773    -7556543.83049  -5871393.24845  23980497.417    23980503.504
  22154739.723   -17152592.71149 -13138956.12246  22154738.953    22154746.146
  22954825.402   -13796512.93549 -10183588.85746  22954824.945    22954829.926
  23351709.110   -10362679.75349  -8056898.63946  23351708.778    23351717.219
 03  4  9  1 47 30.0000000  0  8G23G31G25G14G11G15G18G 3
  23401649.734    -7679822.03949  -5960162.03646  23401649.085    23401655.495
  23103831.265    -9679783.08749  -7509173.58846  23103830.731    23103837.992
  23010915.027   -12833455.14149  -9757972.11346  23010914.805    23010922.373
  20329252.025   -27751763.94849 -21560932.91048  20329251.532    20329255.485
  23962260.696    -7652380.57649  -5946071.17245  23962260.302    23962266.337
  22172198.732   -17060845.28049 -13067464.66846  22172197.996    22172205.164
  22966779.923   -13733691.70749 -10134637.27846  22966779.429    22966784.347
  23365704.880   -10289131.78249  -7999588.62646  23365704.530    23365713.032
 03  4  9  1 48  0.0000000  0  8G23G31G25G14G11G15G18G 3
  23411804.866    -7626456.60749  -5918578.60346  23411804.136    23411810.616
  23112519.821    -9634124.57749  -7473595.57446  23112519.276    23112526.547
  22992741.340   -12928958.06149  -9832389.82346  22992741.137    22992748.659
  20333711.620   -27728328.51749 -21542671.53148  20333711.135    20333715.105
  23944054.727    -7748053.44549  -6020621.39745  23944054.337    23944060.336
  22189720.101   -16968770.22549 -12995717.90746  22189719.367    22189726.499
  22978756.045   -13670757.23549 -10085597.44746  22978755.489    22978760.416
  23379737.674   -10215389.08249  -7942126.87446  23379737.325    23379745.797
 03  4  9  1 48 30.0000000  0  8G23G31G25G14G11G15G18G 3
  23421975.072    -7573011.71849  -5876933.25046  23421974.405    23421980.894
  23121286.573    -9588055.23449  -7437697.43946  23121286.007    23121293.310
  22974598.266   -13024299.71949  -9906681.87246  22974598.058    22974605.564
  20338249.963   -27704479.24449 -21524087.67648  20338249.493    20338253.484
  23925880.385    -7843559.96849  -6095041.99945  23925880.088    23925885.958
  22207303.527   -16876369.04149 -12923717.02546  22207302.764    22207309.904
  22990753.669   -13607708.93849 -10036468.91446  22990753.173    22990758.155
  23393807.109   -10141454.24449  -7884515.39046  23393806.785    23393815.176
 03  4  9  1 49  0.0000000  0  8G23G31G25G14G11G15G18G 3
  23432160.616    -7519486.39649  -5835225.22746  23432159.934    23432166.410
  23130131.103    -9541576.87849  -7401480.58946  23130130.574    23130137.928
  22956486.479   -13119476.98749  -9980845.83346  22956486.276    22956493.788
  20342866.886   -27680217.09949 -21505182.10848  20342866.417    20342870.403
  23907738.389    -7938897.10949  -6169330.63145  23907737.948    23907743.819
  22224948.645   -16783643.23449 -12851463.20746  22224947.899    22224955.051
  23002773.113   -13544546.23849  -9987251.23846  23002772.642    23002777.677
  23407912.668   -10067329.64649  -7826756.04946  23407912.339    23407920.702
 03  4  9  1 49 30.0000000  0  8G23G31G25G14G11G15G18G 3
  23442361.462    -7465880.67749  -5793454.56746  23442360.801    23442367.211
  23139052.974    -9494692.61549  -7364947.45046  23139052.407    23139059.769
  22938406.532   -13214487.07849 -10054879.52146  22938406.322    22938413.792
  20347561.921   -27655544.42349 -21485956.64548  20347561.456    20347565.431
  23889628.859    -8034063.09849  -6243485.87245  23889628.425    23889634.300
  22242655.131   -16690595.02349 -12778958.16646  22242654.381    22242661.634
  23014814.317   -13481269.55349  -9937944.75746  23014813.796    23014818.820
  23422053.693    -9993018.63149  -7768851.45046  23422053.390    23422061.685
 03  4  9  1 50  0.0000000  0  8G23G31G25G14G11G15G18G 3
  23452577.649    -7412194.30949  -5751621.04346  23452577.028    23452583.379
  23148051.500    -9447405.19649  -7328100.15246  23148050.917    23148058.280
  22920358.874   -13309327.78549 -10128781.22046  22920358.596    22920366.069
  20352334.723   -27630463.37149 -21466412.96448  20352334.242    20352338.212
  23871552.250    -8129055.94849  -6317506.20745  23871551.858    23871557.722
  22260422.607   -16597226.43749 -12706203.48046  22260421.861    22260429.133
  23026877.166   -13417879.12249  -9888549.63446  23026876.646    23026881.639
  23436229.568    -9918524.52849  -7710804.17946  23436229.236    23436237.537
 03  4  9  1 50 30.0000000  0  8G23G31G25G14G11G15G18G 3
  23462809.349    -7358426.09549  -5709723.74946  23462808.745    23462815.201
  23157126.386    -9399716.24849  -7290939.98546  23157125.885    23157133.222
  22902344.079   -13403995.70349 -10202548.27746  22902343.788    22902351.226
  20357185.018   -27604974.71649 -21446551.67848  20357184.534    20357188.511
  23853509.260    -8223872.25549  -6391388.97745  23853508.899    23853514.763
  22278250.930   -16503538.23149 -12633199.73146  22278250.208    22278257.484
  23038961.804   -13354373.84049  -9839065.02346  23038961.369    23038966.362
  23450439.796    -9843849.38049  -7652615.85246  23450439.499    23450447.912
 03  4  9  1 51  0.0000000  0  8G23G31G25G14G11G15G18G 3
  23473056.680    -7304576.10149  -5667762.73846  23473056.081    23473062.533
  23166277.168    -9351628.73749  -7253469.25146  23166276.650    23166284.041
  22884362.532   -13498488.45049 -10276178.83446  22884362.236    22884369.673
  20362112.504   -27579080.63949 -21426374.47348  20362112.003    20362116.000
  23835500.102    -8318510.62649  -6465133.10545  23835499.727    23835505.437
  22296139.617   -16409532.68349 -12559948.70246  22296138.904    22296146.144
  23051068.229   -13290754.12249  -9789491.22946  23051067.738    23051072.780
  23464683.788    -9768996.79249  -7594289.24546  23464683.517    23464691.931
 03  4  9  1 51 30.0000000  0  8G23G31G25G14G11G15G18G 3
  23483319.667    -7250643.82449  -5625737.60746  23483319.056    23483325.582
  23175503.192    -9303145.40449  -7215690.08246  23175502.713    23175510.122
  22866414.927   -13592803.17949 -10349670.67646  22866414.671    22866422.024
  20367116.721   -27552783.11849 -21405882.89348  20367116.229    20367120.246
  23817525.326    -8412968.77549  -6538736.79445  23817524.881    23817530.527
  22314088.350   -16315211.80549 -12486451.96546  22314087.618    22314094.877
  23063196.388   -13227020.14149  -9739828.41346  23063195.922    23063200.950
  23478961.116    -9693969.65349  -7535826.63746  23478960.813    23478969.168
 03  4  9  1 52  0.0000000  0  8G23G31G25G14G11G15G18G 3
  23493598.396    -7196628.95849  -5583648.13046  23493597.721    23493604.367
  23184804.176    -9254268.58849  -7177604.30046  23184803.665    23184811.098
  22848501.687   -13686937.15549 -10423021.68046  22848501.462    22848508.770
  20372197.455   -27526083.65749 -21385078.11148  20372196.972    20372200.982
  23799585.333    -8507244.14249  -6612198.07345  23799584.860    23799590.446
  22332096.741   -16220577.29649 -12412710.84246  22332095.982    22332103.291
  23075346.352   -13163171.78149  -9690076.46446  23075345.840    23075350.925
  23493271.060    -9618771.02249  -7477230.38546  23493270.757    23493279.036
 03  4  9  1 52 30.0000000  0  8G23G31G25G14G11G15G18G 3
  23503892.892    -7142530.73849  -5541493.68046  23503892.284    23503898.992
  23194179.643    -9205000.58449  -7139213.69446  23194179.104    23194186.532
  22830623.397   -13780887.71249 -10496229.75146  22830623.168    22830630.391
  20377354.374   -27498983.86849 -21363961.38348  20377353.881    20377357.900
  23781680.593    -8601334.15549  -6685514.89445  23781680.086    23781685.616
  22350164.519   -16125630.76849 -12338726.58546  22350163.773    22350171.071
  23087518.196   -13099208.40149  -9640234.88946  23087517.703    23087522.761
  23507613.073    -9543403.46749  -7418502.52546  23507612.748    23507621.157
 03  4  9  1 53  0.0000000  0  8G23G31G25G14G11G15G18G 3
  23514203.269    -7088349.31049  -5499274.40246  23514202.636    23514209.327
  23203628.903    -9155344.45649  -7100520.66746  23203628.372    23203635.781
  22812780.463   -13874652.18049 -10569292.83046  22812780.281    22812787.445
  20382587.036   -27471485.99849 -21342534.46448  20382586.559    20382590.559
  23763811.378    -8695237.00949  -6758685.89945  23763810.937    23763816.398
  22368291.165   -16030374.54949 -12264501.02146  22368290.405    22368297.781
  23099711.918   -13035130.34649  -9590303.95346  23099711.452    23099716.399
  23521986.534    -9467870.38049  -7359645.66145  23521986.257    23521994.746
 03  4  9  1 53 30.0000000  0  8G23G31G25G14G11G15G18G 3
  23524529.692    -7034083.53449  -5456989.40046  23524529.087    23524535.833
  23213151.648    -9105302.27249  -7061526.81046  23213151.100    23213158.518
  22794973.535   -13968227.34049 -10642208.40246  22794973.379    22794980.515
  20387895.189   -27443591.42049 -21320798.42148  20387894.694    20387898.720
  23745978.338    -8788949.77649  -6831708.77145  23745977.942    23745983.426
  22386476.522   -15934809.94949 -12190035.15946  22386475.776    22386483.197
  23111927.446   -12970937.21649  -9540283.33946  23111926.996    23111931.945
  23536391.090    -9392174.14549  -7300661.67645  23536390.826    23536399.420
 03  4  9  1 54  0.0000000  0  8G23G31G25G14G11G15G18G 3
  23534872.274    -6979732.85549  -5414638.24346  23534871.657    23534878.410
  23222747.360    -9054876.51649  -7022234.06646  23222746.867    23222754.255
  22777203.257   -14061610.26849 -10714974.19146  22777203.111    22777210.165
  20393278.598   -27415301.49249 -21298754.31848  20393278.097    20393282.116
  23728181.872    -8882470.23749  -6904581.79345  23728181.502    23728187.001
  22404720.208   -15838938.79249 -12115330.42246  22404719.505    22404726.943
  23124164.972   -12906628.85749  -9490172.95446  23124164.514    23124169.479
  23550826.229    -9316317.67549  -7241552.83545  23550825.863    23550834.533
 03  4  9  1 54 30.0000000  0  8G23G31G25G14G11G15G18G 3
  23545230.994    -6925297.40749  -5372221.02546  23545230.406    23545237.130
  23232415.596    -9004070.23149  -6982644.81046  23232415.004    23232422.432
  22759469.940   -14154798.87449 -10787588.55446  22759469.787    22759476.829
  20398736.717   -27386618.70549 -21276404.08548  20398736.219    20398740.234
  23710422.359    -8975796.37349  -6977303.38045  23710422.017    23710427.594
  22423021.871   -15742763.38149 -12040388.60246  22423021.165    22423028.581
  23136424.445   -12842205.28749  -9439972.78646  23136423.997    23136428.875
  23565290.984    -9240304.71549  -7182322.04345  23565290.689    23565299.421
 03  4  9  1 55  0.0000000  0  8G23G31G25G14G11G15G18G 3
  23555606.149    -6870776.39949  -5329737.13746  23555605.484    23555612.180
  23242155.694    -8952885.79049  -6942760.88246  23242155.121    23242162.502
  22741774.105   -14247790.34749 -10860049.32046  22741773.948    22741780.985
  20404269.354   -27357544.55849 -21253748.90048  20404268.859    20404272.885
  23692700.368    -9068925.58549  -7049871.51545  23692700.095    23692705.701
  22441381.143   -15646285.29649 -11965210.92646  22441380.405    22441387.823
  23148705.853   -12777666.21149  -9389682.62346  23148705.404    23148710.311
  23579785.109    -9164137.74249  -7122971.24845  23579784.794    23579793.576
 03  4  9  1 55 30.0000000  0  8G23G31G25G14G11G15G18G 3
  23565997.425    -6816169.68849  -5287186.47046  23565996.820    23566003.474
  23251967.177    -8901326.04349  -6902584.52246  23251966.598    23251974.017
  22724116.276   -14340581.94449 -10932354.33746  22724116.132    22724123.215
  20409876.020   -27328081.13849 -21230790.38648  20409875.537    20409879.554
  23675016.285    -9161855.88549  -7122284.66645  23675016.058    23675021.686
  22459797.568   -15549506.73949 -11889799.11246  22459796.806    22459804.181
  23161009.083   -12713012.02749  -9339302.76046  23161008.687    23161013.573
  23594307.943    -9087819.94849  -7063502.95046  23594307.680    23594316.423
 03  4  9  1 56  0.0000000  0  8G23G31G25G14G11G15G18G 3
  23576405.196    -6761476.38849  -5244568.34046  23576404.645    23576411.249
  23261849.666    -8849393.19449  -6862117.42646  23261849.097    23261856.586
  22706497.123   -14433170.46749 -11004501.10646  22706496.999    22706504.090
  20415556.522   -27298229.85449 -21207529.63848  20415556.035    20415560.041
  23657370.720    -9254584.19849  -7194540.44545  23657370.423    23657375.989
  22478270.823   -15452429.36049 -11814154.45146  22478270.077    22478277.417
  23173334.477   -12648241.94249  -9288832.57246  23173333.984    23173338.948
  23608859.075    -9011353.91949  -7003919.12946  23608858.767    23608867.571
 03  4  9  1 56 30.0000000  0  8G23G31G25G14G11G15G18G 3
  23586829.482    -6706696.32949  -5201882.58945  23586828.948    23586835.490
  23271802.620    -8797090.23149  -6821361.93246  23271802.087    23271809.574
  22688917.109   -14525553.86849 -11076488.06246  22688916.950    22688924.031
  20421310.433   -27267992.87949 -21183968.35848  20421309.951    20421313.943
  23639763.881    -9347108.76649  -7266637.45446  23639763.543    23639769.085
  22496800.544   -15355055.20349 -11738278.54046  22496799.769    22496807.105
  23185681.727   -12583356.06349  -9238272.17246  23185681.336    23185686.356
  23623437.742    -8934742.66349  -6944222.14046  23623437.524    23623446.313
 03  4  9  1 57  0.0000000  0  8G23G31G25G14G11G15G18G 3
  23597270.401    -6651828.96349  -5159128.82345  23597269.880    23597276.447
  23281825.635    -8744419.61549  -6780319.96546  23281825.058    23281832.504
  22671376.686   -14617729.04449 -11148312.75346  22671376.513    22671383.563
  20427137.466   -27237371.67349 -21160107.67148  20427136.967    20427140.965
  23622196.254    -9439427.15849  -7338573.80946  23622195.904    23622201.434
  22515386.349   -15257386.12249 -11662172.80746  22515385.613    22515392.971
  23198051.298   -12518354.23949  -9187621.41946  23198050.853    23198055.818
  23638043.600    -8857989.18749  -6884414.34046  23638043.283    23638052.106
 03  4  9  1 57 30.0000000  0  8G23G31G25G14G11G15G18G 3
  23607728.017    -6596873.77049  -5116306.61545  23607727.441    23607734.094
  23291918.079    -8691383.97049  -6738993.53446  23291917.510    23291924.890
  22653876.432   -14709693.34449 -11219973.12746  22653876.248    22653883.237
  20433037.242   -27206368.15249 -21135949.07848  20433036.753    20433040.728
  23604668.208    -9531536.94449  -7410347.61246  23604667.918    23604673.423
  22534027.968   -15159423.93349 -11585838.68046  22534027.227    22534034.589
  23210442.772   -12453236.44549  -9136880.31346  23210442.305    23210447.343
  23652675.928    -8781096.50949  -6824498.06546  23652675.553    23652684.428
 03  4  9  1 58  0.0000000  0  8G23G31G25G14G11G15G18G 3
  23618202.501    -6541830.33149  -5073415.65845  23618201.919    23618208.533
  23302079.439    -8637986.09649  -6697384.86846  23302078.865    23302086.206
  22636416.808   -14801444.00049 -11291467.04246  22636416.595    22636423.532
  20439009.412   -27174984.25249 -21111494.08948  20439008.919    20439012.881
  23587180.313    -9623435.84349  -7481957.07646  23587180.055    23587185.612
  22552725.009   -15061170.56749 -11509277.66446  22552724.274    22552731.630
  23222856.339   -12388002.36649  -9086048.58146  23222855.861    23222860.982
  23667334.082    -8704067.59749  -6764475.64445  23667333.766    23667342.703
 03  4  9  1 58 30.0000000  0  8G23G31G25G14G11G15G18G 3
  23628693.804    -6486697.98649  -5030455.41545  23628693.246    23628699.905
  23312309.240    -8584228.39149  -6655495.79046  23312308.714    23312315.953
  22618998.408   -14892977.90749 -11362792.04546  22618998.184    22619005.085
  20445053.631   -27143221.63649 -21086743.99148  20445053.124    20445057.112
  23569733.211    -9715120.74849  -7553399.79746  23569732.953    23569738.478
  22571477.106   -14962627.85949 -11432491.20046  22571476.361    22571483.732
  23235292.086   -12322651.97849  -9035126.24246  23235291.622    23235296.712
  23682017.664    -8626905.09849  -6704349.11345  23682017.360    23682026.327
 03  4  9  1 59  0.0000000  0  8G23G31G25G14G11G15G18G 3
  23639202.117    -6431476.66049  -4987425.82645  23639201.571    23639208.161
  23322606.934    -8530113.82449  -6613328.65146  23322606.406    23322613.697
  22601621.726   -14984292.39949 -11433946.08546  22601621.513    22601628.391
  20451169.541   -27111082.37149 -21061700.40948  20451169.030    20451173.018
  23552327.135    -9806590.29949  -7624674.71046  23552326.863    23552332.382
  22590283.811   -14863797.98849 -11355480.96546  22590283.092    22590290.497
  23247750.054   -12257185.38549  -8984113.33946  23247749.568    23247754.642
  23696726.155    -8549612.25349  -6644121.02545  23696725.858    23696734.751
 03  4  9  1 59 30.0000000  0  8G23G31G25G14G11G15G18G 3
  23649727.453    -6376165.65749  -4944326.36145  23649726.894    23649733.456
  23332972.048    -8475645.00749  -6570885.47446  23332971.540    23332978.897
  22584287.219   -15075385.38549 -11504927.52546  22584287.024    22584293.859
  20457356.785   -27078568.12749 -21036364.62848  20457356.277    20457360.262
  23534962.503    -9897841.64949  -7695779.59946  23534962.165    23534967.833
  22609144.858   -14764682.58149 -11278248.23246  22609144.105    22609151.600
  23260230.103   -12191602.19849  -8933009.58046  23260229.619    23260234.729
  23711458.819    -8472191.93949  -6583793.60545  23711458.489    23711467.423
 03  4  9  2  0  0.0000000  0  8G23G31G25G14G11G15G18G 3
  23660269.994    -6320764.79749  -4901156.88345  23660269.346    23660275.902
  23343404.037    -8420824.76549  -6528168.45146  23343403.528    23343410.909
  22566995.396   -15166254.17349 -11575734.25646  22566995.224    22567001.991
  20463614.993   -27045681.01249 -21010738.29748  20463614.475    20463618.477
  23517639.745    -9988872.84149  -7766712.92046  23517639.397    23517645.147
  22628059.740   -14665284.04749 -11200794.88446  22628059.041    22628066.575
  23272732.362   -12125902.32249  -8881814.90746  23272731.903    23272737.042
  23726215.078    -8394647.46149  -6523369.43145  23726214.693    23726223.661
 03  4  9  2  0 30.0000000  0  8G23G31G25G14G11G15G18G 3
  23670829.852    -6265272.71049  -4857916.31545  23670829.166    23670835.687
  23353902.574    -8365655.06549  -6485179.12746  23353902.030    23353909.404
  22549746.957   -15256895.04649 -11646363.40746  22549746.765    22549753.482
  20469943.996   -27012421.94449 -20984822.13948  20469943.483    20469947.471
  23500359.505   -10079680.60649  -7837472.14446  23500359.200    23500364.882
  22647028.372   -14565603.43649 -11123121.73946  22647027.649    22647035.213
  23285257.110   -12060084.93149  -8830528.64246  23285256.602    23285261.702
  23740994.694    -8316980.77349  -6462850.04745  23740994.302    23741003.180
 03  4  9  2  1  0.0000000  0  8G23G31G25G14G11G15G18G 3
  23681407.100    -6209689.32649  -4814604.60745  23681406.383    23681412.873
  23364466.949    -8310139.06149  -6441919.96546  23364466.426    23364473.759
  22532542.315   -15347305.70449 -11716813.16146  22532542.106    22532548.737
  20476343.314   -26978793.27749 -20958617.98348  20476342.793    20476346.767
  23483122.234   -10170262.93849  -7908055.69946  23483121.874    23483127.626
  22666050.215   -14465643.23049 -11045230.71046  22666049.510    22666057.062
  23297803.990   -11994150.55749  -8779151.23846  23297803.507    23297808.587
  23755796.739    -8239195.49849  -6402238.23445  23755796.364    23755805.271
 03  4  9  2  1 30.0000000  0  8G23G31G25G14G11G15G18G 3
  23692001.653    -6154014.61449  -4771221.73145  23692000.929    23692007.422
  23375096.694    -8254279.90949  -6398393.40446  23375096.158    23375103.481
  22515381.873   -15437483.87649 -11787081.75346  22515381.676    22515388.297
  20482812.486   -26944797.48349 -20932127.75048  20482811.984    20482815.941
  23465928.203   -10260617.96249  -7978462.14046  23465927.847    23465933.558
  22685124.761   -14365405.86549 -10967123.72646  22685124.055    22685131.617
  23310373.050   -11928099.42949  -8727682.85846  23310372.615    23310377.737
  23770620.970    -8161294.68349  -6341536.40545  23770620.502    23770629.416
 03  4  9  2  2  0.0000000  0  8G23G31G25G14G11G15G18G 3
  23702613.729    -6098247.96049  -4727767.20345  23702613.033    23702619.469
  23385791.166    -8198080.23349  -6354601.50046  23385790.654    23385797.998
  22498266.232   -15527426.77249 -11857167.01946  22498266.045    22498272.616
  20489351.198   -26910436.18049 -20905352.70948  20489350.698    20489354.671
  23448777.953   -10350742.94049  -8048689.31346  23448777.579    23448783.295
  22704251.727   -14264893.11949 -10888802.15146  22704251.004    22704258.598
  23322964.540   -11861931.14449  -8676123.18445  23322964.088    23322969.113
  23785466.460    -8083281.18349  -6280746.74445  23785466.114    23785474.872
 03  4  9  2  2 30.0000000  0  8G23G31G25G14G11G15G18G 3
  23713243.376    -6042388.67249  -4684240.50145  23713242.744    23713249.115
  23396549.943    -8141542.61149  -6310546.27846  23396549.446    23396556.857
  22481195.956   -15617131.47049 -11927066.68446  22481195.742    22481202.293
  20495959.193   -26875710.94949 -20878294.08748  20495958.683    20495962.651
  23431671.854   -10440635.34449  -8118735.27646  23431671.552    23431677.229
  22723430.819   -14164106.75949 -10810267.34946  22723430.077    22723437.654
  23335578.263   -11795645.48249  -8624472.03845  23335577.726    23335582.821
  23800332.948    -8005157.56849  -6219871.28745  23800332.533    23800341.336
 03  4  9  2  3  0.0000000  0  8G23G31G25G14G11G15G18G 3
  23723890.831    -5986436.48049  -4640641.40445  23723890.142    23723896.532
  23407372.591    -8084669.74849  -6266229.82446  23407372.023    23407379.527
  22464171.423   -15706595.71949 -11996778.97846  22464171.168    22464177.681
  20502636.055   -26840623.76849 -20850953.42648  20502635.541    20502639.531
  23414610.502   -10530292.95049  -8188598.29146  23414610.223    23414615.827
  22742661.598   -14063048.87349 -10731520.97946  22742660.824    22742668.434
  23348214.350   -11729242.26749  -8572729.28945  23348213.938    23348218.916
  23815219.823    -7926927.07449  -6158912.57145  23815219.407    23815228.272
 03  4  9  2  3 30.0000000  0  8G23G31G25G14G11G15G18G 3
  23734555.841    -5930391.16549  -4596969.73745  23734555.209    23734561.601
  23418258.294    -8027464.86449  -6221654.64146  23418257.718    23418265.304
  22447193.124   -15795816.79249 -12066301.79446  22447192.872    22447199.398
  20509381.390   -26805176.80149 -20823332.41448  20509380.891    20509384.878
  23397594.213   -10619713.83249  -8258276.82946  23397593.872    23397599.610
  22761943.518   -13961721.78449 -10652564.83846  22761942.795    22761950.368
  23360872.842   -11662721.76549  -8520895.15845  23360872.395    23360877.375
  23830126.499    -7848592.78649  -6097872.95445  23830126.007    23830134.896
 03  4  9  2  4  0.0000000  0  8G23G31G25G14G11G15G18G 3
  23745238.869    -5874251.17949  -4553224.31645  23745238.284    23745244.749
  23429206.916    -7969929.57149  -6176822.01446  23429206.388    23429213.954
  22430261.768   -15884790.80849 -12135632.09146  22430261.543    22430268.081
  20516194.998   -26769371.07149 -20795431.84248  20516194.484    20516198.479
  23380623.697   -10708894.32249  -8327768.06246  23380623.382    23380628.977
  22781276.525   -13860126.32549 -10573399.59146  22781275.811    22781283.396
  23373553.734   -11596082.76449  -8468968.68045  23373553.316    23373558.370
  23845052.426    -7770156.60649  -6036753.94645  23845051.994    23845060.939
 03  4  9  2  4 30.0000000  0  8G23G31G25G14G11G15G18G 3
  23755939.821    -5818017.15349  -4509405.59945  23755939.325    23755945.678
  23440217.818    -7912067.73349  -6131734.91746  23440217.215    23440224.788
  22413377.848   -15973516.14449 -12204768.61746  22413377.611    22413384.118
  20523076.290   -26733209.45149 -20767253.95148  20523075.780    20523079.778
  23363699.204   -10797833.35249  -8397071.14946  23363698.828    23363704.397
  22800660.026   -13758265.72549 -10494027.74446  22800659.262    22800666.890
  23386257.062   -11529326.33049  -8416950.68645  23386256.752    23386261.694
  23859996.884    -7691622.79949  -5975558.87945  23859996.438    23860005.573
 03  4  9  2  5  0.0000000  0  8G23G31G25G14G11G15G18G 3
  23766658.942    -5761688.12849  -4465512.87345  23766658.394    23766664.840
  23451290.243    -7853881.82949  -6086395.32246  23451289.640    23451297.221
  22396541.774   -16061989.86449 -12273709.07646  22396541.527    22396548.026
  20530025.095   -26696693.25349 -20738799.76548  20530024.600    20530028.587
  23346821.154   -10886527.78149  -8466183.63146  23346820.783    23346826.284
  22820093.611   -13656141.58849 -10414450.53446  22820092.868    22820100.463
  23398982.920   -11462451.80749  -8364840.68145  23398982.571    23398987.519
  23874959.607    -7612993.64649  -5914289.52145  23874959.200    23874968.366
 03  4  9  2  5 30.0000000  0  8G23G31G25G14G11G15G18G 3
  23777396.044    -5705263.84849  -4421545.92145  23777395.541    23777402.103
  23462423.707    -7795374.77949  -6040805.46446  23462423.153    23462430.751
  22379754.095   -16150209.62749 -12342451.65046  22379753.799    22379760.313
  20537040.931   -26659824.70849 -20710071.02248  20537040.433    20537044.437
  23329990.071   -10974975.69849  -8535104.02846  23329989.674    23329995.111
  22839576.905   -13553756.20249 -10334669.77246  22839576.191    22839583.825
  23411731.281   -11395459.12149  -8312638.60145  23411730.936    23411735.801
  23889939.795    -7534272.33949  -5852948.35145  23889939.389    23889948.650
 03  4  9  2  6  0.0000000  0  8G23G31G25G14G11G15G18G 3
  23788151.433    -5648743.61449  -4377504.18145  23788150.956    23788157.633
  23473617.846    -7736549.18249  -5994967.40246  23473617.323    23473624.925
  22363015.189   -16238172.47549 -12410994.02546  22363014.897    22363021.436
  20544123.498   -26622605.60649 -20681069.11348  20544123.000    20544126.998
  23313206.405   -11063174.54249  -8603830.33446  23313205.963    23313211.321
  22859109.574   -13451111.29249 -10254686.76146  22859108.858    22859116.523
  23424502.182   -11328348.09449  -8260344.31645  23424501.775    23424506.682
  23904937.020    -7455461.59549  -5791537.48045  23904936.657    23904945.996
 03  4  9  2  6 30.0000000  0  8G23G31G25G14G11G15G18G 3
  23798925.260    -5592126.73149  -4333387.13245  23798924.727    23798931.390
  23484872.114    -7677407.53749  -5948883.08946  23484871.592    23484879.287
  22346325.734   -16325875.72649 -12479334.12246  22346325.461    22346331.967
  20551272.480   -26585037.39349 -20651795.17348  20551271.961    20551275.985
  23296470.625   -11151121.40249  -8672360.29646  23296470.159    23296475.494
  22878691.326   -13348208.58649 -10174502.88046  22878690.632    22878698.284
  23437295.620   -11261118.30049  -8207957.46245  23437295.159    23437300.081
  23919950.762    -7376563.88249  -5730058.86845  23919950.373    23919959.882
 03  4  9  2  7  0.0000000  0  8G23G31G25G14G11G15G18G 3
  23809717.321    -5535413.58649  -4289195.08345  23809716.876    23809723.666
  23496185.842    -7617953.47949  -5902555.33046  23496185.349    23496193.080
  22329686.061   -16413317.21249 -12547470.24347  22329685.800    22329692.269
  20558487.374   -26547122.87249 -20622251.38048  20558486.846    20558490.888
  23279783.109   -11238814.56049  -8740692.57346  23279782.642    23279787.981
  22898321.551   -13245051.07049 -10094120.44846  22898320.822    22898328.516
  23450111.559   -11193770.20949  -8155478.41045  23450111.056    23450115.954
  23934980.412    -7297582.98149  -5668515.40945  23934979.928    23934989.496
 03  4  9  2  7 30.0000000  0  8G23G31G25G14G11G15G18G 3
  23820528.140    -5478602.91049  -4244927.02645  23820527.662    23820534.447
  23507558.625    -7558189.09149  -5855985.72846  23507558.136    23507565.996
  22313096.886   -16500493.32549 -12615399.59047  22313096.665    22313103.110
  20565767.945   -26508863.02649 -20592438.50448  20565767.425    20565771.475
  23263144.487   -11326251.00149  -8808824.80646  23263144.001    23263149.361
  22918000.063   -13141640.16849 -10013540.57146  22917999.329    22918007.023
  23462950.161   -11126303.23849  -8102906.74745  23462949.638    23462954.502
  23950025.460    -7218521.08549  -5606908.85145  23950025.013    23950034.536
 03  4  9  2  8  0.0000000  0  8G23G31G25G14G11G15G18G 3
  23831357.481    -5421694.68649  -4200582.96345  23831356.905    23831363.765
  23518989.752    -7498117.78849  -5809177.00046  23518989.312    23518997.221
  22296558.596   -16587402.17149 -12683120.66247  22296558.364    22296564.821
  20573113.771   -26470260.39049 -20562358.51848  20573113.270    20573117.335
  23246554.941   -11413429.14749  -8876755.77046  23246554.485    23246559.918
  22937726.306   -13037978.44649  -9932765.23546  22937725.553    22937733.244
  23475811.384   -11058717.52849  -8050242.54546  23475810.815    23475815.724
  23965085.254    -7139381.48549  -5545241.73345  23965084.837    23965094.439
 03  4  9  2  8 30.0000000  0  8G23G31G25G14G11G15G18G 3
  23842205.413    -5364688.29349  -4156162.41045  23842204.865    23842211.732
  23530478.915    -7437742.05349  -5762131.02046  23530478.499    23530486.422
  22280071.748   -16674040.69949 -12750631.10747  22280071.527    22280077.920
  20580524.475   -26431316.67349 -20532012.75848  20580523.980    20580528.047
  23230015.135   -11500345.89349  -8944483.03746  23230014.736    23230020.154
  22957499.900   -12934067.65949  -9851795.82546  22957499.154    22957506.839
  23488695.113   -10991012.93749  -7997485.73145  23488694.594    23488699.496
  23980159.402    -7060166.98249  -5483516.25245  23980158.991    23980168.586
 03  4  9  2  9  0.0000000  0  8G23G31G25G14G11G15G18G 3
  23853072.209    -5307583.32849  -4111665.02845  23853071.632    23853078.421
  23542025.567    -7377064.96249  -5714850.24046  23542025.065    23542033.027
  22263636.857   -16760406.52649 -12817929.05847  22263636.635    22263642.954
  20587999.752   -26392033.82749 -20501402.74048  20587999.265    20588003.328
  23213525.472   -11586999.17049  -9012004.99946  23213525.072    23213530.529
  22977320.484   -12829909.75949  -9770633.86746  22977319.703    22977327.456
  23501601.575   -10923189.35049  -7944636.17545  23501601.030    23501605.899
  23995247.343    -6980880.14449  -5421734.40645  23995246.926    23995256.518
 03  4  9  2  9 30.0000000  0  8G23G31G25G14G11G15G18G 3
  23863957.790    -5250378.63449  -4067089.94245  23863957.296    23863964.068
  23553629.062    -7316088.60249  -5667336.26146  23553628.482    23553636.464
  22247254.441   -16846496.43749 -12885012.00647  22247254.246    22247260.474
  20595539.280   -26352413.14249 -20470529.47248  20595538.795    20595542.864
  23197086.559   -11673386.05449  -9079319.37946  23197086.141    23197091.600
  22997187.811   -12725506.22949  -9689280.51746  22997187.029    22997194.847
  23514530.687   -10855245.95249  -7891693.25845  23514530.140    23514535.106
  24010348.457    -6901523.75649  -5359898.37245  24010348.121    24010357.641
 03  4  9  2 10  0.0000000  0  8G23G31G25G14G11G15G18G 3
  23874862.422    -5193074.52249  -4022437.40245  23874861.867    23874868.602
  23565288.759    -7254816.78249  -5619592.05246  23565288.241    23565296.137
  22230924.863   -16932308.77549 -12951878.66847  22230924.631    22230930.835
  20603142.571   -26312457.55149 -20439395.24048  20603142.092    20603146.158
  23180698.652   -11759504.71549  -9146424.75046  23180698.266    23180703.732
  23017101.380   -12620860.08549  -9607738.10246  23017100.613    23017108.372
  23527482.448   -10787183.54449  -7838657.61345  23527481.984    23527486.946
  24025461.960    -6822101.67749  -5298011.14445  24025461.679    24025471.281
 03  4  9  2 10 30.0000000  0  8G23G31G25G14G11G15G18G 3
  23885786.106    -5135669.97749  -3977706.60945  23885785.554    23885792.281
  23577004.235    -7193251.78349  -5571619.39146  23577003.640    23577011.610
  22214648.700   -17017840.19549 -13018526.43747  22214648.459    22214654.634
  20610809.321   -26272168.40249 -20408001.09648  20610808.824    20610812.923
  23164362.380   -11845352.41049  -9213318.99646  23164362.005    23164367.408
  23037060.812   -12515973.04849  -9526007.98246  23037060.055    23037067.678
  23540457.057   -10719001.40549  -7785528.67745  23540456.641    23540461.631
  24040587.675    -6742615.87749  -5236074.26745  24040587.447    24040597.037
 03  4  9  2 11  0.0000000  0  8G23G31G25G14G11G15G18G 3
  23896728.974    -5078165.03849  -3932897.57645  23896728.359    23896735.097
  23588774.878    -7131396.95249  -5523420.87646  23588774.301    23588782.296
  22198426.314   -17103088.82749 -13084953.84947  22198426.080    22198432.230
  20618539.166   -26231547.65849 -20376348.55748  20618538.693    20618542.776
  23148077.988   -11930927.09449  -9280000.49846  23148077.610    23148082.975
  23057065.552   -12410847.70849  -9444092.15546  23057064.766    23057072.381
  23553454.457   -10650699.63849  -7732306.54145  23553454.002    23553459.013
  24055724.966    -6663069.74649  -5174090.38445  24055724.619    24055734.354
 03  4  9  2 11 30.0000000  0  8G23G31G25G14G11G15G18G 3
  23907691.002    -5020559.12949  -3888009.86045  23907690.370    23907697.143
  23600600.157    -7069255.00849  -5474998.66346  23600599.594    23600607.528
  22182258.321   -17188051.67849 -13151158.57047  22182258.093    22182264.264
  20626331.753   -26190597.43349 -20344439.28548  20626331.248    20626335.321
  23131845.981   -12016226.36449  -9346467.39746  23131845.607    23131850.992
  23077115.243   -12305485.94349  -9361992.10646  23077114.486    23077122.103
  23566474.550   -10582278.34649  -7678991.26145  23566474.090    23566479.246
  24070873.139    -6583465.98449  -5112061.60245  24070872.842    24070882.449
 03  4  9  2 12  0.0000000  0  8G23G31G25G14G11G15G18G 3
  23918672.338    -4962851.55849  -3843042.92545  23918671.718    23918678.477
  23612479.597    -7006828.53949  -5426354.72246  23612479.011    23612486.930
  22166145.318   -17272725.53749 -13217138.10947  22166145.127    22166151.263
  20634186.690   -26149319.56749 -20312274.70748  20634186.180    20634190.245
  23115666.957   -12101247.32249  -9412717.42746  23115666.587    23115671.982
  23097209.611   -12199889.55149  -9279709.24246  23097208.855    23097216.456
  23579517.401   -10513736.91649  -7625582.38245  23579517.000    23579522.286
  24086031.806    -6503807.28949  -5049989.99145  24086031.497    24086041.056
 03  4  9  2 12 30.0000000  0  8G23G31G25G14G11G15G18G 3
  23929673.094    -4905042.07049  -3797996.60445  23929672.552    23929679.145
  23624412.623    -6944120.62849  -5377491.48846  23624412.009    23624419.943
  22150087.723   -17357108.22949 -13282890.76547  22150087.534    22150093.673
  20642103.572   -26107715.79049 -20279856.16548  20642103.069    20642107.147
  23099541.372   -12185987.85849  -9478748.95046  23099540.991    23099546.359
  23117348.267   -12094060.59249  -9197245.13646  23117347.524    23117355.075
  23592583.243   -10445075.17449  -7572079.73745  23592582.815    23592588.207
  24101200.303    -6424096.57549  -4987877.85645  24101200.036    24101209.572
 03  4  9  2 13  0.0000000  0  8G23G31G25G14G11G15G18G 3
  23940693.412    -4847130.62949  -3752870.80245  23940692.793    23940699.307
  23636398.514    -6881134.66749  -5328411.58146  23636397.902    23636405.812
  22134085.960   -17441197.67449 -13348414.91947  22134085.771    22134091.915
  20650082.038   -26065788.65849 -20247185.66648  20650081.536    20650085.603
  23083469.504   -12270445.92749  -9544560.36746  23083469.167    23083474.430
  23137530.547   -11988001.89049  -9114602.03246  23137529.841    23137537.423
  23605671.780   -10376294.02049  -7518484.06845  23605671.394    23605676.861
  24116378.045    -6344337.17849  -4925727.79445  24116377.649    24116387.343
 03  4  9  2 13 30.0000000  0  8G23G31G25G14G11G15G18G 3
  23951733.231    -4789116.07849  -3707664.66545  23951732.610    23951739.101
  23648436.866    -6817872.78549  -5279116.67046  23648436.308    23648444.213
  22118140.693   -17524990.53049 -13413707.96647  22118140.480    22118146.577
  20658121.791   -26023539.49549 -20214264.23248  20658121.290    20658125.344
  23067451.882   -12354618.76849  -9610149.54046  23067451.566    23067456.779
  23157756.310   -11881714.84349  -9031780.98846  23157755.579    23157763.214
  23618783.410   -10307392.37749  -7464794.50045  23618782.957    23618788.394
  24131564.637    -6264531.42349  -4863541.61145  24131564.336    24131573.944
 03  4  9  2 14  0.0000000  0  8G23G31G25G14G11G15G18G 3
  23962792.764    -4730997.99749  -3662377.85445  23962792.135    23962798.633
  23660527.071    -6754338.09949  -5229609.19546  23660526.568    23660534.498
  22102252.290   -17608484.31349 -13478767.97447  22102252.049    22102258.130
  20666222.413   -25980970.22349 -20181093.36348  20666221.922    20666225.987
  23051489.039   -12438503.88349  -9675514.51646  23051488.756    23051493.872
  23178024.986   -11775201.73349  -8948783.79746  23178024.298    23178032.040
  23631917.836   -10238370.30249  -7411011.09345  23631917.354    23631922.828
  24146759.653    -6184682.16349  -4801321.51345  24146759.296    24146768.859
 03  4  9  2 14 30.0000000  0  8G23G31G25G14G11G15G18G 3
  23973872.040    -4672776.14349  -3617010.17345  23973871.384    23973877.897
  23672668.704    -6690533.77449  -5179891.61745  23672668.163    23672676.146
  22086421.200   -17691676.91349 -13543593.29447  22086420.949    22086427.039
  20674383.568   -25938083.18249 -20147674.88448  20674383.082    20674387.136
  23035581.384   -12522099.33049  -9740653.76846  23035581.049    23035586.133
  23198336.261   -11668465.20549  -8865612.51746  23198335.616    23198343.342
  23645075.177   -10169227.84949  -7357133.87945  23645074.705    23645080.183
  24161962.188    -6104792.56649  -4739069.99145  24161961.881    24161971.436
 03  4  9  2 15  0.0000000  0  8G23G31G25G14G11G15G18G 3
  23984971.134    -4614449.71349  -3571561.01045  23984970.440    23984977.011
  23684861.061    -6626462.35149  -5129965.90045  23684860.532    23684868.516
  22070647.902   -17774565.35949 -13608181.61447  22070647.689    22070653.789
  20682604.869   -25894879.91049 -20114009.99448  20682604.371    20682608.410
  23019729.353   -12605402.02349  -9805564.90546  23019729.033    23019734.091
  23218689.858   -11561506.71649  -8782268.27346  23218689.146    23218696.865
  23658255.596   -10099964.58149  -7303162.52045  23658255.071    23658260.626
  24177171.929    -6024865.07049  -4676788.93145  24177171.633    24177181.082
 03  4  9  2 15 30.0000000  0  8G23G31G25G14G11G15G18G 3
  23996090.217    -4556018.70749  -3526030.37445  23996089.483    23996096.097
  23697103.693    -6562127.00449  -5079834.52445  23697103.247    23697111.191
  22054933.020   -17857147.36449 -13672531.14647  22054932.798    22054938.873
  20690885.937   -25851362.44149 -20080100.26648  20690885.448    20690889.495
  23003933.364   -12688409.90249  -9870246.30746  23003933.019    23003938.126
  23239085.190   -11454328.73549  -8698752.99746  23239084.466    23239092.238
  23671458.964   -10030580.58849  -7249097.07645  23671458.441    23671463.954
  24192388.278    -5944903.01349  -4614480.95345  24192387.968    24192397.468
 03  4  9  2 16  0.0000000  0  8G23G31G25G14G11G15G18G 3
  24007229.329    -4497482.69649  -3480417.90845  24007228.671    24007235.111
  23709396.055    -6497530.84149  -5029499.91445  23709395.557    23709403.449
  22039276.906   -17939420.67749 -13736640.14147  22039276.656    22039282.704
  20699226.401   -25807533.02449 -20045947.46048  20699225.904    20699229.960
  22988193.898   -12771120.88149  -9934696.36946  22988193.545    22988198.679
  23259521.839   -11346933.54749  -8615068.47046  23259521.099    23259528.937
  23684685.228    -9961076.05749  -7194937.72545  23684684.704    23684690.264
  24207610.647    -5864909.09349  -4552148.14845  24207610.430    24207619.804
 03  4  9  2 16 30.0000000  0  8G23G31G25G14G11G15G18G 3
  24018388.409    -4438840.89149  -3434723.00645  24018387.866    24018394.319
  23721737.517    -6432676.23449  -4978963.92245  23721737.023    23721744.923
  22023680.124   -18021382.06149 -13800506.07347  22023679.854    22023685.885
  20707625.943   -25763393.05749 -20011552.67248  20707625.449    20707629.496
  22972511.536   -12853531.95549  -9998912.74946  22972511.172    22972516.304
  23279999.464   -11239322.92849  -8531216.08946  23279998.762    23280006.569
  23697934.553    -9891450.32449  -7140683.92445  23697934.131    23697939.603
  24222838.683    -5784885.61949  -4489792.32845  24222838.397    24222847.885
 03  4  9  2 17  0.0000000  0  8G23G31G25G14G11G15G18G 3
  24029567.694    -4380093.23349  -3388945.62345  24029567.167    24029573.713
  23734127.551    -6367566.84449  -4928229.39445  23734127.105    23734134.926
  22008143.078   -18103029.52749 -13864127.39547  22008142.820    22008148.817
  20716084.141   -25718944.99249 -19976917.80648  20716083.654    20716087.691
  22956886.573   -12935641.54749 -10062894.20746  22956886.189    22956891.272
  23300517.543   -11131499.74949  -8447198.06346  23300516.847    23300524.697
  23711206.930    -9821703.75549  -7086335.98245  23711206.543    23711211.898
  24238071.709    -5704836.02049  -4427416.15045  24238071.312    24238080.921
 03  4  9  2 17 30.0000000  0  8G23G31G25G14G11G15G18G 3
  24040767.342    -4321238.72149  -3343085.01745  24040766.744    24040773.328
  23746565.655    -6302204.92949  -4877298.10745  23746565.185    23746572.963
  21992666.309   -18184360.23049 -13927501.89047  21992666.034    21992672.009
  20724600.644   -25674190.28849 -19942044.00348  20724600.148    20724604.201
  22941319.529   -13017446.41049 -10126638.20246  22941319.116    22941324.264
  23321075.841   -11023465.39349  -8363015.48046  23321075.076    23321082.933
  23724502.517    -9751835.68749  -7031893.34845  23724502.009    23724507.292
  24253309.275    -5624762.71249  -4365021.48745  24253308.993    24253318.435
 03  4  9  2 18  0.0000000  0  8G23G31G25G14G11G15G18G 3
  24051987.282    -4262277.54649  -3297141.25345  24051986.705    24051993.233
  23759051.074    -6236593.98449  -4826172.75545  23759050.591    23759058.279
  21977250.174   -18265372.16049 -13990627.98447  21977249.897    21977255.878
  20733175.081   -25629131.32449 -19906933.11548  20733174.572    20733178.620
  22925810.758   -13098944.92849 -10190143.49046  22925810.372    22925815.567
  23341673.781   -10915222.35949  -8278670.29746  23341673.046    23341680.961
  23737821.022    -9681846.49349  -6977356.33245  23737820.459    23737825.732
  24268550.825    -5544668.88549  -4302610.84845  24268550.472    24268559.992
 03  4  9  2 18 30.0000000  0  8G23G31G25G14G11G15G18G 3
  24063227.733    -4203208.70249  -3251113.60945  24063227.174    24063233.683
  23771583.359    -6170736.61949  -4774855.39745  23771582.856    23771590.498
  21961895.313   -18346062.09049 -14053503.17847  21961895.057    21961901.045
  20741807.087   -25583769.88649 -19871586.53248  20741806.586    20741810.613
  22910360.920   -13180133.98449 -10253407.63346  22910360.538    22910365.769
  23362311.131   -10806772.64649  -8194164.05246  23362310.399    23362318.279
  23751162.678    -9611735.57049  -6922724.44445  23751162.202    23751167.428
  24283795.691    -5464557.23549  -4240186.32445  24283795.388    24283804.936
 03  4  9  2 19  0.0000000  0  8G23G31G25G14G11G15G18G 3
  24074488.644    -4144032.09249  -3205001.99645  24074488.139    24074494.612
  23784161.812    -6104636.11949  -4723348.58545  23784161.318    23784169.054
  21946602.055   -18426428.23949 -14116126.06447  21946601.814    21946607.768
  20750496.220   -25538107.97349 -19836005.81348  20750495.721    20750499.753
  22894970.283   -13261011.95349 -10316429.37646  22894969.932    22894975.177
  23382987.254   -10698118.79649  -8109498.76245  23382986.505    23382994.413
  23764527.536    -9541503.48649  -6867998.15745  23764526.931    23764532.157
  24299043.404    -5384430.70249  -4177750.19045  24299043.082    24299052.712
 03  4  9  2 19 30.0000000  0  8G23G31G25G14G11G15G18G 3
  24085770.242    -4084747.29949  -3158806.09345  24085769.539    24085776.216
  23796786.071    -6038295.22749  -4671654.44345  23796785.579    23796793.401
  21931370.958   -18506467.81149 -14178494.48047  21931370.718    21931376.625
  20759242.212   -25492147.47249 -19800192.43248  20759241.716    20759245.749
  22879639.437   -13341576.16749 -10379206.63246  22879639.055    22879644.295
  23403701.853   -10589262.99849  -8024676.10846  23403701.125    23403709.025
  23777915.432    -9471149.72149  -6813177.06845  23777914.832    23777919.995
  24314293.474    -5304291.85049  -4115304.46945  24314293.075    24314302.786
 03  4  9  2 20  0.0000000  0  8G23G31G25G14G11G15G18G 3
  24097072.463    -4025353.76149  -3112525.44845  24097071.754    24097078.438
  23809455.584    -5971716.87249  -4619775.27245  23809455.077    23809463.002
  21916202.481   -18586178.33249 -14240606.49347  21916202.249    21916208.140
  20768044.656   -25445890.25149 -19764147.83748  20768044.162    20768048.189
  22864368.693   -13421824.17549 -10441737.50046  22864368.308    22864373.549
  23424454.605   -10480207.31349  -7939697.68046  23424453.848    23424461.708
  23791326.447    -9400674.30249  -6758261.16645  23791325.798    23791331.005
  24329545.308    -5224143.63149  -4052851.43845  24329544.896    24329554.620
 03  4  9  2 20 30.0000000  0  8G23G31G25G14G11G15G18G 3
  24108395.439    -3965851.03049  -3066159.71945  24108394.666    24108401.574
  23822169.690    -5904904.01949  -4567713.37645  23822169.135    23822177.172
  21901097.155   -18665557.06349 -14302459.96547  21901096.916    21901102.775
  20776903.146   -25399338.42349 -19727873.68248  20776902.650    20776906.706
  22849158.638   -13501753.60049 -10504020.11746  22849158.267    22849163.466
  23445244.832   -10370954.08049  -7854565.32246  23445244.076    23445251.957
  23804760.656    -9330077.17549  -6703250.44045  23804760.057    23804765.176
  24344798.291    -5143988.66749  -3990393.15045  24344797.937    24344807.802
 03  4  9  2 21  0.0000000  0  8G23G31G25G14G11G15G18G 3
  24119739.427    -3906238.47749  -3019708.40045  24119738.662    24119745.450
  23834927.948    -5837859.44949  -4515470.92945  23834927.303    23834935.358
  21886055.350   -18744601.67849 -14364053.09647  21886055.129    21886060.968
  20785817.437   -25352493.57549 -19691371.19848  20785816.938    20785820.971
  22834009.657   -13581361.90249 -10566052.51446  22834009.284    22834014.493
  23466072.296   -10261505.22149  -7769280.53746  23466071.496    23466079.451
  23818218.108    -9259357.96749  -6648144.57345  23818217.541    23818222.631
  24360052.158    -5063829.72649  -3927931.76245  24360051.767    24360061.705
 03  4  9  2 21 30.0000000  0  8G23G31G25G14G11G15G18G 3
  24131104.288    -3846515.84949  -2973171.30545  24131103.514    24131110.355
  23847729.618    -5770586.30149  -4463050.37145  23847728.991    23847737.044
  21871077.633   -18823309.92249 -14425384.11447  21871077.408    21871083.232
  20794787.097   -25305357.76849 -19654641.99348  20794786.579    20794790.622
  22818922.242   -13660646.94749 -10627833.02946  22818921.869    22818927.033
  23486936.535   -10151863.02149  -7683845.09745  23486935.753    23486943.716
  23831698.696    -9188516.89849  -6592943.76145  23831698.188    23831703.186
  24375306.152    -4983669.68649  -3865469.52445  24375305.767    24375315.784
 03  4  9  2 22  0.0000000  0  8G23G31G25G14G11G15G18G 3
  24142490.204    -3786682.69949  -2926548.11245  24142489.452    24142496.261
  23860574.241    -5703087.50949  -4410453.97245  23860573.658    23860581.703
  21856164.351   -18901679.37449 -14486451.14147  21856164.142    21856169.935
  20803811.729   -25257933.00849 -19617687.62848  20803811.201    20803815.247
  22803896.722   -13739606.31149 -10689359.76146  22803896.361    22803901.479
  23507837.047   -10042029.72949  -7598260.75245  23507836.364    23507844.354
  23845202.675    -9117553.62249  -6537647.72445  23845202.190    23845207.173
  24390559.978    -4903511.14749  -3803008.45645  24390559.517    24390569.533
 03  4  9  2 22 30.0000000  0  8G23G31G25G14G11G15G18G 3
  24153897.243    -3726738.52549  -2879838.38745  24153896.586    24153903.368
  23873461.282    -5635366.04649  -4357684.07145  23873460.637    23873468.766
  21841316.028   -18979707.47349 -14547252.17647  21841315.812    21841321.587
  20812890.951   -25210221.38549 -19580509.73648  20812890.426    20812894.474
  22788933.586   -13818237.64549 -10750630.89246  22788933.260    22788938.404
  23528773.595    -9932007.46849  -7512529.16145  23528772.889    23528780.927
  23858729.824    -9046468.03649  -6482256.37545  23858729.326    23858734.418
  24405812.911    -4823356.98449  -3740550.79045  24405812.467    24405822.552
 03  4  9  2 23  0.0000000  0  8G23G31G25G14G11G15G18G 3
  24165325.461    -3666682.95649  -2833041.88145  24165324.724    24165331.602
  23886390.033    -5567424.86549  -4304742.97445  23886389.347    23886397.570
  21826533.246   -19057391.32049 -14607784.96547  21826533.036    21826538.785
  20822024.425   -25162224.50749 -19543109.57048  20822023.913    20822027.964
  22774033.436   -13896538.36749 -10811644.41146  22774033.135    22774038.226
  23549745.675    -9821798.46049  -7426652.05045  23549744.881    23549753.001
  23872280.195    -8975260.09749  -6426769.70345  23872279.645    23872284.928
  24421064.473    -4743209.85449  -3678098.61845  24421064.019    24421074.243
 03  4  9  2 23 30.0000000  0  8G23G31G25G14G11G15G18G 3
  24176774.903    -3606515.50849  -2786158.17045  24176774.257    24176781.130
  23899360.081    -5499266.95749  -4251632.99145  23899359.378    23899367.716
  21811816.351   -19134728.86249 -14668047.90147  21811816.134    21811821.841
  20831211.819   -25113944.41549 -19505488.71548  20831211.293    20831215.371
  22759196.606   -13974506.33749 -10872398.62846  22759196.297    22759201.377
  23570752.908    -9711404.90449  -7340631.12845  23570752.148    23570760.221
  23885853.881    -8903929.83249  -6371187.70845  23885853.369    23885858.669
  24436314.067    -4663072.70649  -3615654.21845  24436313.682    24436323.960
 03  4  9  2 24  0.0000000  0  8G23G31G25G14G11G15G18G 3
  24188245.797    -3546235.65049  -2739186.86745  24188245.166    24188251.984
  23912370.791    -5430895.26449  -4198356.41545  23912370.170    23912378.535
  21797165.779   -19211717.81649 -14728039.21847  21797165.546    21797171.236
  20840452.692   -25065383.14749 -19467648.76148  20840452.175    20840456.270
  22744423.554   -14052139.17749 -10932891.71946  22744423.264    22744428.287
  23591794.824    -9600829.15749  -7254468.25445  23591794.020    23591802.131
  23899450.814    -8832477.01149  -6315510.21745  23899450.294    23899455.766
  24451561.425    -4582948.22249  -3553219.69645  24451561.087    24451571.330
 03  4  9  2 24 30.0000000  0  8G23G31G25G14G11G15G18G 3
  24199738.014    -3485843.56849  -2692128.13545  24199737.341    24199744.241
  23925421.470    -5362313.18049  -4144915.90545  23925420.925    23925429.365
  21782581.918   -19288356.36149 -14787757.48347  21782581.673    21782587.329
  20849746.754   -25016542.52549 -19429591.12548  20849746.231    20849750.320
  22729714.711   -14129434.84549 -10993122.07246  22729714.347    22729719.379
  23612870.973    -9490073.72649  -7168165.33845  23612870.220    23612878.241
  23913071.043    -8760902.04549  -6259737.53945  23913070.536    23913076.089
  24466805.639    -4502839.52049  -3490797.48145  24466805.273    24466815.636
 03  4  9  2 25  0.0000000  0  8G23G31G25G14G11G15G18G 3
  24211251.840    -3425337.67849  -2644980.69945  24211251.270    24211258.152
  23938511.942    -5293522.69149  -4091313.00745  23938511.393    23938519.845
  21768065.422   -19364640.60949 -14847199.67647  21768065.182    21768070.824
  20859093.694   -24967423.91849 -19391316.88148  20859093.190    20859097.269
  22715070.589   -14206390.16049 -11053087.21246  22715070.234    22715075.233
  23633981.003    -9379139.98349  -7081723.49545  23633980.226    23633988.229
  23926714.854    -8689203.57949  -6203868.63545  23926714.251    23926719.803
  24482046.515    -4422748.35649  -3428388.91245  24482046.011    24482056.509
 03  4  9  2 25 30.0000000  0  8G23G31G25G14G11G15G18G 3
  24222787.406    -3364717.92849  -2597744.54645  24222786.784    24222793.822
  23951641.398    -5224527.23949  -4037550.38945  23951640.844    23951649.392
  21753616.644   -19440569.01649 -14906364.59147  21753616.405    21753622.041
  20868493.111   -24918029.62449 -19352827.81348  20868492.603    20868496.685
  22700491.494   -14283003.34049 -11112785.74446  22700491.177    22700496.172
  23655124.375    -9268030.62449  -6995144.82045  23655123.738    23655131.624
  23940382.059    -8617382.11049  -6147903.87645  23940381.449    23940387.076
  24497283.299    -4342677.90649  -3365996.53645  24497283.133    24497293.509
 03  4  9  2 26  0.0000000  0  8G23G31G25G14G11G15G18G 3
  24234344.453    -3303984.64049  -2550419.91745  24234343.883    24234350.929
  23964809.183    -5155330.58749  -3983630.99945  23964808.638    23964817.176
  21739235.968   -19516139.71649 -14965250.77347  21739235.740    21739241.379
  20877944.470   -24868362.40249 -19314126.07248  20877943.970    20877948.033
  22685977.905   -14359272.43149 -11172216.15046  22685977.575    22685982.568
  23676300.751    -9156748.42049  -6908431.42645  23676300.098    23676307.947
  23954072.535    -8545438.35249  -6091843.81845  23954071.931    23954077.550
  24512515.728    -4262631.58249  -3303622.92145  24512515.368    24512525.993
 03  4  9  2 26 30.0000000  0  8G23G31G25G14G11G15G18G 3
  24245923.428    -3243136.90149  -2503006.12345  24245922.817    24245929.864
  23978014.767    -5085934.96249  -3929556.56145  23978014.246    23978022.804
  21724923.841   -19591349.88949 -15023856.02647  21724923.618    21724929.278
  20887447.471   -24818423.58249 -19275212.69948  20887446.981    20887451.053
  22671530.340   -14435194.47249 -11231376.13246  22671530.016    22671535.013
  23697509.686    -9045294.84049  -6821584.51945  23697509.036    23697516.984
  23967786.436    -8473371.74549  -6035688.04745  23967785.877    23967791.386
  24527743.113    -4182611.46949  -3241269.73745  24527742.766    24527753.553
 03  4  9  2 27  0.0000000  0  8G23G31G25G14G11G15G18G 3
  24257524.248    -3182174.52549  -2455502.99645  24257523.626    24257530.561
  23991257.564    -5016343.71549  -3875329.68745  23991257.178    23991265.674
  21710680.799   -19666197.33049 -15082178.63147  21710680.539    21710686.200
  20897001.829   -24768215.18949 -19236089.27348  20897001.337    20897005.384
  22657149.231   -14510767.60149 -11290264.24146  22657148.922    22657153.902
  23718750.691    -8933672.60949  -6734606.18445  23718750.041    23718757.983
  23981523.651    -8401182.32949  -5979436.57545  23981523.136    23981528.552
  24542964.949    -4102620.53149  -3178939.28845  24542964.519    24542975.559
 03  4  9  2 27 30.0000000  0  8G23G31G25G14G11G15G18G 3
  24269146.944    -3121096.56249  -2407909.78645  24269146.379    24269153.282
  24004537.188    -4946559.39149  -3820952.35945  24004536.795    24004545.133
  21696507.338   -19740679.00049 -15140216.21647  21696507.081    21696512.732
  20906607.174   -24717738.68349 -19196756.91948  20906606.677    20906610.738
  22642835.056   -14585989.12749 -11348878.36346  22642834.712    22642839.678
  23740023.520    -8821883.53349  -6647497.83545  23740022.834    23740030.802
  23995284.322    -8328869.63749  -5923089.04945  23995283.761    23995289.149
  24558180.884    -4022661.03649  -3116633.33245  24558180.445    24558191.305
 03  4  9  2 28  0.0000000  0  8G23G31G25G14G11G15G18G 3
  24280791.666    -3059903.87449  -2360227.17545  24280791.138    24280797.848
  24017852.837    -4876585.99949  -3766427.70045  24017852.367    24017860.746
  21682403.627   -19814794.48649 -15197968.46547  21682403.365    21682408.967
  20916262.976   -24666997.10849 -19157218.02348  20916262.473    20916266.512
  22628587.972   -14660857.78649 -11407217.52746  22628587.625    22628592.589
  23761327.439    -8709930.78149  -6560261.96345  23761326.737    23761334.697
  24009068.253    -8256434.49949  -5866646.10745  24009067.728    24009073.174
  24573390.117    -3942736.90449  -3054354.93845  24573389.656    24573400.578
 03  4  9  2 28 30.0000000  0  8G23G31G25G14G11G15G18G 3
  24292458.468    -2998595.05749  -2312454.08145  24292457.892    24292464.564
  24031204.023    -4806425.60149  -3711757.32445  24031203.493    24031211.875
  21668370.307   -19888539.79549 -15255432.26947  21668370.050    21668375.619
  20925969.072   -24615991.27849 -19117473.21548  20925968.573    20925972.584
  22614408.729   -14735370.03449 -11465278.95946  22614408.381    22614413.341
  23782662.229    -8597815.66249  -6472899.56945  23782661.675    23782669.511
  24022875.630    -8183876.16549  -5810107.16145  24022875.149    24022880.496
  24588592.348    -3862849.89149  -2992105.46545  24588591.872    24588602.658
 03  4  9  2 29  0.0000000  0  8G23G31G25G14G11G15G18G 3
  24304147.233    -2937170.19149  -2264590.55245  24304146.580    24304153.308
  24044590.123    -4736081.67349  -3656943.94745  24044589.567    24044597.977
  21654407.724   -19961913.40249 -15312606.42947  21654407.456    21654412.995
  20935724.973   -24564723.71249 -19077524.45448  20935724.460    20935728.490
  22600297.711   -14809523.95549 -11523061.18046  22600297.340    22600302.295
  23804027.379    -8485541.08549  -6385412.90845  23804026.686    23804034.666
  24036706.489    -8111194.76249  -5753472.30645  24036705.985    24036711.376
  24603786.789    -3783002.82249  -2929887.13145  24603786.283    24603797.105
 03  4  9  2 29 30.0000000  0  8G23G31G25G14G11G15G18G 3
  24315858.268    -2875628.29549  -2216635.80445  24315857.652    24315864.257
  24058010.617    -4665556.70249  -3601989.48845  24058010.036    24058018.424
  21640516.405   -20034912.34149 -15369488.64447  21640516.143    21640521.681
  20945530.386   -24513195.81049 -19037372.83648  20945529.882    20945533.902
  22586255.303   -14883317.26649 -11580562.40946  22586254.941    22586259.798
  23825422.582    -8373108.66749  -6297803.27245  23825421.804    23825429.910
  24050560.866    -8038389.73549  -5696741.12545  24050560.363    24050565.808
  24618973.163    -3703198.13849  -2867701.79545  24618972.700    24618983.629
 03  4  9  2 30  0.0000000  0  8G23G31G25G14G11G15G18G 3
  24327591.499    -2813969.08549  -2168589.69345  24327591.039    24327597.672
  24071464.958    -4594853.68849  -3546896.31445  24071464.432    24071472.789
  21626696.828   -20107534.28449 -15426077.09647  21626696.580    21626702.091
  20955385.024   -24461409.39049 -18997019.78248  20955384.519    20955388.526
  22572281.942   -14956747.46449 -11637780.69346  22572281.585    22572286.423
  23846847.369    -8260520.77349  -6210072.44745  23846846.632    23846854.580
  24064438.766    -7965461.07649  -5639913.61245  24064438.296    24064443.701
  24634150.975    -3623438.60149  -2805551.63145  24634150.592    24634161.682
 03  4  9  2 30 30.0000000  0  8G23G31G25G14G11G15G18G 3
  24339347.351    -2752192.51649  -2120452.11345  24339346.801    24339353.234
  24084952.512    -4523975.97349  -3491666.98445  24084952.004    24084960.388
  21612949.339   -20179777.49549 -15482370.43747  21612949.107    21612954.598
  20965288.385   -24409366.80249 -18956467.10448  20965287.873    20965291.889
  22558378.061   -15029812.54149 -11694714.47046  22558377.720    22558382.541
  23868301.232    -8147780.05949  -6122222.55845  23868300.479    23868308.429
  24078340.027    -7892409.16549  -5582990.05745  24078339.582    24078344.965
  24649319.604    -3543727.08049  -2743438.91045  24649319.181    24649330.345
 03  4  9  2 31  0.0000000  0  8G23G31G25G14G11G15G18G 3
  24351125.493    -2690297.71449  -2072222.39145  24351124.718    24351131.459
  24098472.989    -4452926.01949  -3436303.46545  24098472.445    24098480.794
  21599274.455   -20251639.19549 -15538366.49547  21599274.234    21599279.681
  20975240.217   -24357069.45349 -18915715.91748  20975239.704    20975243.750
  22544544.223   -15102509.70149 -11751361.54946  22544543.877    22544548.677
  23889783.921    -8034888.25049  -6034254.94245  23889783.107    23889791.019
  24092264.875    -7819233.65649  -5525970.18445  24092264.362    24092269.661
  24664478.792    -3464065.59749  -2681365.16545  24664478.357    24664489.479
 03  4  9  2 31 30.0000000  0  8G23G31G25G14G11G15G18G 3
  24362926.161    -2628284.72149  -2023900.60445  24362925.348    24362932.201
  24112025.470    -4381707.52249  -3380808.59645  24112024.952    24112033.332
  21585672.512   -20323117.64749 -15594063.91847  21585672.280    21585677.692
  20985240.132   -24304519.64949 -18874768.00848  20985239.621    20985243.619
  22530780.666   -15174837.46249 -11807720.79946  22530780.316    22530785.093
  23911294.733    -7921848.26649  -5946171.85945  23911293.956    23911301.920
  24106213.217    -7745934.86649  -5468854.26045  24106212.695    24106217.883
  24679627.771    -3384457.46749  -2619333.00845  24679627.409    24679638.575
 03  4  9  2 32  0.0000000  0  8G23G31G25G14G11G15G18G 3
  24374749.367    -2566152.79849  -1975486.11945  24374748.553    24374755.559
  24125609.520    -4310322.94149  -3325184.31645  24125609.008    24125617.413
  21572143.976   -20394210.36049 -15649460.76647  21572143.736    21572149.117
  20995287.755   -24251719.17849 -18833624.77448  20995287.235    20995291.200
  22517087.941   -15246793.01949 -11863790.02646  22517087.585    22517092.334
  23932833.367    -7808661.77549  -5857974.60845  23932832.604    23932840.543
  24120185.079    -7672512.40849  -5411641.96945  24120184.583    24120189.651
  24694766.303    -3304905.01349  -2557344.22945  24694765.829    24694777.021
 03  4  9  2 32 30.0000000  0  8G23G31G25G14G11G15G18G 3
  24386595.348    -2503901.59849  -1926978.68345  24386594.632    24386601.515
  24139224.670    -4238775.32749  -3269432.99945  24139224.182    24139232.597
  21558689.277   -20464915.06449 -15704555.27447  21558689.030    21558694.397
  21005382.705   -24198669.76149 -18792287.55748  21005382.187    21005386.186
  22503466.462   -15318374.14149 -11919567.47946  22503466.105    22503470.840
  23954399.366    -7695330.96449  -5769664.91045  23954398.715    23954406.653
  24134180.472    -7598966.08449  -5354333.12245  24134179.994    24134185.085
  24709893.656    -3225410.86549  -2495400.89445  24709893.167    24709904.335
 03  4  9  2 33  0.0000000  0  8G23G31G25G14G11G15G18G 3
  24398464.174    -2441531.24649  -1878378.42345  24398463.415    24398470.248
  24152870.136    -4167068.10749  -3213557.32845  24152869.596    24152878.113
  21545308.779   -20535229.81549 -15759345.91847  21545308.513    21545313.874
  21015524.587   -24145373.71349 -18750758.16148  21015524.065    21015528.056
  22489916.591   -15389578.92649 -11975051.67946  22489916.245    22489920.957
  23975992.344    -7581858.84349  -5681245.09745  23975991.597    23975999.637
  24148199.424    -7525296.39849  -5296928.17445  24148198.960    24148203.934
  24725009.460    -3145978.06049  -2433505.34645  24725008.962    24725020.034
 03  4  9  2 33 30.0000000  0  8G23G31G25G14G11G15G18G 3
  24410355.602    -2379041.11949  -1829684.82645  24410354.843    24410361.875
  24166545.446    -4095204.13549  -3157559.50545  24166544.799    24166553.383
  21532002.851   -20605152.38749 -15813830.96947  21532002.605    21532007.966
  21025713.113   -24091832.73949 -18709037.91948  21025712.582    21025716.542
  22476438.784   -15460405.11249 -12030240.86346  22476438.425    22476443.155
  23997611.814    -7468247.53649  -5592716.84245  23997611.170    23997619.228
  24162241.931    -7451503.07549  -5239426.90845  24162241.298    24162246.254
  24740113.015    -3066609.08449  -2371659.53145  24740112.626    24740123.527
 03  4  9  2 34  0.0000000  0  8G23G31G25G14G11G15G18G 3
  24422269.891    -2316430.78349  -1780897.56045  24422269.364    24422276.310
  24180249.989    -4023186.40549  -3101441.85245  24180249.312    24180258.040
  21518771.995   -20674680.64649 -15868008.76647  21518771.764    21518777.078
  21035947.873   -24038048.68449 -18667128.25348  21035947.327    21035951.303
  22463033.506   -15530850.09949 -12085133.02146  22463033.176    22463037.889
  24019257.370    -7354499.11049  -5504081.71045  24019256.665    24019264.886
  24176307.784    -7377586.28249  -5181829.40345  24176307.170    24176312.224
  24755203.977    -2987306.51249  -2309865.44545  24755203.629    24755214.590
 03  4  9  2 34 30.0000000  0  8G23G31G25G14G11G15G18G 3
  24434207.289    -2253699.69749  -1732016.20045  24434206.721    24434213.501
  24193983.262    -3951017.53749  -3045206.45045  24193982.564    24193991.400
  21505616.700   -20743811.96849 -15921877.25947  21505616.472    21505621.765
  21046228.560   -23984023.14849 -18625030.42848  21046228.059    21046232.024
  22449701.233   -15600911.63549 -12139726.37746  22449700.886    22449705.574
  24040928.805    -7240615.68749  -5415341.41145  24040928.061    24040936.244
  24190397.229    -7303545.54749  -5124135.33645  24190396.568    24190401.747
  24770281.741    -2908072.71849  -2248124.97145  24770281.491    24770292.405
 03  4  9  2 35  0.0000000  0  7G23G31G25G14G11G15G18
  24446167.650    -2190847.73449  -1683040.65245  24446167.081    24446173.873
  24207744.735    -3878700.81949  -2988855.82445  24207744.167    24207752.842
  21492537.254   -20812544.49949 -15975435.00547  21492537.026    21492542.334
  21056554.815   -23929758.32549 -18582746.14348  21056554.291    21056558.259
  22436442.332   -15670587.75649 -12194019.41146  22436441.945    22436446.598
  24062625.435    -7126599.61649  -5326497.77345  24062624.631    24062632.819
  24204510.190    -7229381.05149  -5066344.82045  24204509.546    24204514.864
 03  4  9  2 35 30.0000000  0  7G23G31G25G14G11G15G18
  24458152.186    -2127868.04949  -1633965.58045  24458151.654    24458158.487
  24221534.979    -3806232.64349  -2932387.18045  24221534.410    24221543.181
  21479535.368   -20880869.58149 -16028675.25947  21479535.137    21479540.440
  21066927.496   -23875249.40249 -18540271.64947  21066926.970    21066930.955
  22423258.404   -15739869.72749 -12248005.32146  22423258.001    22423262.609
  24084348.017    -7012446.81549  -5237547.58645  24084347.293    24084355.444
  24218647.957    -7155086.22549  -5008452.76945  24218647.359    24218652.740
 03  4  9  2 36  0.0000000  0  7G23G31G25G14G11G15G18
  24470159.443    -2064769.79449  -1584798.10945  24470158.832    24470165.722
  24235351.653    -3733625.73149  -2875810.44545  24235351.026    24235359.854
  21466609.584   -20948794.83149 -16081603.95947  21466609.336    21466614.626
  21077344.447   -23820507.89749 -18497615.91747  21077343.928    21077347.901
  22410148.065   -15808764.67449 -12301689.65046  22410147.678    22410152.310
  24106094.364    -6898169.07649  -5148500.03345  24106093.618    24106101.840
  24232808.794    -7080670.65449  -4950466.62645  24232808.275    24232813.463
 03  4  9  2 36 30.0000000  0  7G23G31G25G14G11G15G18
  24482189.685    -2001550.95049  -1535536.66445  24482189.044    24482195.886
  24249194.488    -3660881.24249  -2819126.50145  24249193.892    24249202.631
  21453760.633   -21016316.22649 -16134217.96147  21453760.381    21453765.660
  21087805.618   -23765533.91249 -18454779.03247  21087805.106    21087809.080
  22397112.058   -15877268.83749 -12355069.47346  22397111.682    22397116.356
  24127864.430    -6783766.95449  -5059355.56645  24127863.678    24127871.883
  24246992.864    -7006132.29249  -4892384.76645  24246992.426    24246997.502
 03  4  9  2 37  0.0000000  0  7G23G31G25G14G11G15G18
  24494243.037    -1938210.85049  -1486180.74345  24494242.359    24494249.163
  24263062.938    -3588001.93049  -2762337.49945  24263062.411    24263071.219
  21440988.919   -21083431.62049 -16186515.60247  21440988.682    21440993.970
  21098310.693   -23710329.22549 -18411762.37947  21098310.174    21098314.157
  22384150.877   -15945379.81549 -12408142.92146  22384150.515    22384155.205
  24149657.707    -6669242.29049  -4970115.62145  24149656.991    24149665.278
  24261200.469    -6931471.19649  -4834207.28845  24261200.010    24261205.223
 03  4  9  2 37 30.0000000  0  7G23G31G25G14G11G15G18
  24506319.431    -1874748.60449  -1436729.66445  24506318.798    24506325.585
  24276956.739    -3514990.27749  -2705445.36845  24276956.182    24276964.892
  21428295.041   -21150138.21049 -16238494.69147  21428294.780    21428300.060
  21108859.484   -23654895.04349 -18368566.90647  21108858.971    21108862.935
  22371265.132   -16013094.96349 -12460907.91646  22371264.766    22371269.431
  24171473.963    -6554597.20049  -4880781.82245  24171473.227    24171481.546
  24275431.497    -6856687.09649  -4775933.96045  24275430.979    24275436.176
 03  4  9  2 38  0.0000000  0  7G23G31G25G14G11G15G18
  24518419.260    -1811163.66449  -1387182.97245  24518418.572    24518425.405
  24290875.101    -3441849.01749  -2648452.25245  24290874.498    24290883.291
  21415679.368   -21216433.66349 -16290153.41547  21415679.104    21415684.365
  21119451.628   -23599232.77949 -18325193.69347  21119451.108    21119455.097
  22358455.147   -16080411.48749 -12513362.29746  22358454.774    22358459.515
  24193312.765    -6439833.60649  -4791355.68845  24193312.048    24193320.397
  24289685.859    -6781779.53949  -4717564.45445  24289685.351    24289690.640
 03  4  9  2 38 30.0000000  0  7G23G31G25G14G11G15G18
  24530542.556    -1747455.44449  -1337540.21345  24530541.909    24530548.675
  24304817.598    -3368580.81349  -2591360.21645  24304817.065    24304825.825
  21403142.370   -21282315.79849 -16341490.07447  21403142.103    21403147.349
  21130086.859   -23543344.12349 -18281644.06747  21130086.346    21130090.346
  22345721.437   -16147327.13549 -12565504.31246  22345721.109    22345725.818
  24215173.761    -6324953.25149  -4701838.56145  24215173.005    24215181.394
  24303963.907    -6706748.07049  -4659098.37145  24303963.366    24303968.577
 03  4  9  2 39  0.0000000  0  7G23G31G25G14G11G15G18
  24542689.301    -1683624.21249  -1287801.59145  24542688.420    24542695.292
  24318783.692    -3295189.36849  -2534172.15145  24318783.037    24318791.822
  21390684.267   -21347783.13249 -16392503.51147  21390684.018    21390689.276
  21140764.701   -23487231.60049 -18237920.01447  21140764.184    21140768.169
  22333064.352   -16213840.53249 -12617332.88846  22333063.962    22333068.677
  24237056.323    -6209959.38549  -4612232.97745  24237055.565    24237063.872
  24318265.407    -6631593.34549  -4600536.27445  24318264.795    24318270.113
 03  4  9  2 39 30.0000000  0  7G23G31G25G14G11G15G18
  24554859.573    -1619668.52449  -1237966.00345  24554858.874    24554865.656
  24332772.864    -3221676.64749  -2476889.57945  24332772.112    24332780.947
  21378305.719   -21412832.60449 -16443191.34147  21378305.467    21378310.716
  21151485.033   -23430895.91949 -18194022.06747  21151484.512    21151488.494
  22320484.392   -16279948.48649 -12668845.53446  22320483.991    22320488.668
  24258960.232    -6094853.19449  -4522539.87745  24258959.572    24258967.907
  24332590.521    -6556314.53449  -4541877.45645  24332589.909    24332595.187
 03  4  9  2 40  0.0000000  0  7G23G31G25G14G11G15G18
  24567053.442    -1555588.68349  -1188033.66045  24567052.844    24567059.681
  24346784.351    -3148045.92649  -2419515.06545  24346783.642    24346792.501
  21366006.984   -21477462.74549 -16493552.41847  21366006.711    21366011.935
  21162247.347   -23374339.36049 -18149952.00247  21162246.841    21162250.839
  22307981.926   -16345649.20749 -12720040.84646  22307981.536    22307986.179
  24280885.092    -5979637.33949  -4432761.31945  24280884.373    24280892.816
  24346939.120    -6480911.92349  -4483122.19545  24346938.535    24346943.940
 03  4  9  2 40 30.0000000  0  7G23G31G25G14G11G15G18
  24579271.098    -1491384.33049  -1138004.28545  24579270.535    24579277.392
  24360817.758    -3074300.19349  -2362050.93345  24360817.147    24360825.941
  21353788.437   -21541671.27249 -16543584.96647  21353788.180    21353793.384
  21173051.366   -23317563.87149 -18105711.35147  21173050.842    21173054.837
  22295557.397   -16410940.18449 -12770916.88446  22295557.017    22295561.647
  24302830.387    -5864314.18649  -4342899.16245  24302829.631    24302838.053
  24361311.423    -6405385.04249  -4424270.08445  24361310.866    24361316.262
 03  4  9  2 41  0.0000000  0  7G23G31G25G14G11G15G18
  24591512.584    -1427055.16849  -1087877.66545  24591511.980    24591518.773
  24374872.507    -3000442.52349  -2304499.55745  24374871.887    24374880.789
  21341650.506   -21605456.12249 -16593287.37947  21341650.263    21341655.433
  21183896.661   -23260571.27249 -18061301.51047  21183896.174    21183900.151
  22283211.200   -16475819.74749 -12821472.33847  22283210.834    22283215.452
  24324795.775    -5748886.12349  -4252955.24245  24324795.065    24324803.284
  24375707.220    -6329734.39449  -4365321.53545  24375706.759    24375712.169
 03  4  9  2 41 30.0000000  0  7G23G31G25G14G11G15G18
  24603777.769    -1362601.15049  -1037653.73845  24603777.140    24603783.935
  24388947.863    -2926476.16449  -2246863.50745  24388947.303    24388956.186
  21329593.531   -21668815.77849 -16642658.47047  21329593.280    21329598.419
  21194782.882   -23203363.73049 -18016724.18347  21194782.388    21194786.360
  22270943.657   -16540285.89049 -12871705.64247  22270943.307    22270947.904
  24346780.637    -5633355.65149  -4162931.52845  24346779.884    24346788.107
  24390126.587    -6253960.44649  -4306276.90245  24390126.077    24390131.515
 03  4  9  2 42  0.0000000  0  7G23G31G25G14G11G15G18
  24616066.878    -1298021.39949   -987331.86545  24616066.152    24616073.151
  24403043.507    -2852403.45349  -2189144.58245  24403042.915    24403051.820
  21317617.913   -21731747.79449 -16691696.33447  21317617.650    21317622.797
  21205709.814   -23145942.19549 -17971980.12247  21205709.313    21205713.288
  22258755.272   -16604336.01249 -12921614.77847  22258754.915    22258759.512
  24368784.534    -5517724.45749  -4072829.33645  24368783.761    24368791.931
  24404569.503    -6178062.54949  -4247135.66345  24404568.949    24404574.405
 03  4  9  2 42 30.0000000  0  7G23G31G25G14G11G15G18
  24628379.923    -1233315.93149   -936912.02045  24628379.337    24628386.189
  24417158.780    -2778227.86249  -2131345.47945  24417158.153    24417167.122
  21305723.939   -21794250.72349 -16740399.84947  21305723.695    21305728.823
  21216677.088   -23088308.98749 -17927071.12047  21216676.570    21216680.524
  22246646.416   -16667968.28749 -12971198.31147  22246646.037    22246650.646
  24390807.081    -5401995.18249  -3982650.72645  24390806.387    24390814.618
  24419035.862    -6102041.00849  -4187898.07445  24419035.334    24419040.771
 03  4  9  2 43  0.0000000  0  7G23G31G25G14G11G15G18
  24640717.019    -1168483.99849   -886393.60545  24640716.437    24640723.262
  24431293.084    -2703951.85549  -2073468.13945  24431292.497    24431301.422
  21293912.150   -21856321.91849 -16788766.94547  21293911.882    21293916.975
  21227684.304   -23030465.52949 -17881998.28247  21227683.800    21227687.753
  22234617.571   -16731180.18249 -13020454.27847  22234617.195    22234621.787
  24412847.902    -5286169.91649  -3892397.32045  24412847.097    24412855.426
  24433525.948    -6025895.60249  -4128563.99145  24433525.302    24433530.840
 03  4  9  2 43 30.0000000  0  7G23G31G25G14G11G15G18
  24653078.129    -1103525.90449   -835776.93645  24653077.430    24653084.395
  24445445.711    -2629578.81149  -2015515.19545  24445445.200    24445454.238
  21282182.755   -21917960.08549 -16836796.61647  21282182.492    21282187.575
  21238731.141   -22972413.92249 -17836763.25347  21238730.633    21238734.583
  22222668.967   -16793970.46749 -13069381.72347  22222668.567    22222673.132
  24434906.578    -5170251.24649  -3802071.13345  24434905.866    24434914.070
  24448039.343    -5949626.68649  -4069133.66545  24448038.715    24448044.277
 03  4  9  2 44  0.0000000  0  7G23G31G25G14G11G15G18
  24665463.254    -1038440.76049   -785061.23845  24665462.635    24665469.774
  24459616.492    -2555111.18149  -1957488.55945  24459616.000    24459625.015
  21270536.255   -21979162.55649 -16884486.78547  21270535.975    21270541.044
  21249817.369   -22914155.48649 -17791367.05447  21249816.838    21249820.782
  22210801.077   -16856336.14049 -13117978.29747  22210800.703    22210805.282
  24456982.710    -5054240.92049  -3711673.51845  24456981.973    24456990.104
  24462576.438    -5873233.62349  -4009606.60745  24462575.931    24462581.359
 03  4  9  2 44 30.0000000  0  7G23G31G25G14G11G15G18
  24677872.602     -973228.80449   -734246.70645  24677872.065    24677879.090
  24473804.549    -2480552.44549  -1899390.90845  24473804.118    24473813.050
  21258972.960   -22039927.81849 -16931836.27347  21258972.700    21258977.749
  21260942.486   -22855692.44249 -17745811.41647  21260941.956    21260945.911
  22199014.317   -16918275.76749 -13166242.89647  22199013.923    22199018.487
  24479075.727    -4938141.99049  -3621206.85345  24479075.009    24479083.063
  24477137.150    -5796717.12749  -3949983.36845  24477136.661    24477141.992
 03  4  9  2 45  0.0000000  0  7G23G31G25G14G11G15G18
  24690306.229     -907889.30549   -683332.79645  24690305.807    24690312.842
  24488009.484    -2405905.30849  -1841224.37945  24488008.973    24488018.004
  21247493.230   -22100254.11549 -16978843.71047  21247492.947    21247497.978
  21272106.197   -22797026.55949 -17700097.72147  21272105.678    21272109.641
  22187309.097   -16979786.94249 -13214173.62547  22187308.686    22187313.259
  24501185.197    -4821956.14949  -3530672.47445  24501184.433    24501192.633
  24491721.158    -5720076.84249  -3890263.66145  24491720.705    24491725.883
 03  4  9  2 45 30.0000000  0  7G23G31G25G14G11G15G18
  24702764.118     -842422.50049   -632319.70045  24702763.872    24702770.933
  24502230.568    -2331173.11149  -1782991.57745  24502230.050    24502239.097
  21236097.266   -22160139.87349 -17025507.87047  21236096.996    21236101.996
  21283308.172   -22738159.72749 -17654227.45147  21283307.653    21283311.604
  22175685.677   -17040868.15849 -13261769.32747  22175685.282    22175689.859
  24523310.728    -4705686.13749  -3440072.52045  24523309.896    24523318.209
  24506328.774    -5643313.08049  -3830447.76245  24506328.332    24506333.701
 03  4  9  2 46  0.0000000  0  7G23G31G25G14G11G15G18
  24715246.420     -776827.72049   -581206.91745  24715245.982    24715253.274
  24516467.364    -2256358.27949  -1724694.38545  24516466.863    24516476.009
  21224785.539   -22219583.06749 -17071827.17447  21224785.277    21224790.255
  21294548.116   -22679093.27049 -17608201.62247  21294547.592    21294551.565
  22164144.565   -17101517.04249 -13309028.14947  22164144.142    22164148.707
  24545451.993    -4589333.69949  -3349408.33345  24545451.098    24545459.439
  24520959.888    -5566425.78349  -3770535.61645  24520959.443    24520964.788
 03  4  9  2 46 30.0000000  0  6G31G25G14G11G15G18
  24530718.455    -2181468.40649  -1666338.70645  24530717.998    24530727.068
  21213557.600   -22278586.12349 -17117803.51447  21213557.320    21213562.304
  21305824.798   -22619833.86849 -17562025.45147  21305824.275    21305828.238
  22152685.177   -17161736.01949 -13355951.98547  22152684.775    22152689.333
  24567607.508    -4472905.79049  -3258685.35245  24567606.690    24567615.095
  24535613.646    -5489419.64949  -3710530.84445  24535613.137    24535618.766
 03  4  9  2 47  0.0000000  0  6G31G25G14G11G15G18
  24544984.533    -2106500.22849  -1607922.02445  24544983.912    24544993.085
  21202414.900   -22337141.07049 -17163430.67847  21202414.614    21202419.585
  21317139.140   -22560376.69749 -17515695.16947  21317138.602    21317142.569
  22141309.308   -17221516.49949 -13402534.13547  22141308.911    22141313.416
  24589778.148    -4356398.59649  -3167900.57345  24589777.251    24589785.697
  24550291.256    -5412288.29949  -3650428.49845  24550290.877    24550296.414
 03  4  9  2 47 30.0000000  0  6G31G25G14G11G15G18
  24559264.864    -2031457.32549  -1549447.11345  24559264.065    24559273.336
  21191357.644   -22395246.98949 -17208707.95547  21191357.369    21191362.318
  21328490.577   -22500724.39549 -17469212.83547  21328490.034    21328494.028
  22130017.044   -17280857.53749 -13448773.86647  22130016.668    22130021.161
  24611963.217    -4239814.93849  -3077056.21345  24611962.394    24611970.794
  24564992.418    -5335032.42249  -3590229.13945  24564991.860    24564997.587
 03  4  9  2 48  0.0000000  0  6G31G25G14G11G15G18
  24573558.680    -1956342.98149  -1490916.52945  24573558.019    24573567.100
  21180386.188   -22452902.22449 -17253634.04647  21180385.904    21180390.836
  21339878.767   -22440878.86049 -17422579.93347  21339878.240    21339882.250
  22118808.707   -17339757.34449 -13494669.77747  22118808.338    22118812.864
  24634162.294    -4123157.66349  -2986154.49645  24634161.555    24634170.032
  24579717.294    -5257652.26649  -3529932.90345  24579716.875    24579722.621
 03  4  9  2 48 30.0000000  0  6G31G25G14G11G15G18
  24587865.440    -1881160.74849  -1432333.06145  24587864.775    24587873.754
  21169500.658   -22510105.79849 -17298208.19847  21169500.390    21169505.306
  21351303.276   -22380842.63449 -17375798.44347  21351302.751    21351306.728
  22107684.547   -17398214.75549 -13540220.96847  22107684.199    22107688.741
  24656374.869    -4006429.61549  -2895197.63645  24656374.057    24656382.544
  24594465.834    -5180148.77049  -3469540.58445  24594465.586    24594470.986
 03  4  9  2 49  0.0000000  0  5G31G25G14G11G15
  24602183.860    -1805916.51149  -1373701.26245  24602183.243    24602192.339
  21158700.795   -22566859.02849 -17342431.43247  21158700.537    21158705.434
  21362763.230   -22320620.14049 -17328871.80947  21362762.687    21362766.662
  22096644.478   -17456230.58749 -13585428.07347  22096644.142    22096648.638
  24678599.903    -3889636.11149  -2804189.78645  24678599.132    24678607.679
 03  4  9  2 49 30.0000000  0  4G31G25G14G11
  24616513.050    -1730615.99849  -1315025.60045  24616512.523    24616521.644
  21147986.489   -22623162.67749 -17386304.34747  21147986.244    21147991.122
  21374257.716   -22260216.04749 -17281803.66547  21374257.170    21374261.131
  22085688.297   -17513805.91049 -13630291.92047  22085687.956    22085692.350
 03  4  9  2 50  0.0000000  0  4G31G25G14G11
  24630852.283    -1655262.96949  -1256309.04045  24630851.767    24630860.933
  21137357.841   -22679016.32849 -17429826.61447  21137357.592    21137362.456
  21385786.273   -22199632.91849 -17234596.01447  21385785.729    21385789.686
  22074816.163   -17570939.40249 -13674811.48347  22074815.793    22074820.171
 03  4  9  2 50 30.0000000  0  4G31G25G14G11
  24645203.604    -1579846.79549  -1197543.25345  24645203.140    24645212.330
  21126817.843   -22734404.28849 -17472986.00747  21126817.589    21126822.418
  21397351.171   -22138858.78349 -17187239.53247  21397350.643    21397354.580
  22064030.978   -17627615.75249 -13718974.83147  22064030.610    22064034.979
 03  4  9  2 51  0.0000000  0  4G31G25G14G11
  24659565.793    -1504373.69149  -1138733.12345  24659565.338    24659574.406
  21116366.098   -22789328.23749 -17515783.82748  21116365.844    21116370.658
  21408951.410   -22077898.91349 -17139738.31247  21408950.902    21408954.853
  22053332.594   -17683836.06749 -13762782.82147  22053332.206    22053336.581
 03  4  9  2 51 30.0000000  0  4G31G25G14G11
  24673937.902    -1428848.16049  -1079882.12145  24673937.518    24673946.582
  21106002.717   -22843787.97149 -17558219.92548  21106002.459    21106007.259
  21420586.417   -22016756.36449 -17092094.75547  21420585.907    21420589.874
  22042721.049   -17739600.02849 -13806235.21747  22042720.642    22042725.006
 03  4  9  2 52  0.0000000  0  4G31G25G14G11
  24688319.258    -1353273.88249  -1020993.13145  24688318.933    24688327.892
  21095727.756   -22897782.93849 -17600293.86748  21095727.512    21095732.297
  21432255.732   -21955433.67449 -17044310.82547  21432255.209    21432259.204
  22032196.467   -17794906.91349 -13849331.44447  22032196.058    22032200.400
 03  4  9  2 52 30.0000000  0  4G31G25G14G11
  24702709.149    -1277654.81149   -962069.25145  24702708.731    24702717.748
  21085541.336   -22951312.61049 -17642005.24748  21085541.094    21085545.870
  21443958.763   -21893933.67249 -16996388.73347  21443958.227    21443962.223
  22021759.022   -17849755.81649 -13892070.80647  22021758.624    22021762.957
 03  4  9  2 53  0.0000000  0  4G31G25G14G11
  24717107.010    -1201993.78449   -903112.65845  24717106.563    24717115.652
  21075443.829   -23004375.17549 -17683352.64248  21075443.604    21075448.333
  21455695.289   -21832257.87649 -16948329.65247  21455694.752    21455698.728
  22011409.141   -17904144.61349 -13934451.63947  22011408.749    22011413.077
 03  4  9  2 53 30.0000000  0  4G31G25G14G11
  24731512.105    -1126294.54649   -844126.30145  24731511.711    24731520.632
  21065435.328   -23056970.05549 -17724335.60448  21065435.093    21065439.791
  21467464.764   -21770408.62349 -16900135.40947  21467464.234    21467468.203
  22001146.960   -17958072.34849 -13976473.20447  22001146.563    22001150.926
 03  4  9  2 54  0.0000000  0  4G31G25G14G11
  24745924.184    -1050559.17749   -785111.79245  24745923.763    24745932.682
  21055516.318   -23109094.57549 -17764952.05848  21055516.080    21055520.770
  21479267.053   -21708387.12849 -16851806.97547  21479266.533    21479270.486
  21990972.995   -18011536.64349 -14018133.64747  21990972.616    21990976.933
 03  4  9  2 54 30.0000000  0  4G31G25G14G11
  24760342.193     -974791.97549   -726072.48945  24760341.752    24760350.814
  21045686.769   -23160748.87549 -17805202.10348  21045686.525    21045691.237
  21491101.597   -21646196.17449 -16803346.47847  21491101.060    21491104.993
  21980887.430   -18064536.83049 -14059432.44847  21980887.029    21980891.297
 03  4  9  2 55  0.0000000  0  4G31G25G14G11
  24774766.190     -898993.98949   -667009.20245  24774765.567    24774774.772
  21035947.368   -23211929.52549 -17845083.07548  21035947.137    21035951.833
  21502968.385   -21583835.88249 -16754754.01747  21502967.835    21502971.734
  21970890.745   -18117069.50449 -14100366.95447  21970890.359    21970894.613
 03  4  9  2 55 30.0000000  0  4G31G25G14G11
  24789195.240     -823169.25349   -607925.06445  24789194.657    24789203.921
  21026298.173   -23262636.27149 -17884594.77048  21026297.937    21026302.598
  21514866.834   -21521309.04749 -16706031.78447  21514866.258    21514870.155
  21960983.154   -18169133.94849 -14140936.61147  21960982.788    21960986.996
 03  4  9  2 56  0.0000000  0  4G31G25G14G11
  24803628.965     -747320.47449   -548822.19745  24803628.325    24803637.765
  21016739.475   -23312867.35049 -17923735.82048  21016739.224    21016743.877
  21526796.727   -21458616.84549 -16657180.69647  21526796.159    21526800.062
  21951165.081   -18220727.90349 -14181139.64547  21951164.725    21951168.948
 03  4  9  2 56 30.0000000  0  4G31G25G14G11
  24818066.497     -671451.44549   -489703.54845  24818065.791    24818075.226
  21007271.399   -23362622.27049 -17962505.83048  21007271.139    21007275.790
  21538757.607   -21395762.00349 -16608202.87147  21538757.049    21538760.941
  21941436.637   -18271850.82549 -14220975.65047  21941436.300    21941440.539
 03  4  9  2 57  0.0000000  0  4G31G25G14G11
  24832507.585     -595563.46049   -430570.12645  24832506.873    24832516.343
  20997894.443   -23411898.11949 -18000902.54248  20997894.190    20997898.842
  21550749.368   -21332744.62249 -16559098.40347  21550748.817    21550752.729
  21931798.470   -18322499.32249 -14260441.97147  21931798.152    21931802.395
 03  4  9  2 57 30.0000000  0  4G31G25G14G11
  24846951.541     -519659.86949   -371424.53845  24846950.884    24846960.345
  20988608.971   -23460693.43549 -18038924.81348  20988608.719    20988613.356
  21562771.703   -21269566.71049 -16509868.84247  21562771.174    21562775.075
  21922250.867   -18372672.26149 -14299537.72847  21922250.532    21922254.754
 03  4  9  2 58  0.0000000  0  4G31G25G14G11
  24861398.047     -443743.22349   -312268.77445  24861397.433    24861406.852
  20979415.167   -23509006.94649 -18076571.65048  20979414.913    20979419.532
  21574824.323   -21206229.60349 -16460515.23947  21574823.800    21574827.680
  21912794.162   -18422367.49849 -14338261.24947  21912793.799    21912798.015
 03  4  9  2 58 30.0000000  0  4G31G25G14G11
  24875846.437     -367816.57649   -253105.22945  24875845.780    24875855.370
  20970313.277   -23556837.53649 -18113842.18748  20970313.014    20970317.622
  21586906.910   -21142735.16049 -16411039.03247  21586906.366    21586910.253
  21903428.602   -18471583.70149 -14376611.50647  21903428.232    21903432.448
 03  4  9  2 59  0.0000000  0  4G31G25G14G11
  24890296.022     -291883.11749   -193936.37645  24890295.467    24890305.112
  20961303.562   -23604183.76249 -18150735.30048  20961303.292    20961307.878
  21599019.049   -21079085.37749 -16361441.77947  21599018.521    21599022.369
  21894154.535   -18520319.22949 -14414587.21047  21894154.172    21894158.332
 03  4  9  2 59 30.0000000  0  4G31G25G14G11
  24904746.641     -215945.11149   -134763.98845  24904746.073    24904755.619
  20952386.329   -23651043.90249 -18187249.64148  20952386.065    20952390.646
  21611160.600   -21015281.09549 -16311724.14547  21611160.055    21611163.885
  21884972.302   -18568572.17049 -14452186.87347  21884971.939    21884976.078
 03  4  9  3  0  0.0000000  0  3G25G14G11
  20943561.780   -23697416.90749 -18223384.40048  20943561.504    20943566.092
  21623331.175   -20951324.16849 -16261887.55847  21623330.630    21623334.457
  21875882.202   -18616340.97849 -14489409.29047  21875881.842    21875885.941
 03  4  9  3  0 30.0000000  0  3G25G14G11
  20934830.823   -23743298.20749 -18259136.01448  20934830.558    20934835.136
  21635531.148   -20887212.87349 -16211930.69847  21635530.604    21635534.412
  21866885.194   -18663620.43649 -14526250.39447  21866884.831    21866888.919
 03  4  9  3  1  0.0000000  0  3G25G14G11
  20926192.660   -23788691.91949 -18294507.69148  20926192.398    20926196.958
  21647759.138   -20822954.18449 -16161858.97647  21647758.569    21647762.425
  21857980.512   -18710414.59249 -14562713.34247  21857980.125    21857984.258
 03  4  9  3  1 30.0000000  0  3G25G14G11
  20917647.644   -23833595.97749 -18329497.82048  20917647.384    20917651.952
  21660014.986   -20758549.04749 -16111673.13647  21660014.434    21660018.320
  21849168.663   -18756721.06449 -14598796.28347  21849168.266    21849172.392
 03  4  9  3  2  0.0000000  0  3G25G14G11
  20909196.234   -23878008.16649 -18364104.67148  20909195.965    20909200.510
  21672298.572   -20693998.13149 -16061373.70147  21672298.010    21672301.908
  21840449.965   -18802537.78249 -14634497.59647  21840449.601    21840453.728
 03  4  9  3  2 30.0000000  0  3G25G14G11
  20900838.599   -23921927.71649 -18398327.65048  20900838.311    20900842.856
  21684609.588   -20629303.46549 -16010962.25947  21684609.018    21684612.916
  21831824.783   -18847863.23349 -14669816.10047  21831824.412    21831828.533
 03  4  9  3  3  0.0000000  0  3G25G14G11
  20892575.097   -23965352.48849 -18432165.08948  20892574.822    20892579.355
  21696947.869   -20564465.34949 -15960439.03847  21696947.316    21696951.171
  21823293.633   -18892694.59449 -14704749.60247  21823293.258    21823297.412
 03  4  9  3  3 30.0000000  0  3G25G14G11
  20884405.927   -24008281.37849 -18465616.12748  20884405.647    20884410.182
  21709313.054   -20499485.69049 -15909805.53347  21709312.536    21709316.340
  21814856.633   -18937031.04349 -14739297.45647  21814856.289    21814860.409
 03  4  9  3  4  0.0000000  0  3G25G14G11
  20876331.440   -24050713.04149 -18498679.71248  20876331.157    20876335.672
  21721704.940   -20434365.97949 -15859062.88447  21721704.407    21721708.222
  21806514.209   -18980870.64249 -14773458.16047  21806513.855    21806517.974
 03  4  9  3  4 30.0000000  0  3G25G14G11
  20868351.617   -24092647.03249 -18531355.50648  20868351.341    20868355.851
  21734123.072   -20369108.30049 -15808212.73247  21734122.540    21734126.345
  21798266.566   -19024212.35549 -14807230.89947  21798266.174    21798270.302
 03  4  9  3  5  0.0000000  0  3G25G14G11
  20860466.856   -24134081.52649 -18563642.08148  20860466.590    20860471.084
  21746567.345   -20303713.13949 -15757255.44847  21746566.815    21746570.611
  21790114.041   -19067054.21449 -14840614.13647  21790113.648    21790117.762
 03  4  9  3  5 30.0000000  0  3G25G14G11
  20852677.321   -24175015.59649 -18595538.71548  20852677.052    20852681.543
  21759037.344   -20238182.63649 -15706192.70547  21759036.812    21759040.626
  21782056.740   -19109395.36549 -14873607.20747  21782056.366    21782060.470
 03  4  9  3  6  0.0000000  0  3G25G14G11
  20844983.277   -24215447.79849 -18627044.28248  20844983.009    20844987.489
  21771532.942   -20172517.95349 -15655025.40347  21771532.402    21771536.206
  21774095.151   -19151233.80449 -14906208.55847  21774094.768    21774098.875
 03  4  9  3  6 30.0000000  0  3G25G14G11
  20837384.816   -24255377.72949 -18658158.47648  20837384.559    20837389.008
  21784053.687   -20106720.92149 -15603754.98447  21784053.154    21784056.939
  21766229.447   -19192568.25049 -14938417.18847  21766229.034    21766233.162
 03  4  9  3  7  0.0000000  0  3G25G14G11
  20829882.242   -24294803.94049 -18688880.15948  20829881.973    20829886.412
  21796599.381   -20040792.96449 -15552382.53347  21796598.829    21796602.576
  21758459.920   -19233397.16149 -14970231.89547  21758459.512    21758463.662
 03  4  9  3  7 30.0000000  0  4G25G14G11G20
  20822475.896   -24333724.31349 -18719207.68148  20822475.620    20822480.042
  21809169.983   -19974733.92349 -15500907.94447  21809169.436    21809173.145
  21750787.128   -19273717.70349 -15001650.47147  21750786.744    21750790.885
  24720459.332    -4079314.93749  -3161326.00245  24720458.652    24720466.383
 03  4  9  3  8  0.0000000  0  4G25G14G11G20
  20815166.092   -24372137.52749 -18749140.02348  20815165.831    20815170.229
  21821765.167   -19908545.64149 -15449332.64447  21821764.627    21821768.340
  21743211.311   -19313528.85649 -15032672.12247  21743210.918    21743215.055
  24703678.281    -4167499.27949  -3230040.97945  24703677.621    24703685.212
 03  4  9  3  8 30.0000000  0  4G25G14G11G20
  20807952.597   -24410044.57249 -18778677.93448  20807952.324    20807956.720
  21834384.325   -19842231.40349 -15397659.19247  21834383.781    21834387.523
  21735732.318   -19352831.08249 -15063297.19747  21735731.936    21735736.046
  24686888.807    -4255728.25549  -3298790.73645  24686887.933    24686895.588
 03  4  9  3  9  0.0000000  0  4G25G14G11G20
  20800835.702   -24447443.85549 -18807820.19448  20800835.441    20800839.824
  21847027.300   -19775792.01449 -15345888.23147  21847026.768    21847030.514
  21728350.505   -19391622.52949 -15093524.27147  21728350.126    21728354.218
  24670090.905    -4344001.00849  -3367574.60945  24670090.202    24670097.571
 03  4  9  3  9 30.0000000  0  4G25G14G11G20
  20793815.627   -24484334.31349 -18836565.96648  20793815.361    20793819.720
  21859693.835   -19709228.76649 -15294020.75747  21859693.309    21859697.065
  21721066.167   -19429901.65249 -15123352.12747  21721065.819    21721069.938
  24653285.049    -4432316.17249  -3436391.53145  24653284.327    24653291.310
 03  4  9  3 10  0.0000000  0  4G25G14G11G20
  20786892.379   -24520716.07449 -18864915.35148  20786892.124    20786896.476
  21872383.451   -19642544.06649 -15242058.64047  21872382.944    21872386.693
  21713879.431   -19467667.87249 -15152780.32347  21713879.094    21713883.218
  24636471.050    -4520674.25849  -3505241.88145  24636470.426    24636477.114
 03  4  9  3 10 30.0000000  0  4G25G14G11G20
  20780066.352   -24556586.82449 -18892866.54648  20780066.090    20780070.436
  21885096.252   -19575737.94149 -15190001.90447  21885095.714    21885099.459
  21706790.831   -19504918.83849 -15181807.01747  21706790.472    21706794.584
  24619649.271    -4609073.14149  -3574124.00645  24619648.542    24619655.408
 03  4  9  3 11  0.0000000  0  4G25G14G11G20
  20773337.721   -24591945.94349 -18920419.06748  20773337.448    20773341.802
  21897831.843   -19508811.95449 -15137851.77047  21897831.287    21897835.020
  21699800.423   -19541653.31549 -15210431.25347  21699800.071    21699804.188
  24602819.794    -4697512.06049  -3643037.33445  24602819.023    24602825.765
 03  4  9  3 11 30.0000000  0  4G25G14G11G20
  20766706.575   -24626792.58549 -18947572.25348  20766706.308    20766710.662
  21910589.941   -19441767.74649 -15085609.52047  21910589.345    21910593.078
  21692908.558   -19577870.23149 -15238652.19947  21692908.192    21692912.287
  24585982.795    -4785990.56349  -3711981.49645  24585982.109    24585988.923
 03  4  9  3 12  0.0000000  0  4G25G14G11G20
  20760173.170   -24661125.91949 -18974325.46748  20760172.901    20760177.219
  21923370.236   -19374606.95449 -15033276.42947  21923369.647    21923373.331
  21686115.387   -19613568.68049 -15266469.14547  21686115.035    21686119.074
  24569138.423    -4874507.84049  -3780955.88145  24569137.611    24569144.634
 03  4  9  3 12 30.0000000  0  4G25G14G11G20
  20753737.557   -24694945.14849 -19000678.07148  20753737.287    20753741.569
  21936172.395   -19307330.95349 -14980853.56547  21936171.804    21936175.505
  21679421.124   -19648747.27149 -15293881.00047  21679420.769    21679424.779
  24552286.629    -4963063.41549  -3849960.09645  24552285.777    24552292.836
 03  4  9  3 13  0.0000000  0  4G25G14G11G20
  20747400.043   -24728248.90549 -19026629.00948  20747399.774    20747404.058
  21948996.448   -19239940.07749 -14928341.17747  21948995.877    21948999.568
  21672826.151   -19683403.87749 -15320886.11747  21672825.785    21672829.793
  24535427.897    -5051655.55449  -3918992.82445  24535427.097    24535434.232
 03  4  9  3 13 30.0000000  0  4G25G14G11G20
  20741160.593   -24761037.20949 -19052178.30048  20741160.334    20741164.607
  21961841.837   -19172436.79149 -14875741.20247  21961841.304    21961844.989
  21666330.554   -19717538.23749 -15347484.29147  21666330.182    21666334.203
  24518562.273    -5140284.57249  -3988054.29345  24518561.563    24518568.638
 03  4  9  3 14  0.0000000  0  4G25G14G11G20
  20735019.432   -24793309.13749 -19077325.22148  20735019.165    20735023.421
  21974708.399   -19104822.52649 -14823054.74947  21974707.866    21974711.547
  21659934.514   -19751149.32749 -15373674.72647  21659934.170    21659938.206
  24501689.906    -5228949.35449  -4057143.62345  24501689.284    24501696.108
 03  4  9  3 14 30.0000000  0  4G25G14G11G20
  20728976.556   -24825064.33849 -19102069.50248  20728976.298    20728980.550
  21987595.837   -19037098.58449 -14770282.84747  21987595.275    21987598.971
  21653638.317   -19784236.10949 -15399456.61147  21653637.969    21653641.984
  24484810.753    -5317649.30449  -4126260.35145  24484810.079    24484817.056
 03  4  9  3 15  0.0000000  0  4G25G14G11G20
  20723032.262   -24856301.71549 -19126410.27548  20723031.993    20723036.234
  22000503.924   -18969266.25449 -14717426.47147  22000503.359    22000507.076
  21647442.083   -19816797.56049 -15424829.14647  21647441.718    21647445.701
  24467925.233    -5406383.55849  -4195403.81345  24467924.478    24467931.534
 03  4  9  3 15 30.0000000  0  4G25G14G11G20
  20717186.553   -24887020.92549 -19150347.28948  20717186.280    20717190.528
  22013432.307   -18901327.06049 -14664486.83547  22013431.758    22013435.482
  21641346.107   -19848831.94549 -15449790.98247  21641345.728    21641349.722
  24451033.212    -5495151.42749  -4264573.48345  24451032.493    24451039.472
 03  4  9  3 16  0.0000000  0  4G25G14G11G20
  20711439.893   -24917219.75549 -19173878.80648  20711439.629    20711443.870
  22026381.109   -18833280.80849 -14611463.77547  22026380.544    22026384.267
  21635350.784   -19880337.50949 -15474340.74647  21635350.399    21635354.368
  24434135.115    -5583950.65449  -4333767.57745  24434134.471    24434141.490
 03  4  9  3 16 30.0000000  0  4G25G14G11G20
  20705792.179   -24946898.32549 -19197004.93348  20705791.919    20705796.164
  22039349.833   -18765129.80049 -14558359.08447  22039349.256    22039352.955
  21629456.137   -19911313.91849 -15498478.18747  21629455.759    21629459.731
  24417231.136    -5672781.20849  -4402986.08045  24417230.543    24417237.574
 03  4  9  3 17  0.0000000  0  4G25G14G11G20
  20700243.580   -24976056.31449 -19219725.41148  20700243.320    20700247.568
  22052338.172   -18696875.55249 -14505173.94947  22052337.604    22052341.284
  21623662.391   -19941760.20149 -15522202.54147  21623662.010    21623665.991
  24400321.357    -5761642.43249  -4472228.47945  24400320.690    24400327.763
 03  4  9  3 17 30.0000000  0  4G25G14G11G20
  20694794.031   -25004693.76749 -19242040.28048  20694793.763    20694798.006
  22065345.790   -18628520.01949 -14451909.88547  22065345.229    22065348.860
  21617969.564   -19971676.16849 -15545513.65747  21617969.161    21617973.139
  24383405.844    -5850534.15449  -4541494.64445  24383405.100    24383412.107
 03  4  9  3 18  0.0000000  0  4G25G14G11G20
  20689443.793   -25032809.30449 -19263948.45748  20689443.536    20689447.764
  22078372.579   -18560063.74749 -14398567.32347  22078372.031    22078375.635
  21612377.961   -20001060.08649 -15568410.20047  21612377.582    21612381.546
  24366484.801    -5939454.82649  -4610783.36145  24366484.014    24366490.939
 03  4  9  3 18 30.0000000  0  4G25G14G11G20
  20684192.916   -25060402.71849 -19285449.78348  20684192.641    20684196.882
  22091418.224   -18491508.44449 -14345147.59147  22091417.650    22091421.287
  21606887.755   -20029911.40649 -15590891.72447  21606887.373    21606891.303
  24349558.263    -6028403.97749  -4680094.26945  24349557.392    24349564.304
 03  4  9  3 19  0.0000000  0  4G25G14G11G20
  20679041.643   -25087472.62749 -19306543.19248  20679041.378    20679045.609
  22104482.531   -18422854.64349 -14291651.11447  22104481.996    22104485.647
  21601499.244   -20058228.06049 -15612956.63347  21601498.864    21601502.787
  24332626.634    -6117379.87249  -4749426.02845  24332625.704    24332632.605
 03  4  9  3 19 30.0000000  0  4G25G14G11G20
  20673990.038   -25114018.87049 -19327228.54648  20673989.785    20673993.970
  22117565.357   -18354103.99449 -14238079.16747  22117564.779    22117568.457
  21596212.580   -20086009.50749 -15634604.49147  21596212.214    21596216.128
  24315690.002    -6206382.00249  -4818778.22545  24315689.119    24315695.844
 03  4  9  3 20  0.0000000  0  4G25G14G11G20
  20669038.165   -25140041.05649 -19347505.54648  20669037.903    20669042.091
  22130666.369   -18285257.60349 -14184432.61947  22130665.799    22130669.492
  21591027.848   -20113255.09049 -15655834.80047  21591027.513    21591031.411
  24298748.503    -6295409.60049  -4888150.27345  24298747.627    24298754.233
 03  4  9  3 20 30.0000000  0  5G30G25G14G11G20
  24392298.355    -5707477.71949  -4120861.00045  24392298.563    24392303.177
  20664186.368   -25165537.23649 -19367372.67548  20664186.102    20664190.274
  22143785.584   -18216315.40749 -14130711.41247  22143785.037    22143788.731
  21585945.639   -20139962.36549 -15676645.65347  21585945.301    21585949.176
  24281802.677    -6384460.23949  -4957540.27145  24281801.857    24281808.373
 03  4  9  3 21  0.0000000  0  5G30G25G14G11G20
  24387518.455    -5732595.90949  -4140433.56845  24387518.632    24387523.386
  20659435.178   -25190504.82349 -19386827.90848  20659434.901    20659439.073
  22156923.169   -18147276.90149 -14076915.16147  22156922.632    22156926.334
  21580966.383   -20166128.66649 -15697034.95647  21580966.038    21580969.900
  24264852.922    -6473531.01449  -5026945.99145  24264852.221    24264858.634
 03  4  9  3 21 30.0000000  0  5G30G25G14G11G20
  24382821.980    -5757275.68949  -4159664.50945  24382822.144    24382826.895
  20654783.636   -25214948.66549 -19405875.03148  20654783.371    20654787.546
  22170077.932   -18078147.94049 -14023048.41947  22170077.385    22170081.072
  21576089.299   -20191758.01349 -15717005.86147  21576088.924    21576092.808
  24247898.433    -6562626.08449  -5096370.61945  24247897.721    24247904.323
 03  4  9  3 22  0.0000000  0  5G30G25G14G11G20
  24378209.382    -5781514.10549  -4178551.55845  24378209.627    24378214.389
  20650232.075   -25238867.14949 -19424512.78448  20650231.792    20650235.966
  22183249.917   -18008928.80349 -13969111.41647  22183249.356    22183253.010
  21571314.673   -20216848.56849 -15736556.92647  21571314.310    21571318.184
  24230939.848    -6651743.39649  -5165812.55945  24230939.170    24230945.756
 03  4  9  3 22 30.0000000  0  5G30G25G14G11G20
  24373681.295    -5805309.71449  -4197093.54545  24373681.490    24373686.546
  20645780.487   -25262260.27849 -19442741.17048  20645780.204    20645784.378
  22196438.660   -17939621.25749 -13915105.52547  22196438.096    22196441.775
  21566642.762   -20241399.62349 -15755687.60147  21566642.394    21566646.259
  24213977.186    -6740882.32849  -5235271.33445  24213976.444    24213983.007
 03  4  9  3 23  0.0000000  0  5G30G25G14G11G20
  24369238.175    -5828660.89749  -4215289.22145  24369238.126    24369242.956
  20641428.933   -25285127.66049 -19460559.88048  20641428.656    20641432.823
  22209643.974   -17870226.77749 -13861031.89247  22209643.404    22209647.114
  21562073.535   -20265410.74449 -15774397.54847  21562073.167    21562077.041
  24197010.529    -6830042.08349  -5304746.34645  24197009.839    24197016.377
 03  4  9  3 23 30.0000000  0  5G30G25G14G11G20
  24364879.695    -5851565.39749  -4233136.85845  24364879.556    24364883.795
  20637177.525   -25307468.83849 -19477968.56548  20637177.249    20637181.401
  22222865.805   -17800745.69349 -13806890.77547  22222865.241    22222868.899
  21557607.329   -20288880.78649 -15792685.88447  21557606.959    21557610.817
  24180040.109    -6919221.08549  -5374236.33045  24180039.458    24180046.010
 03  4  9  3 24  0.0000000  0  5G30G25G14G11G20
  24360606.400    -5874019.38149  -4250633.43445  24360606.433    24360610.846
  20633026.737   -25329281.37549 -19494965.32548  20633026.463    20633030.588
  22236104.192   -17731177.46149 -13752681.74047  22236103.626    22236107.259
  21553244.649   -20311806.91649 -15810550.38647  21553244.250    21553248.130
  24163066.755    -7008416.54649  -5443739.16045  24163065.908    24163072.588
 03  4  9  3 24 30.0000000  0  5G30G25G14G11G20
  24356419.353    -5896022.35949  -4267778.53345  24356419.532    24356423.906
  20628976.385   -25350565.85449 -19511550.60648  20628976.107    20628980.249
  22249358.713   -17661524.33749 -13698406.56447  22249358.180    22249361.769
  21548985.291   -20334189.80049 -15827991.58347  21548984.918    21548988.813
  24146090.251    -7097628.62749  -5513254.94045  24146089.290    24146096.022
 03  4  9  3 25  0.0000000  0  5G30G25G14G11G20
  24352318.267    -5917573.16849  -4284571.38045  24352318.372    24352323.056
  20625026.470   -25371322.73449 -19527724.77648  20625026.192    20625030.336
  22262629.061   -17591788.11049 -13644066.63347  22262628.523    22262632.115
  21544829.434   -20356028.92349 -15845009.07447  21544829.065    21544832.938
  24129110.714    -7186856.61749  -5582783.12945  24129109.775    24129116.464
 03  4  9  3 25 30.0000000  0  5G30G25G14G11G20
  24348303.680    -5938669.05449  -4301009.67645  24348303.880    24348308.183
  20621177.205   -25391550.69249 -19543486.79448  20621176.916    20621181.056
  22275915.230   -17521969.08049 -13589662.17947  22275914.655    22275918.266
  21540777.324   -20377322.99449 -15861601.83947  21540776.931    21540780.803
  24112128.361    -7276098.99949  -5652322.52445  24112127.452    24112134.068
 03  4  9  3 26  0.0000000  0  5G30G25G14G11G20
  24344376.029    -5959308.12949  -4317092.04745  24344376.279    24344380.790
  20617428.680   -25411249.30849 -19558836.34148  20617428.391    20617432.508
  22289216.851   -17452068.42649 -13535194.12447  22289216.287    22289219.894
  21536829.024   -20398071.17649 -15877769.23947  21536828.644    21536832.516
  24095143.500    -7365354.60149  -5721872.23045  24095142.690    24095149.276
 03  4  9  3 26 30.0000000  0  5G30G25G14G11G20
  24340535.532    -5979489.89449  -4332818.09045  24340535.719    24340540.423
  20613780.670   -25430419.60649 -19573774.20948  20613780.397    20613784.487
  22302533.670   -17382088.15449 -13480664.02947  22302533.058    22302536.729
  21532984.623   -20418273.67649 -15893511.43247  21532984.245    21532988.111
  24078156.205    -7454623.21549  -5791432.08345  24078155.340    24078161.862
 03  4  9  3 27  0.0000000  0  5G30G25G14G11G20
  24336782.458    -5999212.26249  -4348186.09945  24336782.577    24336787.162
  20610233.243   -25449061.18349 -19588300.08848  20610232.963    20610237.084
  22315865.430   -17312028.92449 -13426072.40947  22315864.848    22315868.534
  21529244.183   -20437929.64349 -15908827.75647  21529243.805    21529247.658
  24061166.746    -7543903.60449  -5861001.10845  24061165.872    24061172.302
 03  4  9  3 27 30.0000000  0  5G30G25G14G11G20
  24333117.183    -6018473.98249  -4363195.20645  24333117.233    24333121.800
  20606786.516   -25467173.81949 -19602413.80548  20606786.229    20606790.339
  22329211.975   -17241892.49749 -13371420.63146  22329211.379    22329215.039
  21525607.846   -20457038.79149 -15923717.98747  21525607.452    21525611.308
  24044175.036    -7633195.10549  -5930578.78145  24044174.224    24044180.534
 03  4  9  3 28  0.0000000  0  5G30G25G14G11G20
  24329539.876    -6037272.60549  -4377843.46345  24329539.940    24329544.444
  20603440.595   -25484756.65049 -19616114.68548  20603440.305    20603444.418
  22342573.081   -17171679.15749 -13316708.92346  22342572.519    22342576.149
  21522075.774   -20475599.97149 -15938181.23047  21522075.397    21522079.223
  24027181.501    -7722495.76949  -6000163.60945  24027180.669    24027187.101
 03  4  9  3 28 30.0000000  0  5G30G25G14G11G20
  24326051.137    -6055607.06549  -4392130.02545  24326051.215    24326055.539
  20600195.386   -25501810.38149 -19629403.28148  20600195.082    20600199.168
  22355948.484   -17101390.63549 -13261938.63346  22355947.959    22355951.601
  21518647.957   -20493613.20049 -15952217.49347  21518647.560    21518651.390
  24010186.452    -7811805.25149  -6069755.30345  24010185.614    24010192.046
 03  4  9  3 29  0.0000000  0  5G30G25G14G11G20
  24322650.734    -6073475.56449  -4406053.49645  24322650.859    24322655.253
  20597050.930   -25518334.52149 -19642279.21448  20597050.639    20597054.703
  22369338.147   -17031027.59849 -13207110.29246  22369337.590    22369341.233
  21515324.575   -20511077.59249 -15965826.09847  21515324.171    21515328.007
  23993190.016    -7901122.03449  -6139352.69945  23993189.151    23993195.586
 03  4  9  3 29 30.0000000  0  5G30G25G14G11G20
  24319339.509    -6090874.97349  -4419611.48445  24319339.682    24319344.157
  20594007.523   -25534327.57949 -19654741.31448  20594007.236    20594011.303
  22382742.013   -16960589.88449 -13152223.75246  22382741.401    22382745.103
  21512106.047   -20527991.06249 -15979005.41747  21512105.659    21512109.481
  23976192.545    -7990443.77649  -6208953.94445  23976191.657    23976198.249
 03  4  9  3 30  0.0000000  0  5G30G25G14G11G20
  24316117.789    -6107805.58249  -4432804.11445  24316117.951    24316122.305
  20591064.909   -25549790.95349 -19666790.66948  20591064.613    20591068.685
  22396159.528   -16890080.10349 -13097281.05046  22396158.952    22396162.701
  21508992.105   -20544354.89849 -15991756.44147  21508991.705    21508995.540
  23959194.018    -8079771.01149  -6278559.46445  23959193.135    23959199.696
 03  4  9  3 30 30.0000000  0  5G30G25G14G11G20
  24312985.601    -6124265.70949  -4445630.18045  24312985.750    24312990.067
  20588223.100   -25564724.64249 -19678427.28648  20588222.810    20588226.890
  22409590.558   -16819499.38749 -13042283.08246  22409589.974    22409593.705
  21505982.818   -20560168.65949 -16004078.83547  21505982.418    21505986.246
  23942194.619    -8169102.66249  -6348168.45245  23942193.715    23942200.254
 03  4  9  3 31  0.0000000  0  5G30G25G14G11G20
  24309943.296    -6140253.26149  -4458087.99545  24309943.415    24309947.701
  20585482.152   -25579128.19049 -19689650.80448  20585481.868    20585485.928
  22423035.046   -16748848.17349 -12987230.17946  22423034.466    22423038.161
  21503078.430   -20575431.19849 -16015971.71247  21503078.049    21503081.870
  23925194.767    -8258436.76849  -6417779.33545  23925193.853    23925200.435
 03  4  9  3 31 30.0000000  0  5G30G25G14G11G20
  24306991.134    -6155766.70549  -4470176.36745  24306991.200    24306995.416
  20582842.214   -25593001.14949 -19700460.88148  20582841.925    20582845.977
  22436492.758   -16678127.48649 -12932123.14546  22436492.180    22436495.834
  21500279.002   -20590142.23149 -16027434.84147  21500278.617    21500282.443
  23908194.576    -8347772.38549  -6487391.41645  23908193.722    23908200.366
 03  4  9  3 32  0.0000000  0  5G30G25G14G11G20
  24304129.239    -6170804.54249  -4481894.14745  24304129.522    24304133.945
  20580303.186   -25606343.77049 -19710857.70148  20580302.913    20580306.933
  22449963.528   -16607338.36949 -12876962.78946  22449962.914    22449966.554
  21497584.615   -20604301.27249 -16038467.84947  21497584.222    21497588.048
  23891194.379    -8437108.36649  -6557003.76745  23891193.610    23891200.136
 03  4  9  3 32 30.0000000  0  5G30G25G14G11G20
  24301358.490    -6185364.79349  -4493239.78845  24301358.829    24301363.228
  20577865.108   -25619155.82849 -19720841.10048  20577864.821    20577868.841
  22463447.121   -16536481.41649 -12821749.56646  22463446.539    22463450.182
  21494995.434   -20617907.40649 -16049070.01547  21494995.035    21494998.874
  23874194.576    -8526442.88349  -6626614.98345  23874193.799    23874200.171
 03  4  9  3 33  0.0000000  0  5G30G25G14G11G20
  24298678.610    -6199448.39649  -4504214.01445  24298678.755    24298683.235
  20575527.663   -25631439.19549 -19730412.53348  20575527.369    20575531.378
  22476943.029   -16465559.94549 -12766486.08046  22476942.426    22476946.067
  21492511.072   -20630962.63849 -16059242.91047  21492510.695    21492514.532
  23857194.781    -8615777.25249  -6696226.08445  23857193.969    23857200.130
 03  4  9  3 33 30.0000000  0  6G30G25G14G11G20G 1
  24296088.789    -6213057.45549  -4514818.46545  24296088.988    24296093.555
  20573290.059   -25643197.74749 -19739575.01848  20573289.768    20573293.775
  22490450.293   -16394578.62549 -12711175.95446  22490449.706    22490453.380
  21490130.978   -20643470.19149 -16068989.04547  21490130.582    21490134.380
  23840194.522    -8705113.89649  -6765838.96545  23840193.758    23840199.796
  24630826.634    -2906427.96149  -2048937.52845  24630826.004    24630835.211
 03  4  9  3 34  0.0000000  0  6G30G25G14G11G20G 1
  24293590.666    -6226185.16749  -4525047.83745  24293590.887    24293595.283
  20571153.333   -25654426.11649 -19748324.37748  20571153.057    20571157.046
  22503969.786   -16323532.92449 -12655815.65946  22503969.216    22503972.910
  21487856.178   -20655424.37049 -16078303.97747  21487855.757    21487859.539
  23823195.051    -8794446.29049  -6835448.54445  23823194.196    23823200.262
  24616425.743    -2982104.96549  -2107906.47645  24616425.043    24616434.193
 03  4  9  3 34 30.0000000  0  6G30G25G14G11G20G 1
  24291184.878    -6238827.45349  -4534898.95845  24291185.083    24291189.517
  20569118.019   -25665121.76649 -19756658.62648  20569117.736    20569121.703
  22517501.901   -16252421.15249 -12600403.88946  22517501.348    22517505.006
  21485687.192   -20666822.19449 -16087185.38747  21485686.789    21485690.603
  23806197.125    -8883770.28249  -6905051.56045  23806196.303    23806202.429
  24602051.465    -3057642.29449  -2166766.59345  24602050.665    24602059.729
 03  4  9  3 35  0.0000000  0  6G30G25G14G11G20G 1
  24288871.336    -6250984.77049  -4544372.19845  24288871.654    24288875.997
  20567183.685   -25675286.57249 -19764579.23248  20567183.405    20567187.374
  22531046.065   -16181246.34649 -12544943.00046  22531045.482    22531049.113
  21483623.787   -20677665.49149 -16095634.69947  21483623.377    21483627.188
  23789200.756    -8973086.61249  -6974648.61045  23789199.990    23789206.072
  24587703.121    -3133041.79249  -2225519.31845  24587702.478    24587711.587
 03  4  9  3 35 30.0000000  0  6G30G25G14G11G20G 1
  24286650.408    -6262656.49049  -4553467.03645  24286650.652    24286654.943
  20565350.188   -25684921.59849 -19772087.02448  20565349.905    20565353.891
  22544601.876   -16110010.03649 -12489434.18746  22544601.317    22544604.908
  21481665.857   -20687954.28849 -16103651.93247  21481665.452    21481669.322
  23772206.005    -9062394.94349  -7044239.44245  23772205.245    23772211.129
  24573381.083    -3208304.15949  -2284165.18745  24573380.483    24573389.671
 03  4  9  3 36  0.0000000  0  6G30G25G14G11G20G 1
  24284522.179    -6273841.24949  -4562182.42145  24284522.275    24284526.682
  20563617.530   -25694026.62049 -19779181.82448  20563617.254    20563621.231
  22558169.323   -16038712.93349 -12433877.99946  22558168.715    22558172.289
  21479813.466   -20697688.43149 -16111236.96747  21479813.065    21479816.932
  23755212.969    -9151693.82949  -7113822.90745  23755212.169    23755217.995
  24559085.062    -3283429.05449  -2342703.91945  24559084.500    24559093.661
 03  4  9  3 36 30.0000000  0  6G30G25G14G11G20G 1
  24282486.720    -6284537.85649  -4570517.44445  24282486.694    24282491.302
  20561985.619   -25702602.08649 -19785863.98548  20561985.344    20561989.334
  22571747.995   -15967356.15649 -12378275.30946  22571747.405    22571751.019
  21478066.675   -20706867.90349 -16118389.78847  21478066.264    21478070.104
  23738221.924    -9240982.18049  -7183398.15545  23738221.111    23738226.937
  24544815.159    -3358416.57649  -2401135.58645  24544814.698    24544823.910
 03  4  9  3 37  0.0000000  0  6G30G25G14G11G20G 1
  24280544.417    -6294744.97049  -4578471.01345  24280544.399    24280549.062
  20560454.479   -25710648.29349 -19792133.73348  20560454.214    20560458.189
  22585337.790   -15895940.89249 -12322627.04546  22585337.217    22585340.860
  21476425.472   -20715492.55949 -16125110.28647  21476425.050    21476428.906
  23721233.177    -9330258.83549  -7252964.29945  23721232.313    23721238.122
  24530571.550    -3433266.71549  -2459460.20245  24530571.109    24530580.147
 03  4  9  3 37 30.0000000  0  6G30G25G14G11G20G 1
  24278695.224    -6304461.45449  -4586042.33345  24278695.299    24278700.159
  20559023.951   -25718165.53349 -19797991.30248  20559023.684    20559027.675
  22598938.543   -15824468.19549 -12266934.03346  22598937.981    22598941.644
  21474889.835   -20723562.20949 -16131398.31347  21474889.404    21474893.300
  23704246.764    -9419522.48249  -7322520.29045  23704245.902    23704251.707
  24516353.973    -3507979.31849  -2517677.65545  24516353.422    24516362.724
 03  4  9  3 38  0.0000000  0  6G30G25G14G11G20G 1
  24276939.802    -6313686.52149  -4593230.65845  24276939.594    24276944.568
  20557694.023   -25725154.51049 -19803437.23948  20557693.735    20557697.715
  22612550.028   -15752939.18649 -12211197.14346  22612549.488    22612553.164
  21473459.766   -20731077.38549 -16137254.28147  21473459.333    21473463.197
  23687262.933    -9508772.27549  -7392065.50145  23687262.100    23687267.992
  24502162.705    -3582554.84549  -2575788.29745  24502162.046    24502171.216
 03  4  9  3 38 30.0000000  0  6G30G25G14G11G20G 1
  24275278.079    -6322418.83549  -4600035.05945  24275278.094    24275282.539
  20556464.546   -25731615.30149 -19808471.59948  20556464.276    20556468.232
  22626172.093   -15681354.92749 -12155417.19046  22626171.527    22626175.224
  21472135.219   -20738037.81149 -16142677.97847  21472134.781    21472138.653
  23670282.013    -9598007.13749  -7461599.08045  23670281.225    23670287.063
  24487997.483    -3656993.31749  -2633792.13545  24487996.893    24488005.909
 03  4  9  3 39  0.0000000  0  6G30G25G14G11G20G 1
  24273710.149    -6330657.42949  -4606454.76545  24273710.158    24273714.998
  20555335.454   -25737548.55349 -19813094.89248  20555335.178    20555339.132
  22639804.383   -15609716.70549 -12099595.20146  22639803.840    22639807.488
  21470916.180   -20744443.66249 -16147669.53947  21470915.754    21470919.620
  23653304.166    -9687225.92049  -7531120.15145  23653303.369    23653309.200
  24473858.322    -3731294.99049  -2691689.38845  24473857.741    24473866.758
 03  4  9  3 39 30.0000000  0  6G30G25G14G11G20G 1
  24272236.987    -6338401.07649  -4612488.74145  24272237.150    24272241.340
  20554306.731   -25742954.39149 -19817307.21748  20554306.460    20554310.415
  22653446.893   -15538024.89149 -12043731.44846  22653446.335    22653449.945
  21469802.788   -20750294.51549 -16152228.62847  21469802.355    21469806.237
  23636329.728    -9776426.92649  -7600627.34345  23636328.920    23636334.807
  24459745.273    -3805459.25649  -2749479.56345  24459744.781    24459753.579
 03  4  9  3 40  0.0000000  0  6G30G25G14G11G20G 1
  24270857.644    -6345648.11549  -4618135.80345  24270857.945    24270861.997
  20553378.385   -25747832.86249 -19821108.60548  20553378.112    20553382.060
  22667099.525   -15466280.15349 -11987826.45546  22667098.954    22667102.497
  21468795.080   -20755590.03949 -16156354.99747  21468794.663    21468798.522
  23619358.947    -9865608.64249  -7670119.51045  23619358.188    23619363.973
  24445658.387    -3879485.91649  -2807162.51045  24445657.893    24445666.630
 03  4  9  3 40 30.0000000  0  6G30G25G14G11G20G 1
  24269573.151    -6352398.02649  -4623395.45545  24269573.445    24269577.630
  20552550.265   -25752184.61749 -19824499.56448  20552549.986    20552553.924
  22680761.847   -15394483.84549 -11931881.28046  22680761.336    22680764.863
  21467892.917   -20760330.82949 -16160049.10547  21467892.497    21467896.362
  23602391.905    -9954770.40749  -7739596.13445  23602391.115    23602396.949
  24431597.593    -3953375.69749  -2864738.79345  24431597.038    24431605.639
 03  4  9  3 41  0.0000000  0  6G30G25G14G11G20G 1
  24268383.844    -6358648.48749  -4628265.93745  24268384.317    24268388.069
  20551822.519   -25756008.82549 -19827479.45248  20551822.250    20551826.177
  22694434.088   -15322635.66349 -11875895.68146  22694433.561    22694437.089
  21467096.539   -20764515.70949 -16163310.04547  21467096.129    21467100.002
  23585429.107   -10043909.61349  -7809055.16645  23585428.428    23585434.196
  24417562.848    -4027127.14349  -2922207.28745  24417562.374    24417571.125
 03  4  9  3 41 30.0000000  0  6G30G25G14G11G20G 1
  24267289.377    -6364399.83149  -4632747.53045  24267289.705    24267293.698
  20551194.792   -25759307.45949 -19830049.79548  20551194.514    20551198.441
  22708115.774   -15250738.23749 -11819871.70846  22708115.219    22708118.743
  21466405.708   -20768146.17449 -16166138.97047  21466405.287    21466409.158
  23568470.757   -10133026.40949  -7878496.74145  23568470.078    23568475.737
  24403554.474    -4100741.67149  -2979569.11845  24403553.871    24403562.514
 03  4  9  3 42  0.0000000  0  6G30G25G14G11G20G 1
  24266290.390    -6369650.85849  -4636839.22445  24266290.489    24266294.273
  20550667.017   -25762080.91049 -19832210.91148  20550666.739    20550670.666
  22721806.700   -15178791.96449 -11763809.67046  22721806.171    22721809.685
  21465820.392   -20771222.05149 -16168535.74947  21465819.972    21465823.786
  23551516.911   -10222119.19149  -7947919.59945  23551516.205    23551521.794
  24389572.103    -4174218.97949  -3036824.00245  24389571.521    24389579.994
 03  4  9  3 42 30.0000000  0  6G30G25G14G11G20G 1
  24265386.496    -6374399.30049  -4640539.30045  24265386.652    24265390.485
  20550239.240   -25764328.80349 -19833962.49948  20550238.976    20550242.895
  22735506.911   -15106796.74649 -11707709.50146  22735506.367    22735509.916
  21465340.757   -20773742.31649 -16170499.58747  21465340.344    21465344.176
  23534568.150   -10311185.44649  -8017321.78745  23534567.418    23534572.993
  24375615.992    -4247557.97549  -3093971.15245  24375615.572    24375623.898
 03  4  9  3 43  0.0000000  0  6G30G25G14G11G20G 1
  24264578.608    -6378645.22849  -4643847.82045  24264578.712    24264582.546
  20549911.308   -25766052.18049 -19835305.37748  20549911.013    20549914.932
  22749216.182   -15034754.02749 -11651572.32446  22749215.636    22749219.253
  21464966.651   -20775708.17149 -16172031.41747  21464966.243    21464970.078
  23517624.438   -10400225.01349  -8086703.18045  23517623.688    23517629.227
  24361685.999    -4320759.68449  -3151011.30145  24361685.547    24361693.861
 03  4  9  3 43 30.0000000  0  6G30G25G14G11G20G 1
  24263866.574    -6382387.82849  -4646764.09545  24263866.385    24263870.296
  20549683.024   -25767251.64849 -19836240.01448  20549682.731    20549686.674
  22762934.222   -14962665.30049 -11595399.29846  22762933.629    22762937.252
  21464698.022   -20777119.86949 -16173131.43947  21464697.619    21464701.437
  23500686.002   -10489236.77749  -8156062.91145  23500685.194    23500690.712
  24347782.224    -4393824.36549  -3207944.68245  24347781.701    24347789.880
 03  4  9  3 44  0.0000000  0  6G30G25G14G11G20G 1
  24263250.338    -6385625.71449  -4649287.13445  24263250.420    24263254.204
  20549554.429   -25767927.27049 -19836766.45748  20549554.140    20549558.051
  22776660.936   -14890530.78149 -11539190.57246  22776660.346    22776664.020
  21464534.837   -20777977.21149 -16173799.48947  21464534.432    21464538.264
  23483753.310   -10578218.61049  -8225399.31945  23483752.427    23483757.937
  24333904.561    -4466751.57349  -3264770.94645  24333904.099    24333911.990
 03  4  9  3 44 30.0000000  0  6G30G25G14G11G20G 1
  24262730.562    -6388357.77149  -4651416.00445  24262730.531    24262734.445
  20549525.495   -25768079.38149 -19836884.97248  20549525.200    20549529.116
  22790396.265   -14818351.12749 -11482946.69546  22790395.657    22790399.376
  21464477.180   -20778280.06249 -16174035.47447  21464476.782    21464480.643
  23466826.524   -10667169.06849  -8294711.27545  23466825.645    23466831.066
  24320053.048    -4539541.16449  -3321489.97345  24320052.478    24320060.629
 03  4  9  3 45  0.0000000  0  6G30G25G14G11G20G 1
  24262307.002    -6390583.31449  -4653150.17145  24262306.994    24262310.853
  20549595.940   -25767709.00649 -19836596.35348  20549595.661    20549599.569
  22804140.029   -14746127.50249 -11426668.53246  22804139.412    22804143.103
  21464524.965   -20778029.03549 -16173839.86447  21464524.549    21464528.402
  23449905.839   -10756087.21149  -8363998.04945  23449905.029    23449910.454
  24306227.613    -4612193.50349  -3378102.04545  24306226.990    24306235.272
 03  4  9  3 45 30.0000000  0  6G30G25G14G11G20G 1
  24261980.020    -6392301.18349  -4654488.77845  24261980.081    24261984.047
  20549765.811   -25766816.28749 -19835900.71648  20549765.523    20549769.423
  22817892.033   -14673860.40649 -11370356.51046  22817891.413    22817895.031
  21464678.157   -20777224.03949 -16173212.58547  21464677.743    21464681.600
  23432991.746   -10844971.00249  -8433258.06046  23432990.928    23432996.383
  24292428.353    -4684708.20249  -3434606.87845  24292427.712    24292436.070
 03  4  9  3 46  0.0000000  0  6G30G25G14G11G20G 1
  24261749.936    -6393510.24049  -4655430.89645  24261749.871    24261754.163
  20550034.992   -25765401.72449 -19834798.44048  20550034.707    20550038.605
  22831652.118   -14601550.54849 -11314011.17246  22831651.517    22831655.123
  21464936.770   -20775865.17349 -16172153.72147  21464936.354    21464940.185
  23416084.429   -10933819.23749  -8502490.37346  23416083.572    23416089.159
  24278655.401    -4757085.04349  -3491004.27745  24278654.717    24278662.971
 03  4  9  3 46 30.0000000  0  6G30G25G14G11G20G 1
  24261616.591    -6394210.18449  -4655976.32845  24261616.701    24261621.171
  20550403.306   -25763466.20749 -19833290.22548  20550403.012    20550406.904
  22845420.183   -14529198.86449 -11257633.22746  22845419.585    22845423.217
  21465300.651   -20773952.98249 -16170663.69847  21465300.212    21465304.030
  23399184.075   -11022630.76849  -8571694.09146  23399183.232    23399188.826
  24264908.575    -4829324.55049  -3547294.66645  24264908.004    24264916.069
 03  4  9  3 47  0.0000000  0  6G30G25G14G11G20G 1
  24261580.667    -6394400.08949  -4656124.29245  24261580.757    24261585.063
  20550870.595   -25761010.56649 -19831376.71948  20550870.308    20550874.178
  22859195.976   -14456806.45149 -11201223.55046  22859195.378    22859199.027
  21465769.698   -20771488.10149 -16168743.00147  21465769.277    21465773.069
  23382291.058   -11111404.09449  -8640868.02246  23382290.158    23382295.734
  24251187.615    -4901426.93849  -3603478.18445  24251186.894    24251195.418
 03  4  9  3 47 30.0000000  0  6G30G25G14G11G20G 1
  24261641.941    -6394078.53249  -4655873.72745  24261641.876    24261646.218
  20551436.917   -25758034.49049 -19829057.68948  20551436.616    20551440.501
  22872979.604   -14384373.12949 -11144782.00246  22872978.986    22872982.626
  21466344.037   -20768469.95749 -16166391.19847  21466343.620    21466347.408
  23365405.636   -11200137.21349  -8710010.63046  23365404.708    23365410.278
  24237492.934    -4973391.36049  -3659554.21145  24237492.354    24237500.894
 03  4  9  3 48  0.0000000  0  6G30G25G14G11G20G 1
  24261800.280    -6393245.37249  -4655224.48645  24261800.384    24261804.638
  20552101.911   -25754539.82449 -19826334.55348  20552101.616    20552105.511
  22886770.686   -14311900.63349 -11088309.91946  22886770.049    22886773.653
  21467023.423   -20764899.62549 -16163609.11147  21467023.009    21467026.801
  23348527.952   -11288829.42849  -8779121.37246  23348527.091    23348532.561
  24223824.816    -5045218.60749  -3715523.36045  24223824.155    24223832.631
 03  4  9  3 48 30.0000000  0  6G30G25G14G11G20G 1
  24262056.181    -6391900.52649  -4654176.57245  24262056.158    24262060.503
  20552865.381   -25750527.61849 -19823208.14248  20552865.098    20552868.966
  22900568.871   -14239390.32249 -11031808.39046  22900568.336    22900571.882
  21467807.738   -20760778.07849 -16160397.51547  21467807.316    21467811.116
  23331658.258   -11377479.92749  -8848199.60846  23331657.410    23331662.843
  24210182.480    -5116909.28949  -3771386.08545  24210181.840    24210190.282
 03  4  9  3 49  0.0000000  0  6G30G25G14G11G20G 1
  24262409.663    -6390042.76149  -4652728.95545  24262409.564    24262414.002
  20553727.364   -25745998.05649 -19819678.60148  20553727.031    20553730.903
  22914374.392   -14166842.25349 -10975277.42346  22914373.769    22914377.266
  21468696.933   -20756105.42749 -16156756.47547  21468696.491    21468700.259
  23314796.928   -11466086.56349  -8917243.68446  23314796.073    23314801.470
  24196566.220    -5188463.06849  -3827142.13545  24196565.566    24196573.930
 03  4  9  3 49 30.0000000  0  6G30G25G14G11G20G 1
  24262860.937    -6387670.83949  -4650880.71745  24262860.912    24262865.529
  20554687.624   -25740951.40249 -19815746.12748  20554687.316    20554691.216
  22928186.881   -14094256.96249 -10918717.45346  22928186.237    22928189.811
  21469691.035   -20750881.39349 -16152685.78947  21469690.593    21469694.368
  23297944.221   -11554647.56249  -8986252.16146  23297943.349    23297948.833
  24182976.048    -5259879.55049  -3882791.20745  24182975.495    24182983.656
 03  4  9  3 50  0.0000000  0  6G30G25G14G11G20G 1
  24263410.257    -6384783.98649  -4648631.20145  24263410.191    24263414.827
  20555746.224   -25735388.40549 -19811411.31248  20555745.933    20555749.799
  22942006.307   -14021635.03849 -10862128.95646  22942005.720    22942009.300
  21470789.953   -20745106.32149 -16148185.72847  21470789.522    21470793.331
  23281100.531   -11643161.32549  -9055223.83846  23281099.681    23281105.132
  24169411.905    -5331158.74149  -3938333.29245  24169411.395    24169419.468
 03  4  9  3 50 30.0000000  0  6G30G25G14G11G20G 1
  24264057.396    -6381381.76649  -4645980.12245  24264057.503    24264062.017
  20556902.939   -25729309.91949 -19806674.81448  20556902.632    20556906.488
  22955832.569   -13948977.31949 -10805512.56046  22955831.958    22955835.620
  21471993.573   -20738781.07449 -16143256.95947  21471993.148    21471996.955
  23264266.039   -11731626.41149  -9124157.58846  23264265.195    23264270.758
  24155873.929    -5402300.81749  -3993768.54445  24155873.427    24155881.395
 03  4  9  3 51  0.0000000  0  6G30G25G14G11G20G 1
  24264803.125    -6377463.21549  -4642926.70645  24264803.267    24264807.777
  20558157.560   -25722716.64649 -19801537.18448  20558157.254    20558161.119
  22969665.556   -13876284.10549 -10748868.49146  22969665.022    22969668.634
  21473301.948   -20731905.64549 -16137899.47447  21473301.523    21473305.318
  23247441.263   -11820040.94949  -9193051.95046  23247440.432    23247445.945
  24142362.025    -5473305.55249  -4049096.77645  24142361.491    24142369.431
 03  4  9  3 51 30.0000000  0  6G30G25G14G11G20G 1
  24265647.177    -6373028.56949  -4639471.15145  24265647.253    24265651.943
  20559509.875   -25715610.01949 -19795999.53848  20559509.578    20559513.452
  22983505.095   -13803557.19349 -10692198.16746  22983504.511    22983508.048
  21474714.698   -20724481.61449 -16132114.50747  21474714.275    21474718.055
  23230626.200   -11908404.55449  -9261906.61946  23230625.393    23230630.859
  24128876.120    -5544174.12949  -4104318.89145  24128875.567    24128883.564
 03  4  9  3 52  0.0000000  0  6G30G25G14G11G20G 1
  24266589.516    -6368076.96149  -4635612.74045  24266589.569    24266594.159
  20560959.759   -25707990.68849 -19790062.38448  20560959.474    20560963.342
  22997350.931   -13730796.87149 -10635501.79946  22997350.405    22997353.866
  21476231.776   -20716509.26749 -16125902.28247  21476231.364    21476235.135
  23213821.088   -11996715.34049  -9330720.12046  23213820.306    23213825.820
  24115416.177    -5614906.17549  -4159434.62745  24115415.606    24115423.594
 03  4  9  3 52 30.0000000  0  6G30G25G14G11G20G 1
  24267630.360    -6362607.81549  -4631351.09645  24267630.438    24267634.960
  20562507.064   -25699859.51849 -19783726.39548  20562506.773    20562510.637
  23011203.007   -13658003.88849 -10578780.00946  23011202.476    23011205.899
  21477853.128   -20707988.91649 -16119263.04647  21477852.732    21477856.521
  23197026.462   -12084971.64049  -9399491.16146  23197025.643    23197031.169
  24101982.257    -5685501.54149  -4214443.87945  24101981.725    24101989.618
 03  4  9  3 53  0.0000000  0  6G30G25G14G11G20G 1
  24268769.818    -6356619.93849  -4626685.20745  24268769.940    24268774.155
  20564151.725   -25691216.77549 -19776991.77848  20564151.434    20564155.310
  23025061.232   -13585178.31649 -10522032.82446  23025060.652    23025064.137
  21479578.694   -20698920.82449 -16112196.99647  21479578.277    21479582.084
  23180242.518   -12173171.50949  -9468218.25546  23180241.663    23180247.186
  24088574.356    -5755959.95249  -4269346.40645  24088573.837    24088581.672
 03  4  9  3 53 30.0000000  0  6G30G25G14G11G20G 1
  24270008.149    -6350113.18149  -4621614.99545  24270008.123    24270012.308
  20565893.528   -25682063.42049 -19769859.28048  20565893.228    20565897.106
  23038925.561   -13512321.21349 -10465261.06046  23038924.924    23038928.422
  21481408.383   -20689305.81849 -16104704.77947  21481407.981    21481411.766
  23163469.580   -12261313.58549  -9536900.32246  23163468.734    23163474.162
  24075192.500    -5826281.76649  -4324142.48945  24075191.902    24075199.732
 03  4  9  3 54  0.0000000  0  6G30G25G14G11G20G 1
  24271344.979    -6343087.23149  -4616140.22045  24271344.939    24271349.156
  20567732.224   -25672400.92949 -19762330.05348  20567731.925    20567735.802
  23052795.638   -13439433.37749 -10408465.34846  23052795.012    23052798.500
  21483341.984   -20679144.81649 -16096787.10947  21483341.542    21483345.317
  23146707.872   -12349396.61549  -9605536.35446  23146707.038    23146712.466
  24061836.531    -5896467.39749  -4378832.45545  24061836.008    24061843.639
 03  4  9  3 54 30.0000000  0  6G30G25G14G11G20G 1
  24272780.912    -6335541.21249  -4610260.19745  24272780.943    24272785.351
  20569667.752   -25662229.78449 -19754404.47248  20569667.446    20569671.315
  23066671.523   -13366515.14549 -10351645.95246  23066670.936    23066674.387
  21485379.462   -20668437.86949 -16088444.02747  21485379.042    21485382.788
  23129957.765   -12437418.67849  -9674124.89746  23129956.914    23129962.308
  24048506.508    -5966516.41249  -4433415.99045  24048506.046    24048513.632
 03  4  9  3 55  0.0000000  0  6G30G25G14G11G20G 1
  24274316.020    -6327474.53149  -4603974.46545  24274316.091    24274320.463
  20571699.830   -25651550.96549 -19746083.30348  20571699.529    20571703.420
  23080553.102   -13293567.08849 -10294803.31946  23080552.506    23080555.937
  21487520.657   -20657185.64249 -16079676.05247  21487520.259    21487523.991
  23113219.628   -12525378.13849  -9742664.66646  23113218.762    23113224.071
  24035202.451    -6036429.19649  -4487893.37045  24035202.016    24035209.518
 03  4  9  3 55 30.0000000  0  6G30G25G14G11G20G 1
  24275950.147    -6318887.68949  -4597283.41645  24275950.239    24275954.590
  20573828.266   -25640365.94149 -19737367.68748  20573827.965    20573831.840
  23094439.988   -13220590.56749 -10237938.50146  23094439.442    23094442.918
  21489765.289   -20645389.90449 -16070484.55847  21489764.885    21489768.648
  23096493.541   -12613274.00649  -9811154.87446  23096492.701    23096497.916
  24021924.234    -6106206.43949  -4542265.11145  24021923.719    24021931.223
 03  4  9  3 56  0.0000000  0  6G30G25G14G11G20G 1
  24277683.329    -6309778.84749  -4590185.60845  24277683.440    24277687.862
  20576053.066   -25628674.44449 -19728257.42248  20576052.765    20576056.643
  23108332.454   -13147585.08649 -10181051.10746  23108331.905    23108335.466
  21492113.477   -20633050.02149 -16060869.06447  21492113.070    21492116.843
  23079780.190   -12701103.56749  -9879593.42046  23079779.301    23079784.463
  24008671.936    -6175847.14449  -4596530.48045  24008671.473    24008678.942
 03  4  9  3 56 30.0000000  0  6G30G25G14G11G20G 1
  24279515.683    -6300148.49249  -4582681.42545  24279515.850    24279520.564
  20578373.896   -25616478.27549 -19718753.90048  20578373.598    20578377.461
  23122230.199   -13074551.97649 -10124142.18846  23122229.653    23122233.273
  21494564.942   -20620167.32949 -16050830.60247  21494564.533    21494568.317
  23063079.542   -12788865.89849  -9947979.58846  23063078.663    23063083.716
  23995445.572    -6245352.00549  -4650689.98545  23995445.049    23995452.529
 03  4  9  3 57  0.0000000  0  6G30G25G14G11G20G 1
  24281447.635    -6289996.01549  -4574770.40445  24281447.793    24281452.650
  20580790.599   -25603778.35749 -19708857.84948  20580790.295    20580794.171
  23136133.127   -13001491.60649 -10067212.04346  23136132.559    23136136.218
  21497119.637   -20606742.36749 -16040369.59447  21497119.244    21497123.021
  23046392.007   -12876559.20549 -10016311.96246  23046391.125    23046396.138
  23982245.023    -6314720.99949  -4704743.61945  23982244.448    23982251.841
 03  4  9  3 57 30.0000000  0  6G30G25G14G11G20G 1
  24283479.034    -6279321.28749  -4566452.43345  24283478.977    24283483.782
  20583302.895   -25590576.04249 -19698570.32148  20583302.586    20583306.483
  23150041.006   -12928404.87949 -10010261.34246  23150040.440    23150044.153
  21499777.236   -20592776.50349 -16029487.10947  21499776.834    21499780.620
  23029717.852   -12964182.10949 -10084589.47646  23029716.939    23029721.972
  23969070.175    -6383954.37849  -4758691.60745  23969069.619    23969076.912
 03  4  9  3 58  0.0000000  0  6G30G25G14G11G20G 1
  24285609.840    -6268124.04749  -4557727.29145  24285609.882    24285614.440
  20585910.624   -25576872.25949 -19687892.03948  20585910.331    20585914.202
  23163953.922   -12855292.36349  -9953290.56246  23163953.368    23163957.052
  21502537.673   -20578270.46449 -16018183.70147  21502537.253    21502541.014
  23013057.452   -13051732.97149 -10152810.85246  23013056.533    23013061.506
  23955921.178    -6453052.44849  -4812534.13945  23955920.641    23955927.968
 03  4  9  3 58 30.0000000  0  6G30G25G14G11G20G 1
  24287840.146    -6256404.15249  -4548594.89445  24287840.218    24287844.454
  20588613.629   -25562667.89049 -19676823.68248  20588613.320    20588617.219
  23177871.450   -12782154.88249  -9896300.33546  23177870.884    23177874.584
  21505400.818   -20563224.77749 -16006459.78947  21505400.391    21505404.127
  22996411.019   -13139210.35449 -10220974.97846  22996410.157    22996414.994
  23942797.901    -6522015.38149  -4866271.37745  23942797.347    23942804.651
 03  4  9  3 59  0.0000000  0  6G30G25G14G11G20G 1
  24290169.920    -6244160.73949  -4539054.57845  24290169.975    24290174.416
  20591411.719   -25547963.81549 -19665365.95248  20591411.403    20591415.275
  23191793.698   -12708992.67649  -9839290.82746  23191793.136    23191796.933
  21508366.452   -20547640.18049 -15994315.95247  21508366.008    21508369.751
  22979778.968   -13226612.04549 -10289080.13446  22979778.101    22979782.900
  23929700.285    -6590842.88549  -4919903.08645  23929699.665    23929707.104
 03  4  9  3 59 30.0000000  0  6G30G25G14G11G20G 1
  24292599.567    -6231393.65549  -4529106.18445  24292599.534    24292604.032
  20594304.647   -25532761.33949 -19653519.85448  20594304.330    20594308.186
  23205720.587   -12635806.09249  -9782262.32946  23205720.074    23205723.879
  21511434.408   -20531517.92549 -15981753.15547  21511433.964    21511437.724
  22963161.587   -13313936.33749 -10357124.97046  22963160.735    22963165.603
  23916628.448    -6659535.00649  -4973429.30045  23916627.813    23916635.277
 03  4  9  4  0  0.0000000  0  6G30G25G14G11G20G 1
  24295128.519    -6218102.95749  -4518749.78845  24295128.503    24295133.142
  20597292.147   -25517061.75949 -19641286.40748  20597291.822    20597295.696
  23219652.027   -12562596.07849  -9725215.56746  23219651.500    23219655.263
  21514604.489   -20514858.88149 -15968772.08747  21514604.050    21514607.833
  22946559.179   -13401182.02649 -10425108.57146  22946558.358    22946563.225
  23903582.378    -6728092.29149  -5026850.46545  23903581.775    23903589.123
 03  4  9  4  0 30.0000000  0  6G30G25G14G11G20G 1
  24297757.239    -6204288.55449  -4507985.30645  24297757.372    24297761.771
  20600374.075   -25500866.15449 -19628666.44648  20600373.768    20600377.627
  23233587.885   -12489363.15549  -9668150.94846  23233587.342    23233591.033
  21517876.570   -20497663.92049 -15955373.42147  21517876.144    21517879.942
  22929972.111   -13488347.36049 -10493029.54046  22929971.271    22929976.164
  23890561.897    -6796514.98949  -5080166.75645  23890561.229    23890568.552
 03  4  9  4  1  0.0000000  0  6G30G25G14G11G20G 1
  24300485.761    -6189949.88049  -4496812.30145  24300485.965    24300490.308
  20603550.210   -25484175.33949 -19615660.60448  20603549.879    20603553.744
  23247527.980   -12416107.81449  -9611068.86846  23247527.401    23247531.094
  21521250.518   -20479933.71049 -15941557.67147  21521250.099    21521253.877
  22913400.665   -13575430.40149 -10560886.39246  22913399.814    22913404.737
  23877566.953    -6864802.86749  -5133377.98545  23877566.285    23877573.720
